[[{"header":{"parameterUnit":"m.s-1","parameterCategory":1,"la1":31.0,"la2":29.5877,"lo1":-88.7671,"lo2":-86.6584,"dx":0.0162,"dy":0.0185,"nx":115,"ny":88,"refTime":"2023-01-26T18:00:00:Z","depth":0,"parameterNumber":2,"parameterNumberName":"U-component_of_WINDS"},"data":[0.0,0.0,0.0,0.0,0.0,0.0,0.0,0.0,0.0,0.0,0.0,0.0,0.0,0.0,0.0,0.0,0.0,0.0,0.0,0.0,0.0,0.0,0.0,0.0,0.0,0.0,0.0,0.0,0.0,0.0,0.0,0.0,0.0,0.0,0.0,0.0,0.0,0.0,0.0,0.0,0.0,0.0,0.0,0.0,0.0,0.0,0.0,0.0,0.0,0.0,0.0,0.0,0.0,0.0,0.0,0.0,0.0,0.0,0.0,0.0,0.0,0.0,0.0,0.0,0.0,0.0,0.0,0.0,0.0,0.0,0.0,0.0,0.0,0.0,0.0,0.0,0.0,0.0,0.0,0.0,0.0,0.0,0.0,0.0,0.0,0.0,0.0,0.0,0.0,0.0,0.0,0.0,0.0,0.0,0.0,0.0,0.0,0.0,0.0,0.0,0.0,0.0,0.0,0.0,0.0,0.0,0.0,0.0,0.0,0.0,0.0,0.0,0.0,0.0,0.0,0.0,0.0,0.0,0.0,0.0,0.0,0.0,0.0,0.0,0.0,0.0,0.0,0.0,0.0,0.0,0.0,0.0,0.0,0.0,0.0,0.0,0.0,0.0,0.0,0.0,0.0,0.0,0.0,0.0,0.0,0.0,0.0,0.0,0.0,0.0,0.0,0.0,0.0,0.0,0.0,0.0,0.0,0.0,0.0,0.0,0.0,0.0,0.0,0.0,0.0,0.0,0.0,0.0,0.0,0.0,0.0,0.0,0.0,0.0,0.0,0.0,0.0,0.0,0.0,0.0,0.0,0.0,0.0,0.0,0.0,0.0,0.0,0.0,0.0,0.0,0.0,0.0,0.0,0.0,0.0,0.0,0.0,0.0,0.0,0.0,0.0,0.0,0.0,0.0,0.0,0.0,0.0,0.0,0.0,0.0,0.0,0.0,0.0,0.0,0.0,0.0,0.0,0.0,0.0,0.0,0.0,0.0,0.0,0.0,0.0,0.0,0.0,0.0,0.0,0.0,0.0,0.0,0.0,0.0,0.0,0.0,0.0,0.0,0.0,0.0,0.0,0.0,0.0,0.0,0.0,0.0,0.0,0.0,0.0,0.0,0.0,0.0,0.0,0.0,0.0,0.0,0.0,0.0,0.0,0.0,0.0,0.0,0.0,0.0,0.0,0.0,0.0,0.0,0.0,0.0,0.0,0.0,0.0,0.0,0.0,0.0,0.0,0.0,0.0,0.0,0.0,0.0,0.0,0.0,0.0,0.0,0.0,0.0,0.0,0.0,0.0,0.0,0.0,0.0,0.0,0.0,0.0,0.0,0.0,0.0,0.0,0.0,0.0,0.0,0.0,0.0,0.0,0.0,0.0,0.0,0.0,0.0,0.0,0.0,0.0,0.0,0.0,0.0,0.0,0.0,0.0,0.0,0.0,0.0,0.0,0.0,0.0,0.0,0.0,0.0,0.0,0.0,0.0,0.0,0.0,0.0,0.0,0.0,0.0,0.0,0.0,0.0,0.0,0.0,0.0,0.0,0.0,0.0,0.0,0.0,0.0,0.0,0.0,0.0,0.0,0.0,0.0,0.0,0.0,0.0,0.0,0.0,0.0,0.0,0.0,0.0,0.0,0.0,0.0,0.0,0.0,0.0,0.0,0.0,0.0,0.0,0.0,0.0,0.0,0.0,0.0,0.0,0.0,0.0,0.0,0.0,0.0,0.0,0.0,0.0,0.0,0.0,0.0,0.0,0.0,0.0,0.0,0.0,0.0,0.0,0.0,0.0,0.0,0.0,0.0,0.0,0.0,0.0,0.0,0.0,0.0,0.0,0.0,0.0,0.0,0.0,0.0,0.0,0.0,0.0,0.0,0.0,0.0,0.0,0.0,0.0,0.0,0.0,0.0,0.0,0.0,0.0,0.0,0.0,0.0,0.0,0.0,0.0,0.0,0.0,0.0,0.0,0.0,0.0,0.0,0.0,0.0,0.0,0.0,0.0,0.0,0.0,0.0,0.0,0.0,0.0,0.0,0.0,0.0,0.0,0.0,0.0,0.0,0.0,0.0,0.0,0.0,0.0,0.0,0.0,0.0,0.0,0.0,0.0,0.0,0.0,0.0,0.0,0.0,0.0,0.0,0.0,0.0,0.0,0.0,0.0,0.0,0.0,0.0,0.0,0.0,0.0,0.0,0.0,0.0,0.0,0.0,0.0,0.0,0.0,0.0,0.0,0.0,0.0,0.0,0.0,0.0,0.0,0.0,0.0,0.0,0.0,0.0,0.0,0.0,0.0,0.0,0.0,0.0,0.0,0.0,0.0,0.0,0.0,0.0,0.0,0.0,0.0,0.0,0.0,0.0,0.0,0.0,0.0,0.0,0.0,0.0,0.0,0.0,0.0,0.0,0.0,0.0,0.0,0.0,0.0,0.0,0.0,0.0,0.0,0.0,0.0,0.0,0.0,0.0,0.0,0.0,0.0,0.0,0.0,0.0,0.0,0.0,0.0,0.0,0.0,0.0,0.0,0.0,0.0,0.0,0.0,0.0,0.0,0.0,0.0,0.0,0.0,0.0,0.0,0.0,0.0,0.0,0.0,0.0,0.0,0.0,0.0,0.0,0.0,0.0,0.0,0.0,0.0,0.0,0.0,0.0,0.0,0.0,0.0,0.0,0.0,0.0,0.0,0.0,0.0,0.0,0.0,0.0,0.0,0.0,0.0,0.0,0.0,0.0,0.0,0.0,0.0,0.0,0.0,0.0,0.0,0.0,0.0,0.0,0.0,0.0,0.0,0.0,0.0,0.0,0.0,0.0,0.0,0.0,0.0,0.0,0.0,0.0,0.0,0.0,0.0,0.0,0.0,0.0,0.0,0.0,0.0,0.0,0.0,0.0,0.0,0.0,0.0,0.0,0.0,0.0,0.0,0.0,0.0,0.0,0.0,0.0,0.0,0.0,0.0,0.0,0.0,0.0,0.0,0.0,0.0,0.0,0.0,0.0,0.0,0.0,0.0,0.0,0.0,0.0,0.0,0.0,0.0,0.0,0.0,0.0,0.0,0.0,0.0,0.0,0.0,0.0,0.0,0.0,0.0,0.0,0.0,0.0,0.0,0.0,0.0,0.0,0.0,0.0,0.0,0.0,0.0,0.0,0.0,0.0,0.0,0.0,0.0,0.0,0.0,0.0,0.0,0.0,0.0,0.0,0.0,0.0,0.0,0.0,0.0,0.0,0.0,0.0,0.0,0.0,0.0,0.0,0.0,0.0,0.0,0.0,0.0,0.0,0.0,0.0,0.0,0.0,0.0,0.0,0.0,0.0,0.0,0.0,0.0,0.0,0.0,0.0,0.0,0.0,0.0,0.0,0.0,0.0,0.0,0.0,0.0,0.0,0.0,0.0,0.0,0.0,0.0,0.0,0.0,0.0,0.0,0.0,0.0,0.0,0.0,0.0,0.0,0.0,0.0,0.0,0.0,0.0,0.0,0.0,0.0,0.0,0.0,0.0,0.0,0.0,0.0,0.0,0.0,0.0,0.0,0.0,0.0,0.0,0.0,0.0,0.0,0.0,0.0,0.0,0.0,0.0,0.0,0.0,0.0,0.0,0.0,0.0,0.0,0.0,0.0,0.0,0.0,0.0,0.0,0.0,0.0,0.0,0.0,0.0,0.0,0.0,0.0,0.0,0.0,0.0,0.0,0.0,0.0,0.0,0.0,0.0,0.0,0.0,0.0,0.0,0.0,0.0,0.0,0.0,0.0,0.0,0.0,0.0,0.0,0.0,0.0,0.0,0.0,0.0,0.0,0.0,0.0,0.0,0.0,0.0,0.0,0.0,0.0,0.0,0.0,0.0,0.0,0.0,0.0,0.0,0.0,0.0,0.0,0.0,0.0,0.0,0.0,0.0,0.0,0.0,0.0,0.0,0.0,0.0,0.0,0.0,0.0,0.0,0.0,0.0,0.0,0.0,0.0,0.0,0.0,0.0,0.0,0.0,0.0,0.0,0.0,0.0,0.0,0.0,0.0,0.0,0.0,0.0,0.0,0.0,0.0,0.0,0.0,0.0,0.0,0.0,0.0,0.0,0.0,0.0,0.0,0.0,0.0,0.0,0.0,0.0,0.0,0.0,0.0,0.0,0.0,0.0,0.0,0.0,0.0,0.0,0.0,0.0,0.0,0.0,0.0,0.0,0.0,0.0,0.0,0.0,0.0,0.0,0.0,0.0,0.0,0.0,0.0,0.0,0.0,0.0,0.0,0.0,0.0,0.0,0.0,0.0,0.0,0.0,0.0,-1.5201,0.0,0.0,0.0,0.0,0.0,0.0,0.0,0.0,0.0,0.0,0.0,0.0,0.0,0.0,0.0,0.0,0.0,0.0,0.0,0.0,0.0,0.0,0.0,0.0,0.0,0.0,0.0,0.0,0.0,0.0,0.0,0.0,0.0,0.0,0.0,0.0,0.0,0.0,0.0,0.0,0.0,0.0,0.0,0.0,0.0,0.0,0.0,0.0,0.0,0.0,0.0,0.0,0.0,0.0,0.0,0.0,0.0,0.0,0.0,0.0,0.0,0.0,0.0,0.0,0.0,0.0,0.0,0.0,0.0,0.0,0.0,0.0,0.0,0.0,0.0,0.0,0.0,0.0,0.0,0.0,0.0,0.0,0.0,0.0,0.0,0.0,0.0,0.0,0.0,0.0,0.0,0.0,0.0,0.0,0.0,0.0,0.0,0.0,0.0,0.0,0.0,0.0,0.0,0.0,0.0,0.0,0.0,0.0,0.0,0.0,-1.5387,-1.5338,-1.5288,-1.5215,-1.5146,0.0,0.0,0.0,0.0,0.0,0.0,0.0,0.0,0.0,0.0,0.0,0.0,0.0,0.0,0.0,0.0,0.0,0.0,0.0,0.0,0.0,0.0,0.0,0.0,0.0,0.0,0.0,0.0,0.0,0.0,0.0,0.0,0.0,0.0,0.0,0.0,0.0,0.0,0.0,0.0,0.0,0.0,0.0,0.0,0.0,0.0,0.0,0.0,0.0,0.0,0.0,0.0,0.0,0.0,0.0,0.0,0.0,0.0,0.0,0.0,0.0,0.0,0.0,0.0,0.0,0.0,0.0,0.0,0.0,0.0,0.0,0.0,0.0,0.0,0.0,0.0,0.0,0.0,0.0,0.0,0.0,0.0,0.0,0.0,0.0,0.0,0.0,0.0,0.0,0.0,0.0,0.0,0.0,0.0,0.0,0.0,0.0,0.0,0.0,0.0,0.0,0.0,0.0,0.0,0.0,0.0,0.0,0.0,0.0,0.0,0.0,0.0,-1.5233,-1.5168,-1.5078,0.0,0.0,0.0,0.0,0.0,0.0,0.0,0.0,0.0,0.0,0.0,0.0,0.0,0.0,0.0,0.0,0.0,0.0,0.0,0.0,0.0,0.0,0.0,0.0,0.0,0.0,0.0,0.0,0.0,0.0,0.0,0.0,0.0,0.0,0.0,0.0,0.0,0.0,0.0,0.0,0.0,0.0,0.0,0.0,0.0,0.0,0.0,0.0,0.0,0.0,0.0,0.0,0.0,0.0,0.0,0.0,0.0,0.0,0.0,0.0,0.0,0.0,0.0,0.0,0.0,0.0,0.0,0.0,0.0,0.0,0.0,0.0,0.0,0.0,0.0,0.0,0.0,0.0,0.0,0.0,0.0,0.0,0.0,0.0,0.0,0.0,0.0,0.0,0.0,0.0,0.0,0.0,0.0,0.0,0.0,0.0,0.0,0.0,0.0,0.0,0.0,0.0,0.0,0.0,0.0,0.0,0.0,0.0,0.0,0.0,-1.5366,-1.5285,-1.5233,0.0,-1.5011,0.0,0.0,0.0,0.0,0.0,0.0,0.0,0.0,0.0,0.0,0.0,0.0,0.0,0.0,0.0,0.0,0.0,0.0,0.0,0.0,0.0,0.0,0.0,0.0,0.0,0.0,0.0,0.0,0.0,0.0,0.0,0.0,0.0,0.0,0.0,0.0,0.0,0.0,0.0,0.0,0.0,0.0,0.0,0.0,0.0,0.0,0.0,0.0,0.0,0.0,0.0,0.0,0.0,0.0,0.0,0.0,0.0,0.0,0.0,0.0,0.0,0.0,0.0,0.0,0.0,0.0,0.0,0.0,0.0,0.0,0.0,0.0,0.0,0.0,0.0,0.0,0.0,0.0,0.0,0.0,0.0,0.0,0.0,0.0,0.0,0.0,0.0,0.0,0.0,0.0,0.0,0.0,0.0,0.0,0.0,0.0,0.0,0.0,0.0,0.0,0.0,0.0,0.0,0.0,0.0,0.0,0.0,0.0,0.0,0.0,-1.5367,-1.5287,-1.5159,-1.5035,0.0,0.0,0.0,0.0,0.0,0.0,0.0,0.0,0.0,0.0,0.0,0.0,0.0,0.0,0.0,0.0,0.0,0.0,0.0,0.0,0.0,0.0,0.0,0.0,0.0,0.0,0.0,0.0,0.0,0.0,0.0,0.0,0.0,0.0,0.0,0.0,0.0,0.0,0.0,0.0,0.0,0.0,0.0,0.0,0.0,0.0,0.0,0.0,0.0,0.0,0.0,0.0,0.0,0.0,0.0,0.0,0.0,0.0,0.0,0.0,0.0,0.0,0.0,0.0,0.0,0.0,0.0,0.0,0.0,0.0,0.0,0.0,0.0,0.0,0.0,0.0,0.0,0.0,0.0,0.0,0.0,0.0,0.0,0.0,0.0,0.0,0.0,0.0,0.0,0.0,0.0,0.0,0.0,0.0,0.0,0.0,0.0,0.0,0.0,0.0,0.0,0.0,0.0,0.0,0.0,0.0,0.0,0.0,0.0,0.0,-1.5404,-1.5348,-1.5284,-1.5124,-1.4996,-1.4892,0.0,0.0,0.0,0.0,0.0,0.0,0.0,0.0,0.0,0.0,0.0,0.0,0.0,0.0,0.0,0.0,0.0,0.0,0.0,0.0,0.0,0.0,0.0,0.0,0.0,0.0,0.0,0.0,0.0,0.0,0.0,0.0,0.0,0.0,0.0,0.0,0.0,0.0,0.0,0.0,0.0,0.0,0.0,0.0,0.0,0.0,0.0,0.0,0.0,0.0,0.0,0.0,0.0,0.0,0.0,0.0,0.0,0.0,0.0,0.0,0.0,0.0,0.0,0.0,0.0,0.0,0.0,0.0,0.0,0.0,0.0,0.0,0.0,0.0,0.0,0.0,0.0,0.0,0.0,0.0,0.0,0.0,0.0,0.0,0.0,0.0,0.0,0.0,0.0,0.0,0.0,0.0,0.0,0.0,0.0,0.0,0.0,0.0,0.0,0.0,0.0,0.0,0.0,0.0,0.0,0.0,0.0,0.0,-1.5402,-1.5418,-1.5325,-1.5201,-1.5133,-1.5023,0.0,0.0,0.0,0.0,0.0,0.0,0.0,0.0,0.0,0.0,0.0,0.0,0.0,0.0,0.0,0.0,0.0,0.0,0.0,0.0,0.0,0.0,0.0,0.0,0.0,0.0,0.0,0.0,0.0,0.0,0.0,0.0,0.0,0.0,0.0,0.0,0.0,0.0,0.0,0.0,0.0,0.0,0.0,0.0,0.0,0.0,0.0,0.0,0.0,0.0,0.0,0.0,0.0,0.0,0.0,0.0,0.0,0.0,0.0,0.0,0.0,0.0,0.0,0.0,0.0,0.0,0.0,0.0,0.0,0.0,0.0,0.0,0.0,0.0,0.0,0.0,0.0,0.0,0.0,0.0,0.0,0.0,0.0,0.0,0.0,0.0,0.0,0.0,0.0,0.0,0.0,0.0,0.0,0.0,0.0,0.0,0.0,0.0,0.0,0.0,0.0,0.0,0.0,0.0,0.0,0.0,0.0,0.0,0.0,-1.5329,-1.5388,-1.535,-1.5265,-1.5149,-1.5066,0.0,0.0,0.0,0.0,0.0,0.0,0.0,0.0,0.0,0.0,0.0,0.0,0.0,0.0,0.0,0.0,0.0,0.0,0.0,0.0,0.0,0.0,0.0,0.0,0.0,0.0,0.0,0.0,0.0,0.0,0.0,0.0,0.0,0.0,0.0,0.0,0.0,0.0,0.0,0.0,0.0,0.0,0.0,0.0,0.0,0.0,0.0,0.0,0.0,0.0,0.0,0.0,0.0,0.0,0.0,0.0,0.0,0.0,0.0,0.0,0.0,0.0,0.0,0.0,0.0,0.0,0.0,0.0,0.0,0.0,0.0,0.0,0.0,0.0,0.0,0.0,0.0,0.0,0.0,0.0,0.0,0.0,0.0,0.0,0.0,0.0,0.0,0.0,0.0,0.0,0.0,0.0,0.0,0.0,0.0,0.0,0.0,0.0,0.0,0.0,0.0,0.0,0.0,0.0,0.0,0.0,0.0,0.0,0.0,-1.5338,0.0,-1.5383,-1.5306,-1.5187,-1.5095,0.0,0.0,0.0,0.0,0.0,0.0,0.0,0.0,0.0,0.0,0.0,0.0,0.0,0.0,0.0,0.0,0.0,0.0,0.0,0.0,0.0,0.0,0.0,0.0,0.0,0.0,0.0,0.0,0.0,0.0,0.0,0.0,0.0,0.0,0.0,0.0,0.0,0.0,0.0,0.0,0.0,0.0,0.0,0.0,0.0,0.0,0.0,0.0,0.0,0.0,0.0,0.0,0.0,0.0,0.0,0.0,0.0,0.0,0.0,0.0,0.0,0.0,0.0,0.0,0.0,0.0,0.0,0.0,0.0,0.0,0.0,0.0,0.0,0.0,0.0,0.0,0.0,0.0,0.0,0.0,0.0,0.0,0.0,0.0,0.0,0.0,0.0,0.0,0.0,0.0,0.0,0.0,0.0,0.0,0.0,0.0,0.0,0.0,0.0,0.0,0.0,0.0,0.0,0.0,0.0,0.0,0.0,0.0,-1.5276,-1.5407,-1.541,-1.5353,-1.53,-1.5221,-1.512,0.0,0.0,0.0,0.0,0.0,0.0,0.0,0.0,0.0,0.0,0.0,0.0,0.0,0.0,0.0,0.0,0.0,0.0,0.0,0.0,0.0,0.0,0.0,0.0,0.0,0.0,0.0,0.0,0.0,0.0,0.0,0.0,0.0,0.0,0.0,0.0,0.0,0.0,0.0,0.0,0.0,0.0,0.0,0.0,0.0,0.0,0.0,0.0,0.0,0.0,0.0,0.0,0.0,0.0,0.0,0.0,0.0,0.0,0.0,0.0,0.0,0.0,0.0,0.0,0.0,0.0,0.0,0.0,0.0,0.0,0.0,0.0,0.0,0.0,0.0,0.0,0.0,0.0,0.0,0.0,0.0,0.0,0.0,0.0,0.0,0.0,0.0,0.0,0.0,0.0,0.0,0.0,0.0,0.0,0.0,0.0,0.0,0.0,0.0,0.0,0.0,0.0,0.0,0.0,0.0,0.0,0.0,0.0,0.0,-1.5412,-1.5407,-1.5364,-1.5304,-1.524,-1.5176,0.0,0.0,0.0,0.0,0.0,0.0,0.0,0.0,0.0,0.0,0.0,0.0,0.0,0.0,0.0,0.0,0.0,0.0,0.0,0.0,0.0,0.0,0.0,0.0,0.0,0.0,0.0,0.0,0.0,0.0,0.0,0.0,0.0,0.0,0.0,0.0,0.0,0.0,0.0,0.0,0.0,0.0,0.0,0.0,0.0,0.0,0.0,0.0,0.0,0.0,0.0,0.0,0.0,0.0,0.0,0.0,0.0,0.0,0.0,0.0,0.0,0.0,0.0,0.0,0.0,0.0,0.0,0.0,0.0,0.0,0.0,0.0,0.0,0.0,0.0,0.0,0.0,0.0,0.0,0.0,0.0,0.0,0.0,0.0,0.0,0.0,0.0,0.0,0.0,0.0,0.0,0.0,0.0,0.0,0.0,0.0,0.0,0.0,0.0,0.0,0.0,0.0,0.0,0.0,0.0,0.0,0.0,0.0,0.0,-1.5399,-1.5421,-1.5389,-1.5358,-1.5276,-1.5201,-1.5101,0.0,0.0,0.0,0.0,0.0,0.0,0.0,0.0,0.0,0.0,0.0,0.0,0.0,0.0,0.0,0.0,0.0,0.0,0.0,0.0,0.0,0.0,0.0,0.0,0.0,0.0,0.0,0.0,0.0,0.0,0.0,0.0,0.0,0.0,0.0,0.0,0.0,0.0,0.0,0.0,0.0,0.0,0.0,0.0,0.0,0.0,0.0,0.0,0.0,0.0,0.0,0.0,0.0,0.0,0.0,0.0,0.0,0.0,0.0,0.0,0.0,0.0,0.0,0.0,0.0,0.0,0.0,0.0,0.0,0.0,0.0,0.0,0.0,0.0,0.0,0.0,0.0,0.0,0.0,0.0,0.0,0.0,0.0,0.0,0.0,0.0,0.0,0.0,0.0,0.0,0.0,0.0,0.0,0.0,0.0,0.0,0.0,0.0,0.0,0.0,0.0,0.0,0.0,0.0,0.0,0.0,0.0,0.0,-1.5416,-1.5416,-1.541,-1.5405,-1.5329,-1.5216,0.0,0.0,0.0,0.0,0.0,0.0,0.0,0.0,0.0,0.0,0.0,0.0,0.0,0.0,0.0,0.0,0.0,0.0,0.0,0.0,0.0,0.0,0.0,0.0,0.0,0.0,0.0,0.0,0.0,0.0,0.0,0.0,0.0,0.0,0.0,0.0,0.0,0.0,0.0,0.0,0.0,0.0,0.0,0.0,0.0,0.0,0.0,0.0,0.0,0.0,0.0,0.0,0.0,0.0,0.0,0.0,0.0,0.0,0.0,0.0,0.0,0.0,0.0,0.0,0.0,0.0,0.0,0.0,0.0,0.0,0.0,0.0,0.0,0.0,0.0,0.0,0.0,0.0,0.0,0.0,0.0,0.0,0.0,0.0,0.0,0.0,0.0,0.0,0.0,0.0,0.0,0.0,0.0,0.0,0.0,0.0,0.0,0.0,0.0,0.0,0.0,0.0,0.0,0.0,0.0,0.0,0.0,0.0,0.0,-1.5407,-1.5418,-1.541,-1.5409,-1.529,-1.5183,0.0,0.0,0.0,0.0,0.0,0.0,0.0,0.0,0.0,0.0,0.0,0.0,0.0,0.0,0.0,0.0,0.0,0.0,0.0,0.0,0.0,0.0,0.0,0.0,0.0,0.0,0.0,0.0,0.0,0.0,0.0,0.0,0.0,0.0,0.0,0.0,0.0,0.0,0.0,0.0,0.0,0.0,0.0,0.0,0.0,0.0,0.0,0.0,0.0,0.0,0.0,0.0,0.0,0.0,0.0,0.0,0.0,0.0,0.0,0.0,0.0,0.0,0.0,0.0,0.0,0.0,0.0,0.0,0.0,0.0,0.0,0.0,0.0,0.0,0.0,0.0,0.0,0.0,0.0,0.0,0.0,0.0,0.0,0.0,0.0,0.0,0.0,0.0,0.0,0.0,0.0,0.0,0.0,0.0,0.0,0.0,0.0,0.0,0.0,0.0,0.0,0.0,0.0,0.0,0.0,0.0,0.0,0.0,-1.5336,-1.5399,-1.5404,-1.5389,-1.5342,-1.5257,-1.5163,0.0,0.0,0.0,0.0,0.0,0.0,0.0,0.0,0.0,0.0,0.0,0.0,0.0,0.0,0.0,0.0,0.0,0.0,0.0,0.0,0.0,0.0,0.0,0.0,0.0,0.0,0.0,0.0,0.0,0.0,0.0,0.0,0.0,0.0,0.0,0.0,0.0,0.0,0.0,0.0,0.0,0.0,0.0,0.0,0.0,0.0,0.0,0.0,0.0,0.0,0.0,0.0,0.0,0.0,0.0,0.0,0.0,0.0,0.0,0.0,0.0,0.0,0.0,0.0,0.0,0.0,0.0,0.0,0.0,0.0,0.0,0.0,0.0,0.0,0.0,0.0,0.0,0.0,0.0,0.0,0.0,0.0,0.0,0.0,0.0,0.0,0.0,0.0,0.0,0.0,0.0,0.0,0.0,0.0,0.0,0.0,0.0,0.0,0.0,0.0,0.0,0.0,0.0,0.0,0.0,0.0,0.0,0.0,-1.5354,-1.541,-1.5409,-1.5363,-1.5282,-1.5222,-1.5177,0.0,0.0,0.0,0.0,0.0,0.0,0.0,0.0,0.0,0.0,0.0,0.0,0.0,0.0,0.0,0.0,0.0,0.0,0.0,0.0,0.0,0.0,0.0,0.0,0.0,0.0,0.0,0.0,0.0,0.0,0.0,0.0,0.0,0.0,0.0,0.0,0.0,0.0,0.0,0.0,0.0,0.0,0.0,0.0,0.0,0.0,0.0,0.0,0.0,0.0,0.0,0.0,0.0,0.0,0.0,0.0,0.0,0.0,0.0,0.0,0.0,0.0,0.0,0.0,0.0,0.0,0.0,0.0,0.0,0.0,0.0,0.0,0.0,0.0,0.0,0.0,0.0,0.0,0.0,0.0,0.0,0.0,0.0,0.0,0.0,0.0,0.0,0.0,0.0,0.0,0.0,0.0,0.0,0.0,0.0,0.0,0.0,0.0,0.0,0.0,0.0,0.0,0.0,0.0,0.0,0.0,0.0,0.0,-1.5381,-1.5405,-1.541,-1.5352,-1.5297,-1.5235,-1.5143,0.0,0.0,0.0,0.0,0.0,0.0,0.0,0.0,0.0,0.0,0.0,0.0,0.0,0.0,0.0,0.0,0.0,0.0,0.0,0.0,0.0,0.0,0.0,0.0,0.0,0.0,0.0,0.0,0.0,0.0,0.0,0.0,0.0,0.0,0.0,0.0,0.0,0.0,0.0,0.0,0.0,0.0,0.0,0.0,0.0,0.0,0.0,0.0,-0.1869,0.0,0.0,0.0,0.0,0.0,0.0,0.0,0.0,0.0,0.0,0.0,0.0,0.0,0.0,0.0,0.0,0.0,0.0,0.0,0.0,0.0,0.0,0.0,0.0,0.0,0.0,0.0,0.0,0.0,0.0,0.0,0.0,0.0,0.0,0.0,0.0,0.0,0.0,0.0,0.0,0.0,0.0,0.0,0.0,0.0,0.0,0.0,0.0,0.0,0.0,0.0,0.0,0.0,0.0,0.0,0.0,0.0,0.0,0.0,-1.5419,-1.541,-1.5364,-1.5331,-1.5268,-1.5196,-1.5095,0.0,0.0,0.0,0.0,0.0,0.0,0.0,0.0,0.0,0.0,0.0,0.0,0.0,0.0,0.0,0.0,0.0,0.0,0.0,0.0,0.0,0.0,0.0,0.0,0.0,0.0,0.0,0.0,0.0,0.0,0.0,0.0,0.0,0.0,0.0,0.0,0.0,0.0,0.0,0.0,0.0,0.0,0.0,0.0,0.0,0.0,0.0,0.0,0.0,0.0,0.0,0.0,0.0,0.0,0.0,0.0,0.0,0.0,0.0,0.0,0.0,0.0,0.0,0.0,0.0,0.0,0.0,0.0,0.0,0.0,0.0,0.0,0.0,0.0,0.0,0.0,0.0,0.0,0.0,0.0,0.0,0.0,0.0,0.0,0.0,0.0,0.0,0.0,0.0,0.0,0.0,0.0,0.0,0.0,0.0,0.0,0.0,0.0,0.0,0.0,0.0,0.0,0.0,0.0,0.0,0.0,0.0,-1.5416,-1.5408,-1.5409,-1.5329,-1.5265,-1.5192,-1.5127,-1.5004,-1.4844,0.0,0.0,0.0,0.0,0.0,0.0,0.0,0.0,0.0,0.0,0.0,0.0,0.0,0.0,0.0,0.0,0.0,0.0,0.0,0.0,0.0,0.0,0.0,0.0,0.0,0.0,0.0,0.0,0.0,0.0,0.0,0.0,0.0,0.0,0.0,0.0,0.0,0.0,-0.1643,0.0736,0.0,0.0,0.0,0.0,0.0,0.0,0.0,0.0,0.3729,0.0,0.0,0.0,0.0,0.0,0.0,0.0,0.0,0.0,0.0,0.0,0.0,0.0,0.0,0.0,0.0,0.0,0.0,0.0,0.0,0.0,0.0,0.0,0.0,0.0,0.0,0.0,0.0,0.0,0.0,0.0,0.0,0.0,0.0,0.0,0.0,0.0,0.0,0.0,0.0,0.0,0.0,0.0,0.0,0.0,0.0,0.0,0.0,0.0,0.0,0.0,0.0,0.0,0.0,0.0,0.0,-1.5418,-1.5408,-1.541,-1.5419,-1.5329,-1.5272,-1.5201,-1.5087,-1.49,-1.4632,0.0,0.0,0.0,0.0,0.0,0.0,0.0,0.0,0.0,0.0,0.0,0.0,0.0,0.0,0.0,0.0,0.0,0.0,0.0,0.0,0.0,0.0,0.0,0.0,0.0,0.0,0.0,0.0,0.0,0.0,0.0,0.0,0.0,0.0,0.0,0.0,0.0,0.0,0.0,0.4383,0.5333,0.0,0.0,0.0,0.0,0.0,0.0,0.0,0.0,0.3565,0.0,0.0,0.0,0.0,0.0,0.0,0.0,0.0,0.0,0.0,0.0,0.0,0.0,0.0,0.0,0.0,0.0,0.0,0.0,0.0,0.0,0.0,0.0,0.0,0.0,0.0,0.0,0.0,0.0,0.0,0.0,0.0,0.0,0.0,0.0,0.0,0.0,0.0,0.0,0.0,0.0,0.0,0.0,0.0,0.0,0.0,0.0,0.0,0.0,0.0,0.0,0.0,0.0,0.0,0.0,-1.5408,-1.541,-1.5403,-1.5403,-1.5323,-1.525,-1.5151,-1.4977,-1.4587,0.0,0.0,0.0,0.0,0.0,0.0,0.0,0.0,0.0,0.0,0.0,0.0,0.0,0.0,0.0,0.0,0.0,0.0,0.0,0.0,0.0,0.0,0.0,0.0,0.0,0.0,0.0,0.0,0.0,0.0,0.0,0.0,0.0,0.0,0.0,0.0,0.0,0.0,0.0,0.0,0.5404,0.5975,0.6621,0.0,0.0,0.0,0.0,0.0,0.0,0.6269,0.458,0.0,0.0,0.0,0.0,0.0,0.0,0.0,0.0,0.0,0.0,0.0,0.0,0.0,0.0,0.0,0.0,0.0,0.0,0.0,0.0,0.0,0.0,0.0,0.0,0.0,0.0,0.0,0.0,0.0,0.0,0.0,0.0,0.0,0.0,0.0,0.0,0.0,0.0,0.0,0.0,0.0,0.0,0.0,0.0,0.0,0.0,0.0,0.0,0.0,0.0,0.0,0.0,0.0,0.0,0.0,-1.5663,-1.5676,-1.566,-1.5652,-1.5404,-1.5226,-1.5076,-1.4898,-1.4317,0.0,0.0,0.0,0.0,0.0,0.0,0.0,0.0,0.0,0.0,0.0,0.0,0.0,0.0,0.0,0.0,0.0,0.0,0.0,0.0,0.0,0.0,0.0,0.0,0.0,0.0,0.0,0.0,0.0,0.0,0.0,0.0,0.0,0.0,0.0,0.0,0.0,0.0,0.0,0.0,0.0,0.623,0.6855,0.7533,0.0,0.0,0.0,0.0,0.8216,0.6841,0.0,0.0,0.0,0.0,0.0,0.0,0.0,0.0,0.0,0.0,0.0,0.0,0.0,0.0,0.0,0.0,0.0,0.0,0.0,0.0,0.0,0.0,0.0,0.0,0.0,0.0,0.0,0.0,0.0,0.0,0.0,0.0,0.0,0.0,0.0,0.0,0.0,0.0,0.0,0.0,0.0,0.0,0.0,0.0,0.0,0.0,0.0,0.0,0.0,0.0,0.0,0.0,0.0,0.0,0.0,0.0,-1.6551,-1.6555,-1.6528,-1.6445,-1.5632,-1.5132,-1.5011,-1.4831,-1.4239,0.0,0.0,0.0,0.0,0.0,0.0,0.0,0.0,0.0,0.0,0.0,0.0,0.0,0.0,0.0,0.0,0.0,0.0,0.0,0.0,0.0,0.0,0.0,0.0,0.0,0.0,0.0,0.0,0.0,0.0,0.0,0.0,0.0,0.0,0.0,0.0,0.0,0.0,0.0,0.0,0.0,0.6458,0.7002,0.7749,0.8485,0.0,0.0,0.9243,0.8462,0.7167,0.0,0.0,0.0,0.0,0.0,0.0,0.0,0.0,0.0,0.0,0.0,0.0,0.0,0.0,0.0,0.0,0.0,0.0,0.0,0.0,0.0,0.0,0.0,0.0,0.0,0.0,0.0,0.0,0.0,0.0,0.0,0.0,0.0,0.0,0.0,0.0,0.0,0.0,0.0,0.0,0.0,0.0,0.0,0.0,0.0,0.0,0.0,0.0,0.0,0.0,0.0,0.0,0.0,0.0,0.0,-1.6928,-1.737,-1.7362,-1.7109,-1.6547,-1.6066,-1.5534,-1.489,-1.4242,-1.3442,0.0,0.0,0.0,0.0,0.0,0.0,0.0,0.0,0.0,0.0,0.0,0.0,0.0,0.0,0.0,0.0,0.0,0.0,0.0,0.0,0.0,0.0,0.0,0.0,0.0,0.0,0.0,0.0,0.0,0.0,0.0,0.0,0.0,0.0,0.0,0.0,0.0,0.0,0.0,0.0,0.0,0.0,0.7245,0.7957,0.0,0.0,0.0,0.93,0.86,0.0,0.0,0.0,0.0,0.0,0.0,0.0,0.0,0.0,0.0,0.0,0.0,0.0,0.0,0.0,0.0,0.0,0.0,0.0,0.0,0.0,0.0,0.0,0.0,0.0,0.0,0.0,0.0,0.0,0.0,0.0,0.0,0.0,0.0,0.0,0.0,0.0,0.0,0.0,0.0,0.0,0.0,0.0,0.0,0.0,0.0,0.0,0.0,0.0,0.0,0.0,0.0,0.0,0.0,0.0,0.0,0.0,-1.8176,-1.8192,-1.7708,-1.681,-1.6417,-1.5763,-1.4738,-1.3752,0.0,0.0,0.0,0.0,0.0,0.0,0.0,0.0,0.0,0.0,0.0,0.0,0.0,0.0,0.0,0.0,0.0,0.0,0.0,0.0,0.0,0.0,0.0,0.0,0.0,0.0,0.0,0.0,0.0,0.0,0.0,0.0,0.0,0.0,0.0,0.0,0.0,0.0,0.0,0.0,0.0,0.0,0.7005,0.7563,0.8189,0.8805,0.0,0.0,0.9416,0.8749,0.754,0.6171,0.0,0.0,0.0,0.0,0.0,0.0,0.0,0.0,0.0,0.0,0.0,0.0,0.0,0.0,0.0,0.0,0.0,0.0,0.0,0.0,0.0,0.0,0.0,0.0,0.0,0.0,0.0,0.0,0.0,0.0,0.0,0.0,0.0,0.0,0.0,0.0,0.0,0.0,0.0,0.0,0.0,0.0,0.0,0.0,0.0,0.0,0.0,0.0,0.0,0.0,0.0,0.0,0.0,0.0,0.0,-1.8969,-1.896,-1.8468,-1.7538,-1.6614,-1.5602,-1.4555,-1.3548,-1.252,0.0,0.0,0.0,0.0,0.0,0.0,0.0,0.0,0.0,0.0,0.0,0.0,0.0,0.0,0.0,0.0,0.0,0.0,0.0,0.0,0.0,0.0,0.0,0.0,0.0,0.0,0.0,0.0,0.0,0.0,0.0,0.0,0.0,0.0,0.0,0.0,0.0,0.0,0.0,0.0,0.0,0.7444,0.7982,0.8525,0.9071,0.0,0.0,0.9479,0.8871,0.777,0.6462,0.5001,0.0,0.0,0.0,0.0,0.0,0.0,0.0,0.0,0.0,0.0,0.0,0.0,0.0,0.0,0.0,0.0,0.0,0.0,0.0,0.0,0.0,0.0,0.0,0.0,0.0,0.0,0.0,0.0,0.0,0.0,0.0,0.0,0.0,0.0,0.0,0.0,0.0,0.0,0.0,0.0,0.0,0.0,0.0,0.0,0.0,0.0,0.0,0.0,0.0,0.0,0.0,0.0,0.0,-1.9024,-1.9819,-1.9783,-1.9008,-1.7545,-1.696,-1.593,-1.4222,-1.2709,-1.1594,0.0,0.0,0.0,0.0,0.0,0.0,0.0,0.0,0.0,0.0,0.0,0.0,0.0,0.0,0.0,0.0,0.0,0.0,0.0,0.0,0.0,0.0,0.0,0.0,0.0,0.0,0.0,0.0,0.2507,0.4524,0.4604,0.0,0.0,0.0,0.0,0.0,0.0,0.0,0.0,0.0,0.0,0.7913,0.8391,0.8864,0.0,0.0,0.9794,0.9557,0.8897,0.7846,0.6651,0.526,0.4291,0.0,0.0,0.0,0.0,0.0,0.0,0.0,0.0,0.0,0.0,0.0,0.0,0.0,0.0,0.0,0.0,0.0,0.0,0.0,0.0,0.0,0.0,0.0,0.0,0.0,0.0,0.0,0.0,0.0,0.0,0.0,0.0,0.0,0.0,0.0,0.0,0.0,0.0,0.0,0.0,0.0,0.0,0.0,0.0,0.0,0.0,0.0,0.0,0.0,0.0,0.0,0.0,-1.9463,-2.0212,-2.0161,-1.9202,-1.7368,-1.7067,-1.5934,-1.3839,-1.1934,-1.0696,0.0,0.0,0.0,0.0,0.0,0.0,0.0,0.0,0.0,0.0,0.0,0.0,0.0,0.0,0.0,0.0,0.0,0.0,0.0,0.0,0.0,0.0,0.0,0.0,0.0,0.0,0.0,0.0,0.3215,0.4724,0.4951,0.0,0.0,0.0,0.0,0.0,0.0,0.0,0.0,0.0,0.0,0.768,0.8114,0.868,0.9171,0.9528,0.9703,0.9596,0.8953,0.7983,0.6867,0.5627,0.0,0.0,0.0,0.0,0.0,0.0,0.0,0.0,0.0,0.0,0.0,0.0,0.0,0.0,0.0,0.0,0.0,0.0,0.0,0.0,0.0,0.0,0.0,0.0,0.0,0.0,0.0,0.0,0.0,0.0,0.0,0.0,0.0,0.0,0.0,0.0,0.0,0.0,0.0,0.0,0.0,0.0,0.0,0.0,0.0,0.0,0.0,0.0,0.0,0.0,0.0,0.0,0.0,-1.9369,-2.0096,-1.9972,-1.902,-1.7266,-1.6807,-1.555,-1.3371,-1.135,-0.9982,-0.918,0.0,0.0,0.0,0.0,0.0,0.0,0.0,0.0,0.0,0.0,0.0,0.0,0.0,0.0,0.0,0.0,0.0,0.0,0.0,0.0,0.0,0.0,0.0,0.0,0.0,0.0,0.1146,0.339,0.4922,0.0,0.0,0.0,0.0,0.0,0.0,0.0,0.0,0.0,0.0,0.6629,0.6555,0.6938,0.7866,0.8634,0.8811,0.9388,0.9617,0.9077,0.8149,0.7127,0.0,0.0,0.0,0.0,0.0,0.0,0.0,0.0,0.0,0.0,0.0,0.0,0.0,0.0,0.0,0.0,0.0,0.0,0.0,0.0,0.0,0.0,0.0,0.0,0.0,0.0,0.0,-1.7001,-1.6962,0.0,0.0,0.0,0.0,0.0,0.0,0.0,0.0,0.0,0.0,0.0,-1.9427,-1.9121,0.0,0.0,0.0,0.0,0.0,0.0,0.0,0.0,0.0,0.0,0.0,0.0,-1.9783,-1.9962,-1.9821,-1.8877,-1.7052,-1.6504,-1.5103,-1.2696,-1.0682,-0.8518,-0.6169,0.0,0.0,0.0,0.0,0.0,0.0,0.0,0.0,0.0,0.0,0.0,0.0,0.0,0.0,0.0,0.0,0.0,0.0,0.0,0.0,0.0,0.0,0.0,0.0,0.0,-0.0473,0.0,0.0,0.0,0.0,0.0,0.0,0.0,0.0,0.0,0.0,0.0,0.6741,0.6655,0.673,0.6891,0.7138,0.805,0.8719,0.0,0.0,0.0,0.0,0.0,0.0,0.0,0.0,0.0,0.0,0.0,0.0,0.0,0.0,0.8424,0.8705,0.9005,0.9263,0.9493,0.0,0.0,0.0,0.0,0.0,0.0,0.0,0.0,0.0,0.0,0.0,0.0,0.0,0.0,0.0,0.0,-1.7723,0.0,0.0,0.0,0.0,0.0,0.0,0.0,0.0,-2.0215,-2.0152,-2.0156,-1.9778,-1.9648,0.0,-1.9452,-1.8873,0.0,0.0,0.0,0.0,0.0,0.0,0.0,0.0,-1.9936,-1.9828,-1.9682,-1.8813,-1.7231,-1.6369,-1.4789,-1.2415,-0.9371,-0.6439,-0.3616,-0.3345,-0.352,0.0,0.0,0.0,0.0,0.0,0.0,0.0,0.0,0.0,0.0,0.0,0.0,0.0,0.0,0.0,0.0,0.0,0.0,0.0,0.0,0.0,0.0,0.0,0.1966,0.0,0.0,0.0,0.0,0.0,0.0,0.0,0.0,0.0,0.6855,0.6805,0.6716,0.6312,0.6278,0.6361,0.648,0.0,0.0,0.0,0.0,0.0,0.0,0.0,0.7782,0.7083,0.6707,0.6469,0.6474,0.7138,0.7766,0.814,0.0,0.0,0.8874,0.9085,0.9301,0.9475,0.9559,0.9628,0.978,0.9803,0.9818,0.0,0.0,0.0,0.0,0.0,0.0,0.0,0.0,-1.9393,-1.935,0.0,-1.9292,0.0,0.0,0.0,0.0,0.0,0.0,0.0,0.0,-2.1589,-2.1571,-2.1498,-2.0644,-2.0264,-2.03,-1.9606,-1.9269,-1.9323,-1.9532,0.0,0.0,0.0,0.0,0.0,0.0,-1.9818,-1.9701,-1.9495,-1.8855,-1.7673,-1.6307,-1.4536,-1.2261,-0.7481,-0.3903,-0.1788,-0.1373,-0.1581,-0.2377,-0.3505,0.0,0.0,0.0,0.0,0.0,0.0,0.0,0.0,0.0,0.0,0.0,0.0,0.0,0.0,0.0,0.0,0.0,0.0,0.0,0.0,0.269,0.0,0.0,0.0,0.0,0.0,0.0,0.0,0.0,0.0,0.0,0.7378,0.6933,0.6439,0.5905,0.0,0.0,0.0,0.0,0.7603,0.7482,0.873,0.959,0.9251,0.8706,0.814,0.7606,0.0,0.0,0.7577,0.7879,0.8206,0.8567,0.8762,0.8962,0.9081,0.9224,0.934,0.9483,0.9559,0.9646,0.9758,0.9787,0.9796,-2.2612,0.0,0.0,0.0,0.0,-2.1184,-2.1103,-2.0985,-2.095,-2.0897,-2.0789,-2.0771,0.0,0.0,0.0,0.0,0.0,0.0,-2.1425,-2.1571,-2.1458,-2.1381,-2.1363,-2.1014,-2.0867,-2.0908,-2.0154,-1.9849,-1.9936,-1.9486,-1.939,-1.9612,0.0,0.0,0.0,0.0,-1.9681,-1.9555,-1.9353,-1.8717,-1.7574,-1.6143,-1.3292,-0.8985,-0.5692,-0.2884,-0.0569,0.0183,0.0272,-0.0349,-0.1846,0.0,0.0,0.0,0.0,0.0,0.0,0.0,0.0,0.0,0.0,0.0,0.0,0.0,0.0,0.0,0.0,0.0,0.0,0.0,0.0824,0.4244,0.6247,0.0,0.0,0.0,0.0,0.0,0.0,0.0,0.0,0.0,0.8205,0.7993,0.7434,0.0,0.0,0.6838,0.6782,0.771,0.8341,0.8194,0.0,0.0,0.0,0.8921,0.8513,0.8133,0.7933,0.7922,0.814,0.8374,0.8611,0.8835,0.9015,0.9149,0.9282,0.9338,0.9394,0.9474,0.956,0.9628,0.9706,0.9732,0.9743,-2.3208,-2.2443,-2.2264,-2.1971,-2.1697,-2.1643,-2.1571,-2.1477,-2.1458,-2.1383,-2.1285,-2.1285,-2.1306,-2.1384,-2.1421,0.0,0.0,0.0,-2.2072,-2.2321,-2.2174,-2.2071,-2.2054,-2.1626,-2.144,-2.1448,-2.0684,-2.0212,-2.0044,-1.9615,-1.9356,-1.9268,0.0,0.0,-1.9587,-1.9592,-1.9504,-1.9368,-1.9216,-1.8714,-1.7859,-1.5646,-1.2308,-0.79,-0.4837,-0.2113,0.0292,0.1562,0.1963,0.1417,-0.0121,-0.1759,0.0,0.0,0.0,0.0,0.0,0.0,0.0,0.0,0.0,0.0,0.0,-0.9501,0.0,0.0,0.0,0.0,-0.4653,-0.1109,0.2235,0.4568,0.0,0.0,0.0,0.0,0.0,0.0,0.0,0.9714,0.9638,0.9307,0.8679,0.8838,0.8457,0.6932,0.719,0.7513,0.746,0.0,0.8582,0.8495,0.9129,0.9538,0.9322,0.9078,0.8824,0.8546,0.844,0.8427,0.8615,0.8767,0.8912,0.9078,0.9206,0.932,0.9439,0.9457,0.9457,0.9518,0.9577,0.9617,0.9698,0.9699,0.9714,-2.3524,-2.344,-2.2911,-2.2328,-2.1657,-2.1583,-2.1522,-2.1442,-2.1381,-2.1322,-2.1259,-2.1259,-2.1319,-2.136,-2.1345,0.0,0.0,-2.2475,-2.2847,-2.3549,-2.336,-2.3265,-2.3212,-2.2371,-2.1949,-2.1914,-2.1218,-2.0525,-1.9976,-1.9901,-1.9554,-1.8986,-1.9237,-1.9338,-1.9383,-1.9387,-1.9314,-1.9168,-1.9035,-1.8734,-1.8203,-1.4971,-1.1681,-0.8456,-0.4788,-0.1661,0.0791,0.2589,0.334,0.2848,0.1543,-0.004,-0.1941,0.0,0.0,0.0,0.0,0.0,0.0,0.0,0.0,0.0,0.0,0.0,0.0,0.0,0.0,0.0,-0.0935,0.0,0.2645,0.4305,0.0,0.0,0.0,0.7442,0.7766,0.9001,0.9901,1.0066,0.0,0.0,0.0,0.0,0.9411,0.7872,0.7627,0.7595,0.7584,0.818,0.8554,0.8537,0.9073,0.9465,0.9331,0.9177,0.9033,0.8863,0.8835,0.8869,0.9001,0.9068,0.9177,0.9293,0.9367,0.9421,0.9491,0.95,0.9517,0.9587,0.9609,0.962,0.9684,0.971,0.9706,-2.3788,-2.3175,-2.2988,-2.2929,-2.2946,-2.2923,-2.2838,-2.2746,-2.2723,-2.2676,-2.2629,-2.2629,-2.2653,-2.2741,-2.2787,-2.2876,-2.3012,-2.3006,-2.3088,-2.3199,-2.3052,-2.2995,-2.2977,-2.2659,-2.2496,-2.2444,-2.17,-2.1274,-2.1144,-2.0101,-1.9521,-1.9427,-1.9056,-1.8966,-1.9186,-1.9166,-1.9117,-1.8965,-1.8843,-1.8132,-1.679,-1.4696,-1.2178,-0.9209,-0.5781,-0.271,-0.0026,0.1949,0.3135,0.3356,0.2348,0.1029,-0.0596,-0.2407,0.0,0.0,0.0,0.0,0.0,0.0,0.0,0.0,0.0,-0.8694,-0.9168,0.0,-0.5856,0.0,-0.0253,0.3506,0.4945,0.6208,0.0,0.0,0.7869,0.8309,0.8581,0.9444,1.0036,1.0106,1.0018,0.9899,0.9705,0.9815,0.9737,0.925,0.9205,0.9195,0.9168,0.9239,0.9299,0.9255,0.9357,0.9466,0.9384,0.9245,0.9174,0.9126,0.9113,0.9136,0.9196,0.9282,0.9358,0.9439,0.9457,0.9509,0.9562,0.9568,0.9575,0.9599,0.9615,0.9612,0.968,0.9703,0.9699,-2.3894,-2.3441,-2.3015,-2.2944,-2.3052,-2.3119,-2.3095,-2.302,-2.2995,-2.297,-2.2902,-2.2919,-2.2927,-2.2995,-2.302,-2.302,-2.2995,-2.297,-2.2952,-2.2919,-2.279,-2.2712,-2.2712,-2.2596,-2.2525,-2.2497,-2.207,-2.1704,-2.1404,-2.0646,-1.9981,-1.9434,-1.9087,-1.888,-1.8734,-1.886,-1.886,-1.8771,-1.8565,-1.7935,-1.6762,-1.4963,-1.2841,-1.0501,-0.6988,-0.3857,-0.1179,0.0991,0.2498,0.3267,0.2661,0.1692,0.042,-0.1249,-0.2726,0.0,0.0,0.0,0.0,0.0,0.0,0.0,0.0,0.0,0.0,0.0,-0.3024,0.0,0.0,0.0,0.6873,0.7244,0.7592,0.8003,0.8262,0.865,0.9231,0.978,1.0071,0.9983,0.9971,0.9958,0.9915,0.9857,0.9751,0.9621,0.9614,0.9625,0.9605,0.9559,0.9491,0.9475,0.9448,0.9448,0.9402,0.9346,0.9273,0.9279,0.929,0.9293,0.9339,0.9394,0.9466,0.9501,0.9491,0.9508,0.9578,0.9613,0.9619,0.9617,0.9615,0.9631,0.9691,0.9706,0.9703,-2.4061,-2.3774,-2.3099,-2.2708,-2.2552,-2.2642,-2.2721,-2.2764,-2.2729,-2.2659,-2.2659,-2.2659,-2.2659,-2.2659,-2.2659,-2.2659,-2.2632,-2.2632,-2.2632,-2.2649,-2.2497,-2.2443,-2.2415,-2.2293,-2.2237,-2.2254,-2.2254,-2.1883,-2.1295,-2.1177,-2.0518,-1.9298,-1.9207,-1.8827,-1.8246,-1.845,-1.8566,-1.8528,-1.8281,-1.7917,-1.7368,-1.5455,-1.364,-1.1911,-0.8336,-0.5201,-0.2645,-0.0322,0.1458,0.2608,0.2516,0.2021,0.1185,-0.0171,-0.1431,0.0,-0.3078,0.0,0.0,0.0,0.0,0.0,0.0,0.0,0.0,-0.2393,0.0174,0.4713,0.6854,0.8013,0.8173,0.7754,0.7797,0.8515,0.8569,0.8869,0.9729,0.9978,0.9971,0.9794,0.9838,0.9836,0.9763,0.9705,0.9609,0.9506,0.9447,0.943,0.9465,0.9421,0.9394,0.9394,0.9394,0.9394,0.9393,0.9402,0.9402,0.9402,0.9385,0.9412,0.9421,0.9447,0.95,0.95,0.95,0.9508,0.9578,0.9605,0.9613,0.9619,0.9607,0.9623,0.9665,0.9698,0.9698,-2.4824,-2.3579,-2.3357,-2.2892,-2.2276,-2.2186,-2.2298,-2.2552,-2.2542,-2.2515,-2.246,-2.2477,-2.2432,-2.2377,-2.2349,-2.2349,-2.2394,-2.2349,-2.2366,-2.2394,-2.2186,-2.2084,-2.2084,-2.1974,-2.1886,-2.1886,-2.1903,-2.182,-2.1682,-2.1128,-2.0448,-1.9613,-1.9125,-1.8504,-1.7856,0.0,0.0,0.0,-1.8031,-1.7749,-1.7287,-1.5935,-1.441,-1.2793,-1.0048,0.0,-0.459,-0.2377,-0.0482,0.1041,0.1661,0.0,0.0,0.0,0.0,0.0,0.0,0.0,0.0,0.0,0.0,0.0,0.0377,-0.0137,-0.1658,0.1044,0.4131,0.7008,0.7912,0.8102,0.7636,0.8103,0.849,0.8678,0.9274,0.979,1.0078,0.9921,0.9749,0.9651,0.964,0.9636,0.9576,0.9497,0.9439,0.9412,0.9358,0.9321,0.9339,0.9321,0.9339,0.9366,0.9403,0.9394,0.9394,0.9394,0.9403,0.9394,0.9394,0.9421,0.9466,0.9501,0.95,0.95,0.95,0.9508,0.9578,0.9623,0.9595,0.9619,0.9609,0.9617,0.9623,0.9665,0.9698,-2.5295,0.0,-2.3995,-2.3345,0.0,-2.2521,-2.2379,-2.2203,-2.2231,-2.2231,-2.2203,-2.2203,-2.2175,-2.2147,-2.2135,-2.2106,-2.2106,-2.2094,-2.2049,-2.2049,-2.1886,-2.1797,-2.1797,-2.1648,-2.1556,-2.1556,-2.1556,-2.1556,-2.1524,-2.121,-2.0681,-2.0003,-1.9359,-1.8684,-1.802,-1.7598,-1.7532,-1.78,-1.7704,-1.7502,-1.7118,-1.5996,-1.4852,-1.3687,0.0,0.0,0.0,0.0,0.0,0.0,0.0,0.0,0.0,0.0,0.0,0.0937,0.0818,0.0822,0.0984,0.1466,0.2034,0.2651,0.378,0.3865,0.2503,0.49,0.7129,0.861,0.8985,0.8957,0.8704,0.9002,0.9269,0.9302,0.9656,0.9944,1.0008,0.9814,0.9606,0.949,0.9516,0.9506,0.9475,0.9421,0.9385,0.9356,0.9329,0.9301,0.9273,0.9284,0.933,0.9392,0.9402,0.9403,0.9394,0.9394,0.9394,0.9394,0.9394,0.9421,0.9439,0.9474,0.95,0.95,0.95,0.9508,0.9535,0.9543,0.9552,0.956,0.9577,0.9611,0.9601,0.9625,0.9667,-2.5646,-2.5379,-2.4661,-2.3896,-2.3212,-2.315,-2.2787,-2.2189,0.0,0.0,0.0,-2.194,-2.194,-2.1928,-2.1823,-2.1794,-2.1811,-2.1751,-2.1738,-2.1708,-2.1573,-2.1511,-2.1497,-2.1309,-2.1214,-2.1214,-2.1214,-2.1214,-2.1214,-2.1214,-2.0875,-2.0194,-1.9628,-1.8961,-1.8129,-1.7358,-1.7101,-1.7272,-1.7296,-1.7191,-1.6926,-1.6038,-1.52,-1.4435,-1.243,-1.0521,-0.8812,-0.6551,-0.4565,-0.2917,-0.142,-0.0138,0.085,0.1275,0.1731,0.2306,0.2502,0.2792,0.32,0.3717,0.4356,0.5118,0.6451,0.7085,0.674,0.8027,0.9053,0.9614,0.97,0.9762,0.9844,0.9813,0.978,0.9824,0.9775,0.9769,0.9837,0.9682,0.9496,0.9322,0.9385,0.943,0.9384,0.9365,0.9346,0.93,0.9273,0.9263,0.9226,0.9265,0.933,0.9392,0.9402,0.9393,0.9403,0.9394,0.9394,0.9394,0.9394,0.9394,0.9412,0.9439,0.9491,0.9491,0.95,0.95,0.95,0.9508,0.95,0.95,0.9543,0.9578,0.9578,0.9577,0.9593,-2.5881,-2.5128,-2.5028,-2.443,-2.3605,-2.3621,-2.3522,-2.3375,-2.2297,-2.1797,-2.1738,-2.1754,-2.1708,-2.1664,-2.1509,-2.1462,-2.1462,-2.1386,-2.1371,0.0,-2.123,-2.1167,-2.1151,-2.0958,-2.086,-2.086,-2.086,-2.086,-2.086,-2.086,-2.0479,-1.9767,-1.961,-1.8871,-1.7572,-1.6851,-1.649,-1.6474,-1.6799,-1.6876,-1.6659,-1.63,-1.561,-1.4616,-1.3571,-1.2251,-1.0562,-0.8552,-0.6781,-0.5345,-0.3305,-0.158,-0.0247,0.1081,0.2355,0.3541,0.4177,0.4863,0.5623,0.5893,0.6373,0.7255,0.7777,0.8007,0.7983,0.8588,0.9101,0.9403,0.9514,0.956,0.9623,0.9628,0.9591,0.9568,0.9534,0.9571,0.9609,0.9516,0.9367,0.9245,0.9282,0.9338,0.931,0.9273,0.9236,0.9226,0.9226,0.9216,0.9226,0.9247,0.932,0.9375,0.9403,0.9394,0.9412,0.9394,0.9394,0.9394,0.9394,0.9385,0.9385,0.9421,0.9439,0.9483,0.9483,0.9483,0.9492,0.9491,0.9491,0.95,0.9508,0.9508,0.9527,0.9553,0.9588,-2.5952,-2.5565,-2.5549,-2.4999,-2.4139,-2.3694,-2.3446,-2.3347,-2.2734,-2.259,-2.2655,-2.2639,-2.2606,-2.2541,-2.2054,-2.1811,-2.1778,-2.1311,-2.1263,-2.1548,-2.1381,-2.1518,-2.1815,-2.1635,-2.1564,-2.1532,-2.114,-2.0969,-2.0938,-2.0578,-2.0169,-1.9793,-1.9372,-1.8602,-1.7578,-1.6803,-1.6455,-1.641,-1.6468,-1.6432,-1.6274,-1.6037,-1.5575,-1.4921,-1.4006,-1.2957,-1.1802,-1.0051,-0.8501,-0.7185,-0.5145,-0.3272,-0.1665,0.0207,0.1997,0.364,0.4806,0.5918,0.6997,0.7907,0.8682,0.928,0.9534,0.9525,0.9242,0.906,0.905,0.9216,0.9293,0.9385,0.9421,0.9412,0.9385,0.9403,0.9367,0.9359,0.9412,0.9349,0.9265,0.9216,0.9226,0.9236,0.9263,0.9226,0.9181,0.9181,0.9181,0.9216,0.9263,0.9282,0.9311,0.933,0.9348,0.9366,0.9393,0.9348,0.9348,0.9331,0.9348,0.9331,0.9348,0.9348,0.9358,0.9385,0.9412,0.9448,0.9448,0.9439,0.9439,0.9457,0.9492,0.9492,0.9519,0.978,0.9951,-2.5881,-2.5824,-2.5807,-2.5391,-2.4661,-2.3979,-2.3663,-2.3522,-2.3501,-2.3594,-2.369,-2.3452,-2.3272,-2.3208,-2.2575,-2.2266,-2.2134,-2.1523,-2.1468,-2.1851,-2.1667,-2.1889,-2.2315,-2.2156,-2.2041,-2.1995,-2.147,-2.1113,-2.0916,-2.0373,-1.9933,-1.9717,-1.8996,-1.8297,-1.7729,-1.6949,-1.653,-1.6486,-1.6204,-1.5975,-1.5854,-1.5565,-1.533,-1.5058,-1.4179,-1.3396,-1.2711,-1.1234,-0.9927,-0.8765,-0.6849,-0.4928,-0.3119,-0.0912,0.1232,0.3189,0.4873,0.6443,0.791,0.9252,1.0199,1.0543,1.0777,1.0753,1.0361,0.9791,0.931,0.9171,0.9164,0.9222,0.9271,0.9234,0.9214,0.9271,0.9234,0.9216,0.9255,0.9243,0.9179,0.9189,0.9181,0.9199,0.9181,0.9181,0.9181,0.9181,0.9181,0.9226,0.9273,0.93,0.9319,0.9311,0.9303,0.933,0.9375,0.932,0.9311,0.9303,0.9284,0.9265,0.9263,0.9273,0.9255,0.9273,0.929,0.9327,0.9338,0.9366,0.9447,0.9616,0.976,0.9788,1.0055,1.0435,1.066,-2.5696,-2.56,-2.5508,-2.5307,-2.5057,-2.4939,-2.4814,-2.4768,-2.4682,-2.4594,-2.4335,-2.3486,-2.3,-2.2828,-2.2723,-2.2603,-2.2462,-2.2304,-2.2214,-2.214,-2.1949,-2.1879,-2.2,-2.1798,-2.1635,-2.168,-2.1496,-2.1104,-2.0667,-2.0345,-1.9906,-1.9161,-1.8412,-1.7985,-1.772,-1.7057,-1.6606,-1.6501,-1.5899,-1.5503,-1.5373,-1.5104,-1.489,-1.4732,-1.4251,-1.3789,-1.3318,-1.2174,-1.1092,-1.0144,-0.8211,-0.6314,-0.4505,-0.2199,0.0171,0.2441,0.4282,0.6263,0.8461,0.9412,1.0058,1.0463,1.0828,1.102,1.1087,1.1022,1.0428,0.9519,0.9227,0.9328,0.9216,0.9241,0.9241,0.9216,0.9199,0.9188,0.9209,0.9191,0.9187,0.9189,0.9181,0.9181,0.9181,0.9181,0.9181,0.9181,0.9181,0.9216,0.9216,0.9253,0.9273,0.9292,0.9301,0.9303,0.932,0.9319,0.9273,0.929,0.9261,0.9201,0.9161,0.9133,0.9116,0.9239,0.9185,0.9213,0.9279,0.9219,0.9554,1.0096,1.0333,1.05,1.1077,1.1321,1.134,-2.5394,-2.5301,-2.5224,-2.5107,-2.4926,-2.4806,-2.4726,-2.4686,-2.4564,-2.44,-2.4214,-2.3758,-2.3646,-2.3639,-2.3227,-2.2964,-2.2777,-2.2317,-2.223,-2.2405,-2.2233,-2.236,-2.2661,-2.245,-2.2321,-2.2192,-2.1743,-2.1354,-2.0909,-2.011,-1.949,-1.9086,-1.8313,-1.7866,-1.7747,-1.703,-1.658,-1.644,-1.5778,-1.535,-1.5202,-1.479,-1.4465,-1.4227,-1.3868,-1.3514,-1.3126,-1.2352,-1.1614,-1.084,-0.9278,-0.7707,-0.6142,-0.3791,-0.1493,0.0831,0.414,0.684,0.8849,0.9835,1.0681,1.1384,1.1797,1.1959,1.1765,1.1773,1.1386,1.0608,1.0475,1.0325,0.9892,0.9777,0.9621,0.9251,0.9147,0.9147,0.913,0.9178,0.9184,0.9189,0.9181,0.9181,0.9181,0.9181,0.9181,0.9181,0.9181,0.9189,0.9196,0.9224,0.9214,0.9187,0.9187,0.9199,0.9218,0.9214,0.9174,0.9116,0.9054,0.9007,0.897,0.8869,0.8896,0.9292,0.9347,0.9559,1.0052,1.0123,1.0357,1.0732,1.0835,1.1033,1.1719,1.1858,1.1994,-2.5123,-2.5029,-2.495,-2.4806,-2.4589,-2.4441,-2.4333,-2.4276,-2.4177,-2.4009,-2.3855,-2.3812,-2.3882,-2.3891,-2.3534,-2.3295,-2.3013,-2.2535,-2.2443,-2.2651,-2.2467,-2.2644,-2.3068,-2.2814,-2.2618,-2.2409,-2.1889,-2.144,-2.0993,-1.986,-1.9138,-1.8971,-1.8407,-1.7944,-1.7674,-1.7059,-1.6675,-1.6333,-1.571,-1.5286,-1.5107,-1.4549,-1.4141,-1.3916,-1.3476,-1.3091,-1.2791,-1.2318,-1.1836,-1.1207,-1.0034,-0.8785,-0.7407,-0.5291,-0.2942,-0.0075,0.3608,0.6561,0.8342,0.9677,1.079,1.1664,1.2249,1.253,1.2338,1.2389,1.2283,1.1931,1.1901,1.1582,1.0687,1.0532,1.0273,0.9801,0.9582,0.934,0.9144,0.9158,0.9191,0.9189,0.9181,0.9181,0.9199,0.9189,0.9179,0.9179,0.9187,0.9159,0.9157,0.9171,0.9175,0.9323,0.9342,0.9278,0.9185,0.9092,0.9052,0.9179,0.9165,0.9101,0.901,0.8998,0.8875,0.9421,0.9514,0.9654,0.9938,1.035,1.0829,1.1086,1.1313,1.156,1.2042,1.2238,1.2528,-2.4822,-2.4782,-2.458,-2.4343,-2.4105,-2.4067,-2.3925,-2.3839,-2.3681,-2.3581,-2.3494,-2.3363,-2.326,-2.3172,-2.339,-2.3463,-2.3289,-2.3157,-2.301,-2.2832,-2.2651,-2.2558,-2.2615,-2.2217,-2.2044,-2.1969,-2.1677,-2.1152,-2.0368,-1.9567,-1.9067,-1.8826,-1.8676,-1.828,-1.7619,-1.7327,-1.6942,-1.6275,-1.5664,-1.5215,-1.4935,-1.4389,-1.4043,-1.3877,-1.313,-1.2639,-1.2484,-1.2077,-1.1627,-1.1217,-1.0311,-0.934,-0.8214,-0.6633,-0.3836,-0.0038,0.26,0.4783,0.6705,0.8395,0.9773,1.0763,1.1606,1.2254,1.2523,1.2745,1.2905,1.3143,1.3025,1.2598,1.1586,1.1321,1.1274,1.1101,1.0537,0.991,0.9161,0.9206,0.9164,0.9292,0.9389,0.9459,0.9319,0.9187,0.9341,0.9348,0.9213,0.9206,0.9295,0.9177,0.9401,0.9789,0.9878,0.9668,0.9151,0.9195,0.9317,0.9366,0.9422,0.9403,0.9667,0.9786,0.9564,0.9435,0.9417,0.9483,0.9701,1.0076,1.0609,1.1129,1.1872,1.2275,1.2379,1.2817,1.2917,-2.4482,-2.4291,-2.4109,-2.3952,-2.3767,-2.3625,-2.3538,-2.3451,-2.3246,-2.3054,-2.2979,-2.2918,-2.2783,-2.2632,-2.2678,-2.2768,-2.2828,-2.2828,-2.2692,-2.2449,-2.2217,-2.2077,-2.2044,-2.165,-2.1423,-2.1326,-2.1104,-2.0703,-2.0184,-1.941,-1.8984,-1.8763,-1.8174,-1.765,-1.7361,-1.7147,-1.6681,-1.6054,-1.5727,-1.5369,-1.4798,-1.4155,-1.3761,-1.3705,-1.3035,-1.2559,-1.2332,-1.1729,-1.1217,-1.084,-1.0264,-0.9549,-0.8464,-0.6565,-0.4259,-0.1631,0.059,0.2747,0.4934,0.6714,0.8366,0.9827,1.077,1.1534,1.2041,1.2408,1.2654,1.2815,1.2924,1.2667,1.244,1.2112,1.1787,1.1326,1.1014,1.0406,0.9543,0.9651,1.0192,1.0511,1.0598,1.0604,1.0493,1.0568,1.0519,1.0483,1.0378,1.022,1.0175,1.0125,1.0081,1.0212,1.0173,0.9954,0.9593,0.9711,0.9822,0.9671,0.9596,0.9313,0.9365,0.919,0.8948,0.9294,0.9307,0.9564,0.9867,1.0398,1.0836,1.141,1.2179,1.2297,1.2614,1.2642,1.257,-2.4024,-2.3797,-2.3683,-2.3523,-2.3377,-2.3157,-2.3083,-2.3053,-2.2859,-2.2663,-2.2526,-2.2417,-2.2263,-2.2184,-2.1983,-2.1949,-2.2091,-2.2217,-2.2184,-2.1902,-2.1664,-2.1506,-2.1361,-2.1082,-2.0772,-2.0586,-2.0308,-2.0055,-1.9786,-1.9193,-1.8816,-1.8602,-1.7897,-1.7384,-1.7117,-1.688,-1.6378,-1.58,-1.5538,-1.5126,-1.4559,-1.3939,-1.352,-1.3358,-1.284,-1.2429,-1.2167,-1.1638,-1.1164,-1.0814,-1.046,-0.9792,-0.8725,-0.6903,-0.5024,-0.3292,-0.1299,0.0892,0.3152,0.5127,0.7016,0.8735,0.9948,1.088,1.1623,1.2133,1.2455,1.266,1.282,1.2884,1.2931,1.2799,1.2449,1.1889,1.161,1.1273,1.0625,1.0714,1.1213,1.1754,1.1497,1.1311,1.1271,1.1182,1.1062,1.1059,1.0895,1.0744,1.0605,1.0479,1.0476,1.0446,1.0284,1.0316,1.0227,1.0345,0.9996,0.9801,0.9459,0.9177,0.9046,0.8769,0.8694,0.9065,0.9381,0.9709,1.0134,1.0677,1.1174,1.1642,1.1789,1.183,1.2046,1.2199,1.2102,-2.3539,-2.3393,-2.3305,-2.3274,-2.3078,-2.2896,-2.2749,-2.2712,-2.2544,-2.2475,-2.2376,-2.2013,-2.2014,-2.1822,-2.1591,-2.1238,-2.1305,-2.1675,-2.1656,-2.1323,-2.1099,-2.0927,-2.078,-2.0514,-2.0206,-1.987,-1.9457,-1.9194,-1.9119,-1.8845,-1.8506,-1.8147,-1.8001,-1.7447,-1.6696,-1.6556,-1.6179,-1.5517,-1.497,-1.4576,-1.4262,-1.3751,-1.3314,-1.2976,-1.2486,-1.2128,-1.2047,-1.1697,-1.1359,-1.117,-1.0881,-1.0211,-0.8997,-0.7763,-0.6457,-0.4848,-0.2829,-0.0731,0.1401,0.3624,0.5614,0.7406,0.9072,1.027,1.1143,1.191,1.236,1.2518,1.2746,1.2989,1.3037,1.3088,1.3084,1.3046,1.2371,1.2323,1.2734,1.217,1.1895,1.272,1.21,1.1193,1.1052,1.1099,1.1074,1.1027,1.0797,1.0638,1.0614,1.047,1.0252,1.0444,1.0506,1.0486,1.0736,1.0912,1.031,0.9776,0.9376,0.9033,0.9112,0.8978,0.863,0.8836,0.8919,0.9219,0.9631,1.0132,1.057,1.0979,1.11,1.1314,1.1485,1.1592,1.1569,-2.4287,-2.4062,-2.4062,-2.3917,-2.366,-2.3413,-2.3314,-2.3264,-2.3,-2.2848,-2.2784,-2.2542,-2.2439,-2.2335,-2.1983,-2.1719,-2.1639,-2.1546,-2.1393,-2.1225,-2.1069,-2.1014,-2.104,-2.071,-2.0225,-1.9663,-1.9481,-1.9241,-1.8942,-1.843,-1.8103,-1.7888,-1.7331,-1.688,-1.6451,-1.6273,-1.5898,-1.5212,-1.4814,-1.4443,-1.3936,-1.324,-1.2859,-1.2669,-1.2085,-1.1664,-1.152,-1.1196,-1.0875,-1.0714,-1.0372,-0.9773,-0.892,-0.8089,-0.7124,-0.5923,-0.4296,-0.2396,-0.0315,0.1729,0.3816,0.5775,0.7371,0.8584,0.9617,1.039,1.0833,1.1064,1.1164,1.1341,1.1558,1.1744,1.2141,1.2799,1.2811,1.279,1.3052,1.2619,1.2446,1.2653,1.2427,1.215,1.2011,1.1867,1.1749,1.1826,1.164,1.1468,1.1528,1.1159,1.1211,1.1203,1.0956,1.0436,1.042,1.0225,0.9751,0.939,0.9098,0.8778,0.8901,0.879,0.8507,0.8477,0.8558,0.8818,0.9197,0.9574,0.9978,1.0298,1.0531,1.073,1.0935,1.0938,1.0899,-2.4355,-2.4118,-2.4118,-2.39,-2.3695,-2.3475,-2.3357,-2.3266,-2.3029,-2.2884,-2.2764,-2.251,-2.2415,-2.2307,-2.1924,-2.166,-2.1536,-2.1156,-2.0932,-2.0983,-2.0827,-2.0822,-2.0836,-2.032,-1.9796,-1.9276,-1.9086,-1.8846,-1.8451,-1.8012,-1.7733,-1.7431,-1.6974,-1.6522,-1.6125,-1.5929,-1.5566,-1.4897,-1.444,-1.4082,-1.3534,-1.2878,-1.2458,-1.229,-1.1678,-1.1284,-1.1122,-1.0621,-1.0312,-1.032,-1.0034,-0.9499,-0.8965,-0.8282,-0.7523,-0.6553,-0.5193,-0.3535,-0.1722,0.0186,0.2168,0.417,0.5803,0.7172,0.8227,0.904,0.9521,0.987,1.0045,1.0211,1.0574,1.081,1.1291,1.1947,1.2448,1.2735,1.2776,1.2786,1.2733,1.2757,1.2792,1.2805,1.268,1.2441,1.2291,1.2302,1.2,1.1697,1.1676,1.1341,1.1119,1.0763,1.0224,0.9893,0.9817,0.9514,0.9089,0.8919,0.8727,0.8481,0.8386,0.8086,0.7817,0.8002,0.8101,0.8392,0.878,0.8986,0.929,0.9606,0.9959,1.0052,1.0228,1.024,1.0233,-2.3909,-2.3637,-2.365,-2.3562,-2.3284,-2.3245,-2.3125,-2.283,-2.2789,-2.2679,-2.2393,-2.2193,-2.2031,-2.1868,-2.153,-2.1231,-2.0982,-2.0604,-2.0475,-2.0532,-2.0452,-2.0288,-2.0039,-1.9584,-1.9061,-1.8711,-1.8494,-1.8154,-1.7791,-1.7615,-1.7294,-1.6971,-1.6747,-1.6422,-1.5856,-1.5614,-1.5252,-1.4538,-1.3961,-1.3549,-1.3206,-1.2581,-1.2153,-1.2025,-1.1311,-1.0841,-1.0678,-1.0038,-0.9851,-1.0182,-0.9739,-0.9364,-0.9023,-0.8421,-0.7658,-0.6923,-0.5608,-0.4289,-0.2756,-0.1044,0.0836,0.2704,0.4353,0.5991,0.6997,0.7685,0.8253,0.8774,0.8945,0.9316,0.9744,1.0037,1.0289,1.0755,1.1636,1.2201,1.2357,1.2657,1.2733,1.283,1.3007,1.2984,1.2602,1.2307,1.2002,1.1719,1.133,1.0977,1.0791,1.0565,1.0002,0.9747,0.9665,0.9531,0.9542,0.9211,0.8808,0.8648,0.8459,0.8193,0.7932,0.7586,0.7361,0.7529,0.7728,0.8026,0.831,0.854,0.8759,0.9115,0.9313,0.9412,0.9496,0.9515,0.9699,-2.453,-2.4294,-2.4281,-2.4126,-2.3844,-2.3756,-2.3571,-2.3341,-2.3199,-2.3032,-2.2862,-2.2521,-2.234,-2.233,-2.1765,-2.1424,-2.1108,-2.0687,-2.034,-2.0198,-1.994,-1.9852,-1.9714,-1.9329,-1.8866,-1.852,-1.8283,-1.8111,-1.7684,-1.7183,-1.6862,-1.6562,-1.6169,-1.578,-1.5341,-1.5268,-1.4903,-1.4371,-1.3848,-1.3389,-1.2964,-1.2178,-1.1659,-1.1445,-1.0853,-1.0406,-1.0222,-0.9593,-0.9267,-0.9299,-0.9145,-0.8883,-0.8606,-0.8053,-0.7488,-0.6833,-0.5979,-0.4816,-0.3467,-0.2037,-0.0463,0.1147,0.2509,0.3749,0.4824,0.5539,0.6049,0.6429,0.6571,0.6884,0.7389,0.7836,0.8419,0.9606,1.0916,1.1936,1.2169,1.2242,1.2271,1.2231,1.1927,1.1724,1.151,1.1265,1.103,1.0909,1.0617,1.033,1.0193,1.006,0.9646,0.968,0.9624,0.9434,0.9196,0.8904,0.8632,0.846,0.8238,0.7954,0.7644,0.7298,0.7162,0.7161,0.7397,0.7675,0.7889,0.8115,0.8382,0.8643,0.8683,0.8814,0.8873,0.8931,0.9216,-2.4421,-2.4131,-2.4118,-2.3943,-2.3662,-2.3497,-2.333,-2.3198,-2.3017,-2.2836,-2.258,-2.2334,-2.2149,-2.1951,-2.1451,-2.106,-2.0805,-2.0377,-1.9911,-1.955,-1.9096,-1.9065,-1.9075,-1.8844,-1.8452,-1.8046,-1.7784,-1.7491,-1.7111,-1.672,-1.6415,-1.6165,-1.5824,-1.5446,-1.4889,-1.4881,-1.4521,-1.3842,-1.3443,-1.3097,-1.2436,-1.1859,-1.1352,-1.0948,-1.0306,-0.9806,-0.9279,-0.8727,-0.8576,-0.8732,-0.8669,-0.8441,-0.8108,-0.7711,-0.7263,-0.6709,-0.6024,-0.5118,-0.4088,-0.2936,-0.1671,-0.0381,0.0758,0.179,0.2709,0.3401,0.3905,0.4244,0.4445,0.487,0.5451,0.6245,0.7183,0.824,0.9753,1.1026,1.1718,1.1391,1.1223,1.1161,1.1223,1.1215,1.0916,1.0677,1.0491,1.0312,1.0054,0.9821,0.9658,0.9527,0.9415,0.9312,0.9221,0.8928,0.8798,0.8536,0.8479,0.8343,0.8193,0.7842,0.7585,0.7238,0.7032,0.7018,0.7132,0.7293,0.7579,0.7821,0.7953,0.8077,0.8126,0.8265,0.8385,0.8757,0.9044,-2.378,-2.3509,-2.3509,-2.3318,-2.3017,-2.2836,-2.2714,-2.2531,-2.2347,-2.2087,-2.1827,-2.1651,-2.1388,-2.0996,-2.07,-2.0335,-2.0063,-1.9743,-1.9318,-1.8841,-1.8346,-1.8174,-1.834,-1.8123,-1.7846,-1.7488,-1.7088,-1.6722,-1.643,-1.6236,-1.5979,-1.5837,-1.5715,-1.53,-1.4727,-1.4559,-1.4005,-1.3271,-1.3029,-1.2527,-1.1857,-1.1438,-1.1043,-1.0384,-0.9749,-0.9089,-0.8457,-0.7974,-0.7936,-0.8397,-0.8184,-0.787,-0.758,-0.7289,-0.6868,-0.6373,-0.5815,-0.5164,-0.4521,-0.3455,-0.2607,-0.1544,-0.06,0.0183,0.1012,0.1669,0.2158,0.2507,0.2753,0.3308,0.4076,0.5303,0.6147,0.6916,0.8098,0.9448,1.0322,1.024,0.9864,0.9877,1.0695,1.1069,1.0938,1.0693,1.0295,0.9461,0.9221,0.903,0.8883,0.8788,0.8649,0.8608,0.847,0.84,0.829,0.8208,0.8297,0.8296,0.8131,0.7949,0.7782,0.7468,0.7141,0.7036,0.7235,0.7328,0.7454,0.7579,0.7677,0.7795,0.8002,0.8085,0.8222,0.8783,0.9148,-2.3125,-2.2823,-2.2836,-2.2653,-2.2371,-2.2211,-2.2013,-2.1839,-2.1702,-2.14,-2.1146,-2.0892,-2.0646,-2.0313,-1.9976,-1.9719,-1.9561,-1.928,-1.9014,-1.8581,-1.7899,-1.7566,-1.7605,-1.7532,-1.7449,-1.7202,-1.685,-1.6478,-1.618,-1.5897,-1.5821,-1.5622,-1.5298,-1.5014,-1.4537,-1.4274,-1.3792,-1.3021,-1.2678,-1.2158,-1.1457,-1.1073,-1.0577,-0.9838,-0.9121,-0.8542,-0.8116,-0.7713,-0.7452,-0.7316,-0.723,-0.713,-0.6935,-0.6694,-0.6276,-0.5791,-0.5415,-0.486,-0.4183,-0.3586,-0.2895,-0.2032,-0.1481,-0.0982,-0.0306,0.0185,0.0617,0.0984,0.1291,0.1917,0.2905,0.374,0.4702,0.5564,0.6587,0.752,0.7964,0.8439,0.8673,0.8853,0.9123,0.9312,0.9152,0.9167,0.8887,0.8515,0.8336,0.8119,0.8074,0.8082,0.8167,0.8202,0.8322,0.8333,0.8434,0.8427,0.8527,0.8534,0.836,0.8257,0.8139,0.7869,0.7587,0.7423,0.7332,0.7489,0.7695,0.7588,0.7701,0.7832,0.7942,0.8082,0.833,0.8849,0.9394,-2.2457,-2.2211,-2.2149,-2.1975,-2.1675,-2.14,-2.1262,-2.1146,-2.0828,-2.0571,-2.0313,-2.0042,-1.9833,-1.9634,-1.9463,-1.9221,-1.8919,-1.8505,-1.8285,-1.8058,-1.7541,-1.7261,-1.7267,-1.6991,-1.6752,-1.6759,-1.6117,-1.575,-1.5597,-1.5389,-1.5104,-1.5072,-1.482,-1.4576,-1.4136,-1.3857,-1.3259,-1.2581,-1.2211,-1.165,-1.0851,-1.0586,-1.0032,-0.9155,-0.8389,-0.7802,-0.7603,-0.7034,-0.6679,-0.6433,-0.6297,-0.6312,-0.6312,-0.6191,-0.5813,-0.5244,-0.4991,-0.4611,-0.4041,-0.353,-0.3087,-0.2501,-0.2056,-0.1542,-0.1028,-0.0643,-0.0193,0.0129,0.0579,0.1158,0.2247,0.3015,0.3773,0.4532,0.536,0.603,0.652,0.7092,0.747,0.7711,0.819,0.8427,0.8377,0.8222,0.8171,0.8132,0.8012,0.7807,0.7846,0.7881,0.8028,0.8143,0.8305,0.8416,0.8626,0.8763,0.8885,0.8916,0.8854,0.8827,0.8781,0.847,0.8151,0.799,0.7846,0.7971,0.8134,0.799,0.7924,0.811,0.8272,0.8246,0.8497,0.908,0.9698,-2.1862,-2.1526,-2.1526,-2.1348,-2.0967,-2.0571,-2.0442,-2.0302,-1.9933,-1.966,-1.9428,-1.9306,-1.9192,-1.8974,-1.8993,-1.8831,-1.8415,-1.7868,-1.7698,-1.7744,-1.7071,-1.6894,-1.6831,-1.6327,-1.5913,-1.5872,-1.5443,-1.5121,-1.4963,-1.4604,-1.4554,-1.4388,-1.4309,-1.4052,-1.3574,-1.3276,-1.2806,-1.1991,-1.1683,-1.1099,-1.0251,-0.9952,-0.9424,-0.8558,-0.7581,-0.7134,-0.689,-0.6376,-0.5803,-0.5722,-0.5439,-0.5428,-0.5557,-0.569,-0.5425,-0.4752,-0.4527,-0.4251,-0.3784,-0.3403,-0.3008,-0.2889,-0.2214,-0.1745,-0.1407,-0.0868,-0.0467,-0.0067,0.0334,0.1136,0.2085,0.2802,0.3469,0.4071,0.4483,0.496,0.5512,0.5947,0.6485,0.6857,0.7374,0.7665,0.779,0.7773,0.7751,0.7734,0.7621,0.7546,0.7686,0.7776,0.7961,0.815,0.8315,0.8639,0.8844,0.8949,0.9106,0.9197,0.9176,0.9221,0.9266,0.9098,0.8777,0.8461,0.8374,0.8493,0.8553,0.8475,0.8446,0.857,0.8671,0.8786,0.9032,0.9399,0.9968,-2.1158,-2.0764,-2.0764,-2.0518,-2.0129,-1.9868,-1.9649,-1.9507,-1.9131,-1.8865,-1.8704,-1.8891,-1.8586,-1.8437,-1.8537,-1.8443,-1.805,-1.7507,-1.7321,-1.7324,-1.6603,-1.6281,-1.6049,-1.5492,-1.4975,-1.4961,-1.4868,-1.4832,-1.4689,-1.4504,-1.4145,-1.4083,-1.3831,-1.3479,-1.3069,-1.2721,-1.2245,-1.1408,-1.1114,-1.055,-0.9832,-0.9301,-0.8842,-0.7897,-0.6993,-0.6556,-0.6298,-0.5839,-0.5336,-0.5114,-0.4882,-0.4645,-0.4517,-0.4785,-0.4637,-0.4225,-0.3959,-0.3692,-0.3357,-0.3023,-0.2622,-0.2287,-0.1884,-0.1547,-0.1277,-0.0807,-0.0269,0.0202,0.0807,0.1549,0.1884,0.2701,0.3299,0.3763,0.4028,0.4228,0.4749,0.5491,0.6209,0.6561,0.6807,0.6995,0.7255,0.748,0.7586,0.7645,0.7654,0.7688,0.784,0.7967,0.811,0.8263,0.8434,0.8745,0.9106,0.9152,0.9204,0.9309,0.9347,0.9406,0.9503,0.9614,0.9431,0.9104,0.8885,0.8912,0.8917,0.895,0.9028,0.9211,0.9263,0.9358,0.9703,1.0006,1.0471,-2.0442,-2.0053,-2.0053,-1.9791,-1.933,-1.9121,-1.8921,-1.8721,-1.8259,-1.8046,-1.7968,-1.7938,-1.7903,-1.7871,-1.8013,-1.7941,-1.7652,-1.7106,-1.682,-1.6574,-1.6072,-1.5575,-1.5333,-1.4664,-1.4237,-1.4062,-1.4062,-1.4068,-1.3984,-1.3795,-1.3639,-1.3353,-1.3155,-1.2937,-1.2457,-1.2176,-1.1565,-1.0925,-1.0503,-0.991,-0.9006,-0.8431,-0.7736,-0.7254,-0.6519,-0.5998,-0.5745,-0.5272,-0.485,-0.4621,-0.4299,-0.3997,-0.3837,-0.3659,-0.3748,-0.3578,-0.336,-0.309,-0.2824,-0.2488,-0.2153,-0.1883,-0.1479,-0.1143,-0.0806,-0.0336,0.0269,0.0807,0.1346,0.2099,0.2539,0.3156,0.373,0.4097,0.4175,0.4244,0.47,0.5697,0.632,0.6668,0.6901,0.7026,0.6989,0.7192,0.7338,0.7451,0.7641,0.7828,0.8057,0.8299,0.8543,0.8856,0.9044,0.9241,0.9535,0.9479,0.9517,0.9595,0.9575,0.968,0.9703,0.9866,0.9814,0.9598,0.9497,0.9455,0.9542,0.9647,0.9739,0.9747,0.9812,0.9902,1.0254,1.0668,1.108,-1.9715,-1.9396,-1.9407,-1.9075,-1.8539,-1.8317,-1.8114,-1.7852,-1.7373,-1.7232,-1.7213,-1.709,-1.7199,-1.7342,-1.732,-1.7271,-1.7074,-1.6402,-1.5989,-1.5741,-1.5325,-1.4908,-1.4405,-1.3984,-1.3568,-1.3215,-1.296,-1.2966,-1.3137,-1.3045,-1.2705,-1.2528,-1.2443,-1.2186,-1.1775,-1.146,-1.0895,-1.0312,-0.9834,-0.9203,-0.8162,-0.7301,-0.6736,-0.663,-0.5977,-0.5466,-0.5234,-0.4751,-0.44,-0.4092,-0.3783,-0.3411,-0.3194,-0.2856,-0.2727,-0.2812,-0.2641,-0.249,-0.222,-0.1951,-0.1614,-0.1344,-0.0942,-0.0605,-0.0135,0.0406,0.1087,0.1764,0.2259,0.2697,0.3307,0.3808,0.4338,0.4714,0.4685,0.4713,0.5372,0.6226,0.7099,0.7269,0.7221,0.7179,0.7279,0.7397,0.7666,0.7965,0.8094,0.8326,0.8574,0.8895,0.9187,0.9586,0.9855,0.991,0.9998,0.9951,0.9999,1.0053,0.9982,0.9954,0.9986,1.0075,1.0014,1.002,1.012,1.0073,1.0195,1.0288,1.0285,1.0302,1.0295,1.054,1.1002,1.13,1.1601,-1.8988,-1.8643,-1.8643,-1.825,-1.7657,-1.7501,-1.7235,-1.6811,-1.656,-1.6555,-1.6685,-1.667,-1.6733,-1.6781,-1.6411,-1.6281,-1.6072,-1.5665,-1.5166,-1.4824,-1.4496,-1.4075,-1.3561,-1.3052,-1.279,-1.2443,-1.2106,-1.2192,-1.2272,-1.2186,-1.2015,-1.1757,-1.1499,-1.1241,-1.0799,-1.0747,-1.0255,-0.9529,-0.9101,-0.8417,-0.7343,-0.6541,-0.613,-0.5736,-0.5375,-0.4969,-0.4724,-0.4261,-0.3913,-0.3678,-0.3171,-0.2847,-0.2693,-0.2328,-0.2032,-0.1926,-0.1878,-0.1884,-0.1687,-0.1351,-0.101,-0.0673,-0.0269,0.0067,0.0543,0.1241,0.2023,0.2649,0.3117,0.352,0.4046,0.4413,0.4931,0.5237,0.544,0.5678,0.6193,0.6945,0.7778,0.8178,0.8146,0.7856,0.7758,0.7882,0.8011,0.8323,0.8606,0.8839,0.9168,0.9547,0.9859,1.0217,1.0349,1.0401,1.0399,1.036,1.035,1.0483,1.0427,1.0331,1.0455,1.0485,1.0389,1.0394,1.0534,1.0589,1.0559,1.0637,1.0788,1.0889,1.0939,1.1328,1.1877,1.207,1.2153,-1.7774,-1.791,-1.791,-1.7432,-1.6821,-1.676,-1.6473,-1.6026,-1.6011,-1.5965,-1.5996,-1.6069,-1.6166,-1.6064,-1.5711,-1.5416,-1.5242,-1.4908,-1.4405,-1.4068,-1.373,-1.3392,-1.2875,-1.2448,-1.2186,-1.1757,-1.1327,-1.1068,-1.1241,-1.1241,-1.1149,-1.0895,-1.0641,-1.0381,-0.9859,-0.9859,-0.9248,-0.8582,-0.7853,-0.7278,-0.6549,-0.5918,-0.5405,-0.5187,-0.4734,-0.4396,-0.4144,-0.3889,-0.3473,-0.316,-0.2745,-0.2509,-0.2194,-0.1804,-0.1416,-0.1114,-0.0937,-0.0912,-0.0967,-0.0757,-0.041,0.0,0.0337,0.0745,0.1446,0.2114,0.2793,0.3365,0.3754,0.4242,0.4817,0.527,0.569,0.6013,0.6229,0.6392,0.69,0.7828,0.8554,0.8804,0.9031,0.8798,0.8575,0.8679,0.8809,0.9013,0.9261,0.9488,0.9907,1.0374,1.0629,1.088,1.0876,1.0814,1.0763,1.071,1.0699,1.0797,1.0943,1.0885,1.0973,1.0981,1.0877,1.0857,1.1023,1.1031,1.097,1.1006,1.1074,1.1342,1.1569,1.1927,1.2234,1.252,1.2618,-1.6542,-1.689,-1.7028,-1.6682,-1.6053,-1.6061,-1.5769,-1.5386,-1.5397,-1.5394,-1.5386,-1.5502,-1.5427,-1.5274,-1.4901,-1.4573,-1.4398,-1.4146,-1.3724,-1.3307,-1.3052,-1.2705,-1.2186,-1.1757,-1.1413,-1.1063,-1.0549,-1.0294,-1.012,-1.0115,-1.0028,-1.0038,-0.9864,-0.9428,-0.9082,-0.8819,-0.8464,-0.7478,-0.6779,-0.6356,-0.5934,-0.5457,-0.4961,-0.4565,-0.4257,-0.3878,-0.3638,-0.3374,-0.2978,-0.266,-0.2267,-0.1947,-0.1556,-0.1155,-0.0764,-0.0457,-0.0224,-0.0074,-0.0072,0.0071,0.021,0.0622,0.1098,0.1602,0.2404,0.2969,0.3528,0.404,0.4525,0.5024,0.5601,0.6016,0.6349,0.6707,0.713,0.7238,0.7464,0.8346,0.9114,0.9543,0.9845,0.9963,0.9749,0.9644,0.9662,0.9755,0.994,1.016,1.0617,1.1107,1.1206,1.1329,1.1301,1.1262,1.1256,1.1182,1.1084,1.1095,1.131,1.1459,1.1557,1.1543,1.1501,1.1521,1.1564,1.1659,1.178,1.1593,1.1418,1.1669,1.1927,1.2175,1.248,1.2774,1.3007,-1.5497,-1.5409,-1.5921,-1.585,-1.5275,-1.5267,-1.5114,-1.4782,-1.4703,-1.4866,-1.5056,-1.4936,-1.4678,-1.4482,-1.4068,-1.373,-1.3476,-1.3307,-1.2875,-1.2534,-1.2192,-1.1843,-1.1413,-1.0982,-1.0636,-1.0289,-0.9859,-0.9598,-0.934,-0.8986,-0.9078,-0.9257,-0.899,-0.8556,-0.8116,-0.7848,-0.7404,-0.6605,-0.6042,-0.5638,-0.5323,-0.4991,-0.4607,-0.4182,-0.3942,-0.3645,-0.2995,-0.2699,-0.2431,-0.2038,-0.1648,-0.1256,-0.0862,-0.0547,-0.0156,0.0233,0.0465,0.0687,0.09,0.0808,0.0872,0.1232,0.1808,0.2524,0.3127,0.3643,0.4213,0.4753,0.5176,0.5701,0.6136,0.6475,0.6839,0.7234,0.7561,0.771,0.8016,0.8841,0.9557,1.0196,1.0507,1.0601,1.084,1.0783,1.0581,1.0597,1.0837,1.1128,1.1317,1.1667,1.1653,1.168,1.1619,1.1655,1.171,1.1699,1.1646,1.1675,1.1882,1.2027,1.2172,1.211,1.215,1.2153,1.2189,1.2384,1.2508,1.2316,1.2151,1.2127,1.2243,1.2565,1.2812,1.3045,1.3238,-1.4713,-1.4577,-1.479,-1.4759,-1.4505,-1.471,-1.4505,-1.417,-1.4222,-1.4379,-1.4469,-1.4176,-1.3984,-1.373,-1.3476,-1.3137,-1.2796,-1.2534,-1.2186,-1.1757,-1.1413,-1.1154,-1.0722,-1.0376,-1.0033,-0.9689,-0.9161,-0.8723,-0.8376,-0.8109,-0.776,-0.7848,-0.7937,-0.7676,-0.7319,-0.6786,-0.6254,-0.5899,-0.5455,-0.5068,-0.4691,-0.4535,-0.4237,-0.3774,-0.3218,-0.3014,-0.2672,-0.2225,-0.1811,-0.1492,-0.1099,-0.0628,-0.0236,0.0079,0.0471,0.0864,0.1178,0.1482,0.1699,0.1586,0.1631,0.2197,0.28,0.3352,0.3732,0.4263,0.4849,0.5419,0.5825,0.6251,0.6791,0.7022,0.7326,0.7638,0.7944,0.8097,0.8551,0.9236,1.0137,1.0807,1.1031,1.1125,1.147,1.1806,1.1664,1.1532,1.1778,1.2023,1.2133,1.2188,1.2123,1.205,1.1998,1.2059,1.2116,1.217,1.215,1.2266,1.2387,1.2482,1.2658,1.2982,1.3016,1.2928,1.2885,1.3105,1.3158,1.3048,1.2939,1.281,1.2912,1.3095,1.3244,1.3387,1.3524,-1.4064,-1.3881,-1.3975,-1.3916,-1.3903,-1.4103,-1.3997,-1.3698,-1.3835,-1.387,-1.3802,-1.347,-1.3222,-1.3052,-1.2796,-1.2448,-1.2106,-1.1757,-1.1413,-1.1068,-1.0722,-1.0467,-1.0033,-0.9685,-0.9248,-0.8903,-0.846,-0.8021,-0.7584,-0.7316,-0.6962,-0.6786,-0.6697,-0.6612,-0.6435,-0.5899,-0.5366,-0.5102,-0.4924,-0.4567,-0.4194,-0.4068,-0.3771,-0.3406,-0.2968,-0.249,-0.2217,-0.1775,-0.1348,-0.0946,-0.055,-0.0157,0.0314,0.0707,0.1021,0.1492,0.1883,0.2195,0.2262,0.2316,0.2425,0.2938,0.3479,0.3967,0.4373,0.4804,0.5372,0.5928,0.6251,0.6718,0.7257,0.7411,0.7714,0.8097,0.8327,0.8551,0.8937,0.9544,1.0513,1.1329,1.1477,1.1706,1.199,1.2331,1.2469,1.2312,1.2472,1.255,1.2503,1.2567,1.2495,1.2483,1.241,1.249,1.2576,1.268,1.2757,1.2743,1.2859,1.2923,1.3119,1.3449,1.3631,1.3558,1.3607,1.3796,1.3969,1.4007,1.3822,1.3528,1.3652,1.379,1.3962,1.4114,1.4082,-1.3492,-1.3307,-1.3436,-1.3388,-1.3341,-1.3585,-1.3639,-1.352,-1.3389,-1.324,-1.3039,-1.2711,-1.2448,-1.2363,-1.202,-1.1671,-1.1327,-1.1068,-1.0727,-1.0381,-1.012,-0.9781,-0.934,-0.8903,-0.846,-0.7937,-0.758,-0.7316,-0.6789,-0.652,-0.6166,-0.5811,-0.5722,-0.5636,-0.5633,-0.5277,-0.4832,-0.4389,-0.43,-0.4032,-0.376,-0.3573,-0.3298,-0.2924,-0.2611,-0.2212,-0.1678,-0.1309,-0.0803,-0.0317,0.0,0.0393,0.1022,0.1257,0.157,0.2041,0.2353,0.2668,0.2823,0.2973,0.3344,0.3716,0.4183,0.4503,0.4908,0.5395,0.5789,0.6254,0.6714,0.7022,0.7411,0.7723,0.8174,0.8403,0.8627,0.8932,0.9316,0.9916,1.0887,1.1774,1.2077,1.2298,1.2519,1.2739,1.3039,1.3077,1.3178,1.3107,1.2982,1.2972,1.2921,1.2949,1.287,1.2953,1.305,1.3227,1.3309,1.3268,1.3347,1.3492,1.3583,1.3743,1.3969,1.4103,1.4291,1.4427,1.4772,1.5109,1.4807,1.4503,1.4483,1.4572,1.4727,1.4728,1.4625,-1.309,-1.2988,-1.3033,-1.2936,-1.2698,-1.3024,-1.3052,-1.2915,-1.2745,-1.2541,-1.2357,-1.202,-1.1843,-1.1585,-1.1332,-1.0982,-1.0641,-1.0381,-1.0038,-0.9602,-0.9345,-0.8819,-0.838,-0.8113,-0.776,-0.7231,-0.6874,-0.6517,-0.6077,-0.5811,-0.5544,-0.5277,-0.4921,-0.4746,-0.4743,-0.4565,-0.43,-0.3944,-0.3765,-0.3587,-0.3226,-0.3048,-0.2868,-0.2239,-0.2022,-0.1646,-0.1113,-0.0749,-0.0326,0.016,0.0398,0.0945,0.1415,0.1649,0.2119,0.2588,0.2901,0.3526,0.3839,0.4146,0.4302,0.454,0.4618,0.5007,0.5398,0.5789,0.6254,0.6641,0.7022,0.7407,0.7642,0.8174,0.8556,0.878,0.9008,0.9241,0.962,1.0443,1.126,1.2003,1.2519,1.2673,1.29,1.2973,1.3266,1.3339,1.3346,1.3346,1.3287,1.3309,1.3366,1.3413,1.3419,1.3477,1.3515,1.375,1.3819,1.3843,1.3949,1.417,1.4182,1.4285,1.4344,1.4565,1.479,1.5029,1.5313,1.5517,1.5668,1.5594,1.5318,1.5118,1.5057,1.5027,1.4914,-1.2765,-1.265,-1.2667,-1.2535,-1.229,-1.2618,-1.2535,-1.2308,-1.2116,-1.1854,-1.1682,-1.1419,-1.1241,-1.0982,-1.0722,-1.0381,-0.9951,-0.9689,-0.9253,-0.8819,-0.8648,-0.8116,-0.7676,-0.733,-0.6962,-0.6526,-0.6171,-0.5813,-0.5453,-0.5191,-0.4835,-0.4476,-0.4208,-0.403,-0.3941,-0.3853,-0.3853,-0.3496,-0.3315,-0.3138,-0.2778,-0.2511,-0.2242,-0.1787,-0.1417,-0.0963,-0.0605,-0.017,0.0248,0.0571,0.0964,0.1505,0.1813,0.2119,0.2666,0.3057,0.3606,0.4231,0.4538,0.4851,0.5007,0.5321,0.5318,0.5473,0.5789,0.6177,0.6637,0.7022,0.7326,0.7714,0.8097,0.8551,0.8856,0.9003,0.9463,0.9695,1.0067,1.0812,1.1632,1.2452,1.282,1.3046,1.3193,1.3266,1.3419,1.3492,1.3492,1.3492,1.3492,1.3564,1.3645,1.37,1.3856,1.3932,1.4034,1.4196,1.4312,1.4346,1.4579,1.4832,1.4921,1.5025,1.5029,1.5051,1.5352,1.5575,1.5654,1.5853,1.5999,1.6012,1.5838,1.5636,1.5494,1.5411,1.5349,-1.2478,-1.2278,-1.2342,-1.2186,-1.2032,-1.2163,-1.1997,-1.166,-1.1402,-1.1154,-1.0982,-1.0814,-1.0554,-1.0299,-1.0038,-0.9694,-0.9257,-0.8995,-0.8492,-0.7967,-0.7812,-0.7276,-0.6936,-0.6585,-0.6251,-0.586,-0.5502,-0.5272,-0.4945,-0.4595,-0.4146,-0.3765,-0.3583,-0.3317,-0.3227,-0.3138,-0.3138,-0.2957,-0.2778,-0.251,-0.2242,-0.1973,-0.1615,-0.1253,-0.0893,-0.0443,-0.0088,0.0346,0.0762,0.108,0.1385,0.1845,0.2219,0.2514,0.3059,0.3684,0.4387,0.4696,0.4929,0.524,0.5634,0.5948,0.6018,0.6099,0.6254,0.6563,0.6868,0.7253,0.7561,0.8093,0.8551,0.8856,0.9084,0.9539,0.9992,1.0293,1.0588,1.126,1.2157,1.2753,1.3046,1.3266,1.3346,1.3492,1.3492,1.3492,1.3492,1.3492,1.3564,1.3637,1.3717,1.3855,1.4034,1.4402,1.4538,1.4638,1.4854,1.4907,1.5274,1.5525,1.5599,1.5725,1.5839,1.5909,1.6082,1.6207,1.6327,1.6364,1.6348,1.6341,1.644,1.6162,1.6053,1.6053,1.6042,-1.1997,-1.1832,-1.1729,-1.1499,-1.1246,-1.0987,-1.0901,-1.0987,-1.0895,-1.0727,-1.0467,-1.0299,-0.9956,-0.9607,-0.9349,-0.8903,-0.8552,-0.822,-0.7853,-0.7531,-0.7115,-0.6639,-0.6311,-0.5953,-0.5689,-0.5317,-0.5039,-0.4747,-0.4562,-0.416,-0.3626,-0.3233,-0.305,-0.2781,-0.2511,-0.2333,-0.2332,-0.2331,-0.2241,-0.1973,-0.1704,-0.1436,-0.0987,-0.0628,-0.0269,0.0089,0.0444,0.0876,0.1205,0.1366,0.1982,0.2427,0.2501,0.2932,0.3526,0.4151,0.4618,0.5004,0.524,0.5709,0.6103,0.6335,0.6483,0.6633,0.6791,0.6949,0.7176,0.7484,0.7791,0.8322,0.878,0.9084,0.9463,0.9992,1.0443,1.0812,1.1111,1.1632,1.2452,1.3046,1.3339,1.3346,1.3492,1.3492,1.3492,1.3492,1.3492,1.3492,1.3564,1.371,1.3855,1.4,1.4289,1.4577,1.4856,1.5051,1.5334,1.5581,1.5904,1.6133,1.6294,1.6459,1.6613,1.6728,1.6763,1.6888,1.7124,1.7072,1.6927,1.7203,1.7234,1.6922,1.6643,1.6632,1.6653,-1.1538,-1.1408,-1.1154,-1.0895,-1.0554,-1.0207,-1.0033,-1.0038,-1.0212,-1.0033,-0.9781,-0.9607,-0.9345,-0.8903,-0.8556,-0.8204,-0.7764,-0.7578,-0.7198,-0.6703,-0.651,-0.6098,-0.5782,-0.5426,-0.5214,-0.4856,-0.4668,-0.4358,-0.408,-0.374,-0.3208,-0.2821,-0.2617,-0.2242,-0.1973,-0.1705,-0.1615,-0.1525,-0.1525,-0.1346,-0.1166,-0.0807,-0.0359,0.0,0.0179,0.0628,0.0896,0.1412,0.158,0.1741,0.2439,0.2744,0.2968,0.3547,0.4135,0.4683,0.5029,0.541,0.5712,0.6099,0.6412,0.6644,0.6868,0.7099,0.7176,0.7334,0.7488,0.7791,0.8174,0.8551,0.9008,0.9463,0.9916,1.0368,1.0818,1.1186,1.1632,1.2077,1.2673,1.3266,1.3492,1.3492,1.3492,1.3492,1.3492,1.3492,1.3492,1.3492,1.363,1.3775,1.392,1.4065,1.4425,1.4721,1.507,1.5355,1.5692,1.6026,1.6349,1.6638,1.6908,1.714,1.7317,1.7367,1.7385,1.748,1.7574,1.7575,1.7533,1.7729,1.7781,1.7502,1.7222,1.716,1.7202,-1.1068,-1.0895,-1.0733,-1.0294,-0.9864,-0.9602,-0.9257,-0.8911,-0.9253,-0.9253,-0.8907,-0.8823,-0.8552,-0.8113,-0.7852,-0.7496,-0.7091,-0.6902,-0.6627,-0.5926,-0.5863,-0.5648,-0.5288,-0.4979,-0.4735,-0.4514,-0.4219,-0.396,-0.3621,-0.3197,-0.2883,-0.2499,-0.2084,-0.1705,-0.1346,-0.1076,-0.0897,-0.0807,-0.0807,-0.0718,-0.0538,-0.0269,0.009,0.0269,0.0718,0.1166,0.1436,0.1698,0.2045,0.237,0.2773,0.3085,0.3604,0.4201,0.473,0.5165,0.5504,0.5855,0.6139,0.6511,0.6799,0.7026,0.7257,0.7411,0.7492,0.7569,0.7718,0.8097,0.8475,0.8856,0.9387,0.9765,1.0218,1.0738,1.126,1.1484,1.1706,1.2231,1.2973,1.3419,1.3492,1.3492,1.3492,1.3492,1.3492,1.3492,1.3492,1.3492,1.363,1.3848,1.3992,1.4137,1.4497,1.4856,1.5213,1.5568,1.6061,1.6412,1.676,1.7157,1.7436,1.7755,1.8044,1.8087,1.8117,1.7922,1.7967,1.8008,1.8123,1.8112,1.8112,1.7957,1.7823,1.7781,1.774,-1.0376,-1.0212,-0.9781,-0.9432,-0.917,-0.8903,-0.864,-0.8376,-0.8109,-0.8109,-0.8288,-0.8113,-0.7848,-0.7408,-0.7146,-0.6789,-0.6465,-0.623,-0.6043,-0.567,-0.5487,-0.5282,-0.4948,-0.4642,-0.436,-0.4081,-0.3876,-0.3448,-0.3112,-0.2772,-0.2437,-0.1851,-0.1454,-0.117,-0.0897,-0.0538,-0.0269,-0.0179,0.0,-0.009,-0.009,0.0269,0.0628,0.0807,0.1256,0.1436,0.1705,0.2153,0.2416,0.2757,0.3149,0.3608,0.4118,0.476,0.5162,0.5471,0.5944,0.6284,0.6562,0.6823,0.7087,0.7285,0.7427,0.7654,0.7727,0.7723,0.7949,0.8327,0.878,0.9236,0.969,1.0143,1.0588,1.1186,1.1651,1.1726,1.1793,1.2526,1.3266,1.3419,1.3492,1.3492,1.3492,1.3492,1.3492,1.3492,1.3492,1.3492,1.363,1.3848,1.3992,1.4209,1.4569,1.5007,1.5355,1.5771,1.6202,1.6691,1.7107,1.752,1.794,1.823,1.8516,1.8726,1.8827,1.8589,1.8526,1.8733,1.8744,1.8578,1.8537,1.8444,1.8526,1.8526,1.8413,-0.9777,-0.9432,-0.899,-0.8732,-0.8556,-0.8285,-0.7933,-0.7669,-0.7316,-0.7228,-0.7319,-0.7319,-0.7146,-0.67,-0.6435,-0.6171,-0.5763,-0.5639,-0.5533,-0.5251,-0.5083,-0.4874,-0.4624,-0.4336,-0.4124,-0.3833,-0.3429,-0.3002,-0.2673,-0.2242,-0.1913,-0.1405,-0.1195,-0.0634,-0.036,0.0,0.0269,0.0359,0.0718,0.0718,0.0448,0.0718,0.0987,0.1256,0.1436,0.1705,0.2154,0.2513,0.278,0.3133,0.3544,0.431,0.4762,0.5227,0.5622,0.5919,0.6344,0.6654,0.6954,0.7217,0.7434,0.7634,0.7634,0.7828,0.8111,0.8178,0.825,0.8703,0.9236,0.9695,1.0143,1.0513,1.1111,1.1706,1.2127,1.2355,1.2472,1.2893,1.3339,1.3419,1.3492,1.3492,1.3492,1.3492,1.3492,1.3499,1.3499,1.355,1.3682,1.3983,1.4091,1.4359,1.4856,1.5135,1.5434,1.585,1.6412,1.683,1.7382,1.7862,1.8269,1.8664,1.8921,1.9044,1.9034,1.9003,1.9013,1.9131,1.9131,1.8878,1.892,1.9038,1.9131,1.9131,1.8868,-0.917,-0.8732,-0.8288,-0.8113,-0.8025,-0.758,-0.7228,-0.6962,-0.6792,-0.6438,-0.6171,-0.6438,-0.626,-0.6083,-0.5725,-0.5549,-0.5343,-0.5313,-0.5112,-0.4899,-0.4749,-0.4508,-0.4228,-0.4034,-0.3734,-0.3432,-0.3027,-0.2725,-0.2514,-0.1975,-0.1646,-0.1238,-0.0654,0.0,0.018,0.0448,0.0718,0.0807,0.0987,0.1166,0.1166,0.1166,0.1346,0.1525,0.1705,0.2064,0.2512,0.2781,0.3047,0.358,0.4111,0.4807,0.5313,0.5695,0.6106,0.6487,0.6726,0.7079,0.7383,0.7585,0.7817,0.7998,0.793,0.8074,0.8358,0.8641,0.8789,0.9084,0.962,1.0067,1.0513,1.0974,1.1571,1.2201,1.2585,1.3044,1.3269,1.3438,1.3512,1.366,1.3645,1.3653,1.3631,1.3623,1.3609,1.3601,1.3601,1.3616,1.3756,1.4201,1.4492,1.4766,1.5225,1.547,1.5589,1.6043,1.6623,1.7107,1.7588,1.8134,1.8539,1.8808,1.8998,1.9065,1.9131,1.9131,1.9131,1.9131,1.9131,1.9131,1.9131,1.9131,1.9131,1.9131,1.9131,-0.8552,-0.8032,-0.7757,-0.7492,-0.7319,-0.7054,-0.67,-0.6257,-0.5988,-0.5725,-0.5549,-0.5369,-0.5369,-0.5549,-0.5277,-0.5015,-0.4871,-0.4948,-0.4645,-0.4407,-0.4461,-0.4117,-0.3835,-0.3734,-0.3331,-0.3029,-0.2725,-0.2423,-0.2017,-0.1687,-0.1168,-0.0382,-0.0281,0.0276,0.0632,0.081,0.1084,0.1085,0.1265,0.1446,0.1621,0.1619,0.1705,0.1885,0.2155,0.2512,0.278,0.3048,0.3494,0.4119,0.4832,0.5366,0.58,0.6222,0.6643,0.6954,0.7197,0.7495,0.7797,0.7987,0.8139,0.8319,0.829,0.843,0.8793,0.9214,0.9352,0.9614,1.0067,1.0368,1.0818,1.1378,1.2006,1.2679,1.3208,1.3747,1.4072,1.4212,1.4304,1.4267,1.4223,1.4201,1.4165,1.4157,1.4157,1.4143,1.4136,1.4212,1.432,1.4615,1.4896,1.5245,1.5597,1.5723,1.5854,1.6378,1.6863,1.7329,1.7813,1.8329,1.8735,1.8952,1.9075,1.9065,1.9131,1.9131,1.9131,1.9131,1.9131,1.9131,1.9131,1.9131,1.9131,1.9131,1.9131]},{"header":{"parameterUnit":"m.s-1","parameterCategory":1,"la1":31.0,"la2":29.5877,"lo1":-88.7671,"lo2":-86.6584,"dx":0.0162,"dy":0.0185,"nx":115,"ny":88,"refTime":"2023-01-26T18:00:00:Z","depth":0,"parameterNumber":3,"parameterNumberName":"V-component_of_WINDS"},"data":[0.0,0.0,0.0,0.0,0.0,0.0,0.0,0.0,0.0,0.0,0.0,0.0,0.0,0.0,0.0,0.0,0.0,0.0,0.0,0.0,0.0,0.0,0.0,0.0,0.0,0.0,0.0,0.0,0.0,0.0,0.0,0.0,0.0,0.0,0.0,0.0,0.0,0.0,0.0,0.0,0.0,0.0,0.0,0.0,0.0,0.0,0.0,0.0,0.0,0.0,0.0,0.0,0.0,0.0,0.0,0.0,0.0,0.0,0.0,0.0,0.0,0.0,0.0,0.0,0.0,0.0,0.0,0.0,0.0,0.0,0.0,0.0,0.0,0.0,0.0,0.0,0.0,0.0,0.0,0.0,0.0,0.0,0.0,0.0,0.0,0.0,0.0,0.0,0.0,0.0,0.0,0.0,0.0,0.0,0.0,0.0,0.0,0.0,0.0,0.0,0.0,0.0,0.0,0.0,0.0,0.0,0.0,0.0,0.0,0.0,0.0,0.0,0.0,0.0,0.0,0.0,0.0,0.0,0.0,0.0,0.0,0.0,0.0,0.0,0.0,0.0,0.0,0.0,0.0,0.0,0.0,0.0,0.0,0.0,0.0,0.0,0.0,0.0,0.0,0.0,0.0,0.0,0.0,0.0,0.0,0.0,0.0,0.0,0.0,0.0,0.0,0.0,0.0,0.0,0.0,0.0,0.0,0.0,0.0,0.0,0.0,0.0,0.0,0.0,0.0,0.0,0.0,0.0,0.0,0.0,0.0,0.0,0.0,0.0,0.0,0.0,0.0,0.0,0.0,0.0,0.0,0.0,0.0,0.0,0.0,0.0,0.0,0.0,0.0,0.0,0.0,0.0,0.0,0.0,0.0,0.0,0.0,0.0,0.0,0.0,0.0,0.0,0.0,0.0,0.0,0.0,0.0,0.0,0.0,0.0,0.0,0.0,0.0,0.0,0.0,0.0,0.0,0.0,0.0,0.0,0.0,0.0,0.0,0.0,0.0,0.0,0.0,0.0,0.0,0.0,0.0,0.0,0.0,0.0,0.0,0.0,0.0,0.0,0.0,0.0,0.0,0.0,0.0,0.0,0.0,0.0,0.0,0.0,0.0,0.0,0.0,0.0,0.0,0.0,0.0,0.0,0.0,0.0,0.0,0.0,0.0,0.0,0.0,0.0,0.0,0.0,0.0,0.0,0.0,0.0,0.0,0.0,0.0,0.0,0.0,0.0,0.0,0.0,0.0,0.0,0.0,0.0,0.0,0.0,0.0,0.0,0.0,0.0,0.0,0.0,0.0,0.0,0.0,0.0,0.0,0.0,0.0,0.0,0.0,0.0,0.0,0.0,0.0,0.0,0.0,0.0,0.0,0.0,0.0,0.0,0.0,0.0,0.0,0.0,0.0,0.0,0.0,0.0,0.0,0.0,0.0,0.0,0.0,0.0,0.0,0.0,0.0,0.0,0.0,0.0,0.0,0.0,0.0,0.0,0.0,0.0,0.0,0.0,0.0,0.0,0.0,0.0,0.0,0.0,0.0,0.0,0.0,0.0,0.0,0.0,0.0,0.0,0.0,0.0,0.0,0.0,0.0,0.0,0.0,0.0,0.0,0.0,0.0,0.0,0.0,0.0,0.0,0.0,0.0,0.0,0.0,0.0,0.0,0.0,0.0,0.0,0.0,0.0,0.0,0.0,0.0,0.0,0.0,0.0,0.0,0.0,0.0,0.0,0.0,0.0,0.0,0.0,0.0,0.0,0.0,0.0,0.0,0.0,0.0,0.0,0.0,0.0,0.0,0.0,0.0,0.0,0.0,0.0,0.0,0.0,0.0,0.0,0.0,0.0,0.0,0.0,0.0,0.0,0.0,0.0,0.0,0.0,0.0,0.0,0.0,0.0,0.0,0.0,0.0,0.0,0.0,0.0,0.0,0.0,0.0,0.0,0.0,0.0,0.0,0.0,0.0,0.0,0.0,0.0,0.0,0.0,0.0,0.0,0.0,0.0,0.0,0.0,0.0,0.0,0.0,0.0,0.0,0.0,0.0,0.0,0.0,0.0,0.0,0.0,0.0,0.0,0.0,0.0,0.0,0.0,0.0,0.0,0.0,0.0,0.0,0.0,0.0,0.0,0.0,0.0,0.0,0.0,0.0,0.0,0.0,0.0,0.0,0.0,0.0,0.0,0.0,0.0,0.0,0.0,0.0,0.0,0.0,0.0,0.0,0.0,0.0,0.0,0.0,0.0,0.0,0.0,0.0,0.0,0.0,0.0,0.0,0.0,0.0,0.0,0.0,0.0,0.0,0.0,0.0,0.0,0.0,0.0,0.0,0.0,0.0,0.0,0.0,0.0,0.0,0.0,0.0,0.0,0.0,0.0,0.0,0.0,0.0,0.0,0.0,0.0,0.0,0.0,0.0,0.0,0.0,0.0,0.0,0.0,0.0,0.0,0.0,0.0,0.0,0.0,0.0,0.0,0.0,0.0,0.0,0.0,0.0,0.0,0.0,0.0,0.0,0.0,0.0,0.0,0.0,0.0,0.0,0.0,0.0,0.0,0.0,0.0,0.0,0.0,0.0,0.0,0.0,0.0,0.0,0.0,0.0,0.0,0.0,0.0,0.0,0.0,0.0,0.0,0.0,0.0,0.0,0.0,0.0,0.0,0.0,0.0,0.0,0.0,0.0,0.0,0.0,0.0,0.0,0.0,0.0,0.0,0.0,0.0,0.0,0.0,0.0,0.0,0.0,0.0,0.0,0.0,0.0,0.0,0.0,0.0,0.0,0.0,0.0,0.0,0.0,0.0,0.0,0.0,0.0,0.0,0.0,0.0,0.0,0.0,0.0,0.0,0.0,0.0,0.0,0.0,0.0,0.0,0.0,0.0,0.0,0.0,0.0,0.0,0.0,0.0,0.0,0.0,0.0,0.0,0.0,0.0,0.0,0.0,0.0,0.0,0.0,0.0,0.0,0.0,0.0,0.0,0.0,0.0,0.0,0.0,0.0,0.0,0.0,0.0,0.0,0.0,0.0,0.0,0.0,0.0,0.0,0.0,0.0,0.0,0.0,0.0,0.0,0.0,0.0,0.0,0.0,0.0,0.0,0.0,0.0,0.0,0.0,0.0,0.0,0.0,0.0,0.0,0.0,0.0,0.0,0.0,0.0,0.0,0.0,0.0,0.0,0.0,0.0,0.0,0.0,0.0,0.0,0.0,0.0,0.0,0.0,0.0,0.0,0.0,0.0,0.0,0.0,0.0,0.0,0.0,0.0,0.0,0.0,0.0,0.0,0.0,0.0,0.0,0.0,0.0,0.0,0.0,0.0,0.0,0.0,0.0,0.0,0.0,0.0,0.0,0.0,0.0,0.0,0.0,0.0,0.0,0.0,0.0,0.0,0.0,0.0,0.0,0.0,0.0,0.0,0.0,0.0,0.0,0.0,0.0,0.0,0.0,0.0,0.0,0.0,0.0,0.0,0.0,0.0,0.0,0.0,0.0,0.0,0.0,0.0,0.0,0.0,0.0,0.0,0.0,0.0,0.0,0.0,0.0,0.0,0.0,0.0,0.0,0.0,0.0,0.0,0.0,0.0,0.0,0.0,0.0,0.0,0.0,0.0,0.0,0.0,0.0,0.0,0.0,0.0,0.0,0.0,0.0,0.0,0.0,0.0,0.0,0.0,0.0,0.0,0.0,0.0,0.0,0.0,0.0,0.0,0.0,0.0,0.0,0.0,0.0,0.0,0.0,0.0,0.0,0.0,0.0,0.0,0.0,0.0,0.0,0.0,0.0,0.0,0.0,0.0,0.0,0.0,0.0,0.0,0.0,0.0,0.0,0.0,0.0,0.0,0.0,0.0,0.0,0.0,0.0,0.0,0.0,0.0,0.0,0.0,0.0,0.0,0.0,0.0,0.0,0.0,0.0,0.0,0.0,0.0,0.0,0.0,0.0,0.0,0.0,0.0,0.0,0.0,0.0,0.0,0.0,0.0,0.0,0.0,0.0,0.0,0.0,0.0,0.0,0.0,0.0,0.0,0.0,0.0,0.0,0.0,0.0,0.0,0.0,0.0,0.0,0.0,0.0,0.0,0.0,0.0,0.0,0.0,0.0,0.0,0.0,0.0,0.0,0.0,0.0,0.0,0.0,0.0,0.0,0.0,0.0,0.0,0.0,0.0,0.0,0.0,0.0,0.0,0.0,0.0,0.0,0.0,0.0,0.0,0.0,0.0,0.0,0.0,0.0,0.0,0.0,0.0,0.0,0.0,0.0,0.0,0.0,0.0,0.0,0.0,0.0,0.2646,0.0,0.0,0.0,0.0,0.0,0.0,0.0,0.0,0.0,0.0,0.0,0.0,0.0,0.0,0.0,0.0,0.0,0.0,0.0,0.0,0.0,0.0,0.0,0.0,0.0,0.0,0.0,0.0,0.0,0.0,0.0,0.0,0.0,0.0,0.0,0.0,0.0,0.0,0.0,0.0,0.0,0.0,0.0,0.0,0.0,0.0,0.0,0.0,0.0,0.0,0.0,0.0,0.0,0.0,0.0,0.0,0.0,0.0,0.0,0.0,0.0,0.0,0.0,0.0,0.0,0.0,0.0,0.0,0.0,0.0,0.0,0.0,0.0,0.0,0.0,0.0,0.0,0.0,0.0,0.0,0.0,0.0,0.0,0.0,0.0,0.0,0.0,0.0,0.0,0.0,0.0,0.0,0.0,0.0,0.0,0.0,0.0,0.0,0.0,0.0,0.0,0.0,0.0,0.0,0.0,0.0,0.0,0.0,0.0,0.0,0.0336,0.1005,0.1776,0.2444,0.2944,0.0,0.0,0.0,0.0,0.0,0.0,0.0,0.0,0.0,0.0,0.0,0.0,0.0,0.0,0.0,0.0,0.0,0.0,0.0,0.0,0.0,0.0,0.0,0.0,0.0,0.0,0.0,0.0,0.0,0.0,0.0,0.0,0.0,0.0,0.0,0.0,0.0,0.0,0.0,0.0,0.0,0.0,0.0,0.0,0.0,0.0,0.0,0.0,0.0,0.0,0.0,0.0,0.0,0.0,0.0,0.0,0.0,0.0,0.0,0.0,0.0,0.0,0.0,0.0,0.0,0.0,0.0,0.0,0.0,0.0,0.0,0.0,0.0,0.0,0.0,0.0,0.0,0.0,0.0,0.0,0.0,0.0,0.0,0.0,0.0,0.0,0.0,0.0,0.0,0.0,0.0,0.0,0.0,0.0,0.0,0.0,0.0,0.0,0.0,0.0,0.0,0.0,0.0,0.0,0.0,0.0,0.0,0.0,0.0,0.0,0.0,0.0,0.1904,0.2606,0.3274,0.0,0.0,0.0,0.0,0.0,0.0,0.0,0.0,0.0,0.0,0.0,0.0,0.0,0.0,0.0,0.0,0.0,0.0,0.0,0.0,0.0,0.0,0.0,0.0,0.0,0.0,0.0,0.0,0.0,0.0,0.0,0.0,0.0,0.0,0.0,0.0,0.0,0.0,0.0,0.0,0.0,0.0,0.0,0.0,0.0,0.0,0.0,0.0,0.0,0.0,0.0,0.0,0.0,0.0,0.0,0.0,0.0,0.0,0.0,0.0,0.0,0.0,0.0,0.0,0.0,0.0,0.0,0.0,0.0,0.0,0.0,0.0,0.0,0.0,0.0,0.0,0.0,0.0,0.0,0.0,0.0,0.0,0.0,0.0,0.0,0.0,0.0,0.0,0.0,0.0,0.0,0.0,0.0,0.0,0.0,0.0,0.0,0.0,0.0,0.0,0.0,0.0,0.0,0.0,0.0,0.0,0.0,0.0,0.0,0.0,0.0402,0.1203,0.1904,0.0,0.3569,0.0,0.0,0.0,0.0,0.0,0.0,0.0,0.0,0.0,0.0,0.0,0.0,0.0,0.0,0.0,0.0,0.0,0.0,0.0,0.0,0.0,0.0,0.0,0.0,0.0,0.0,0.0,0.0,0.0,0.0,0.0,0.0,0.0,0.0,0.0,0.0,0.0,0.0,0.0,0.0,0.0,0.0,0.0,0.0,0.0,0.0,0.0,0.0,0.0,0.0,0.0,0.0,0.0,0.0,0.0,0.0,0.0,0.0,0.0,0.0,0.0,0.0,0.0,0.0,0.0,0.0,0.0,0.0,0.0,0.0,0.0,0.0,0.0,0.0,0.0,0.0,0.0,0.0,0.0,0.0,0.0,0.0,0.0,0.0,0.0,0.0,0.0,0.0,0.0,0.0,0.0,0.0,0.0,0.0,0.0,0.0,0.0,0.0,0.0,0.0,0.0,0.0,0.0,0.0,0.0,0.0,0.0,0.0,0.0,0.0,0.0335,0.117,0.2299,0.3196,0.0,0.0,0.0,0.0,0.0,0.0,0.0,0.0,0.0,0.0,0.0,0.0,0.0,0.0,0.0,0.0,0.0,0.0,0.0,0.0,0.0,0.0,0.0,0.0,0.0,0.0,0.0,0.0,0.0,0.0,0.0,0.0,0.0,0.0,0.0,0.0,0.0,0.0,0.0,0.0,0.0,0.0,0.0,0.0,0.0,0.0,0.0,0.0,0.0,0.0,0.0,0.0,0.0,0.0,0.0,0.0,0.0,0.0,0.0,0.0,0.0,0.0,0.0,0.0,0.0,0.0,0.0,0.0,0.0,0.0,0.0,0.0,0.0,0.0,0.0,0.0,0.0,0.0,0.0,0.0,0.0,0.0,0.0,0.0,0.0,0.0,0.0,0.0,0.0,0.0,0.0,0.0,0.0,0.0,0.0,0.0,0.0,0.0,0.0,0.0,0.0,0.0,0.0,0.0,0.0,0.0,0.0,0.0,0.0,0.0,-0.0437,0.0335,0.1438,0.2633,0.3462,0.3886,0.0,0.0,0.0,0.0,0.0,0.0,0.0,0.0,0.0,0.0,0.0,0.0,0.0,0.0,0.0,0.0,0.0,0.0,0.0,0.0,0.0,0.0,0.0,0.0,0.0,0.0,0.0,0.0,0.0,0.0,0.0,0.0,0.0,0.0,0.0,0.0,0.0,0.0,0.0,0.0,0.0,0.0,0.0,0.0,0.0,0.0,0.0,0.0,0.0,0.0,0.0,0.0,0.0,0.0,0.0,0.0,0.0,0.0,0.0,0.0,0.0,0.0,0.0,0.0,0.0,0.0,0.0,0.0,0.0,0.0,0.0,0.0,0.0,0.0,0.0,0.0,0.0,0.0,0.0,0.0,0.0,0.0,0.0,0.0,0.0,0.0,0.0,0.0,0.0,0.0,0.0,0.0,0.0,0.0,0.0,0.0,0.0,0.0,0.0,0.0,0.0,0.0,0.0,0.0,0.0,0.0,0.0,0.0,-0.1212,-0.0606,0.0468,0.2001,0.2805,0.3434,0.0,0.0,0.0,0.0,0.0,0.0,0.0,0.0,0.0,0.0,0.0,0.0,0.0,0.0,0.0,0.0,0.0,0.0,0.0,0.0,0.0,0.0,0.0,0.0,0.0,0.0,0.0,0.0,0.0,0.0,0.0,0.0,0.0,0.0,0.0,0.0,0.0,0.0,0.0,0.0,0.0,0.0,0.0,0.0,0.0,0.0,0.0,0.0,0.0,0.0,0.0,0.0,0.0,0.0,0.0,0.0,0.0,0.0,0.0,0.0,0.0,0.0,0.0,0.0,0.0,0.0,0.0,0.0,0.0,0.0,0.0,0.0,0.0,0.0,0.0,0.0,0.0,0.0,0.0,0.0,0.0,0.0,0.0,0.0,0.0,0.0,0.0,0.0,0.0,0.0,0.0,0.0,0.0,0.0,0.0,0.0,0.0,0.0,0.0,0.0,0.0,0.0,0.0,0.0,0.0,0.0,0.0,0.0,0.0,-0.1375,-0.0269,0.0804,0.1807,0.2603,0.3237,0.0,0.0,0.0,0.0,0.0,0.0,0.0,0.0,0.0,0.0,0.0,0.0,0.0,0.0,0.0,0.0,0.0,0.0,0.0,0.0,0.0,0.0,0.0,0.0,0.0,0.0,0.0,0.0,0.0,0.0,0.0,0.0,0.0,0.0,0.0,0.0,0.0,0.0,0.0,0.0,0.0,0.0,0.0,0.0,0.0,0.0,0.0,0.0,0.0,0.0,0.0,0.0,0.0,0.0,0.0,0.0,0.0,0.0,0.0,0.0,0.0,0.0,0.0,0.0,0.0,0.0,0.0,0.0,0.0,0.0,0.0,0.0,0.0,0.0,0.0,0.0,0.0,0.0,0.0,0.0,0.0,0.0,0.0,0.0,0.0,0.0,0.0,0.0,0.0,0.0,0.0,0.0,0.0,0.0,0.0,0.0,0.0,0.0,0.0,0.0,0.0,0.0,0.0,0.0,0.0,0.0,0.0,0.0,0.0,-0.1274,0.0,0.0907,0.1609,0.2371,0.3003,0.0,0.0,0.0,0.0,0.0,0.0,0.0,0.0,0.0,0.0,0.0,0.0,0.0,0.0,0.0,0.0,0.0,0.0,0.0,0.0,0.0,0.0,0.0,0.0,0.0,0.0,0.0,0.0,0.0,0.0,0.0,0.0,0.0,0.0,0.0,0.0,0.0,0.0,0.0,0.0,0.0,0.0,0.0,0.0,0.0,0.0,0.0,0.0,0.0,0.0,0.0,0.0,0.0,0.0,0.0,0.0,0.0,0.0,0.0,0.0,0.0,0.0,0.0,0.0,0.0,0.0,0.0,0.0,0.0,0.0,0.0,0.0,0.0,0.0,0.0,0.0,0.0,0.0,0.0,0.0,0.0,0.0,0.0,0.0,0.0,0.0,0.0,0.0,0.0,0.0,0.0,0.0,0.0,0.0,0.0,0.0,0.0,0.0,0.0,0.0,0.0,0.0,0.0,0.0,0.0,0.0,0.0,0.0,-0.1876,-0.0841,-0.0034,0.0737,0.1473,0.2139,0.2768,0.0,0.0,0.0,0.0,0.0,0.0,0.0,0.0,0.0,0.0,0.0,0.0,0.0,0.0,0.0,0.0,0.0,0.0,0.0,0.0,0.0,0.0,0.0,0.0,0.0,0.0,0.0,0.0,0.0,0.0,0.0,0.0,0.0,0.0,0.0,0.0,0.0,0.0,0.0,0.0,0.0,0.0,0.0,0.0,0.0,0.0,0.0,0.0,0.0,0.0,0.0,0.0,0.0,0.0,0.0,0.0,0.0,0.0,0.0,0.0,0.0,0.0,0.0,0.0,0.0,0.0,0.0,0.0,0.0,0.0,0.0,0.0,0.0,0.0,0.0,0.0,0.0,0.0,0.0,0.0,0.0,0.0,0.0,0.0,0.0,0.0,0.0,0.0,0.0,0.0,0.0,0.0,0.0,0.0,0.0,0.0,0.0,0.0,0.0,0.0,0.0,0.0,0.0,0.0,0.0,0.0,0.0,0.0,0.0,-0.1078,-0.0303,0.0469,0.1204,0.2006,0.2676,0.0,0.0,0.0,0.0,0.0,0.0,0.0,0.0,0.0,0.0,0.0,0.0,0.0,0.0,0.0,0.0,0.0,0.0,0.0,0.0,0.0,0.0,0.0,0.0,0.0,0.0,0.0,0.0,0.0,0.0,0.0,0.0,0.0,0.0,0.0,0.0,0.0,0.0,0.0,0.0,0.0,0.0,0.0,0.0,0.0,0.0,0.0,0.0,0.0,0.0,0.0,0.0,0.0,0.0,0.0,0.0,0.0,0.0,0.0,0.0,0.0,0.0,0.0,0.0,0.0,0.0,0.0,0.0,0.0,0.0,0.0,0.0,0.0,0.0,0.0,0.0,0.0,0.0,0.0,0.0,0.0,0.0,0.0,0.0,0.0,0.0,0.0,0.0,0.0,0.0,0.0,0.0,0.0,0.0,0.0,0.0,0.0,0.0,0.0,0.0,0.0,0.0,0.0,0.0,0.0,0.0,0.0,0.0,0.0,-0.1246,-0.0505,0.0235,0.1007,0.1707,0.2408,0.3072,0.0,0.0,0.0,0.0,0.0,0.0,0.0,0.0,0.0,0.0,0.0,0.0,0.0,0.0,0.0,0.0,0.0,0.0,0.0,0.0,0.0,0.0,0.0,0.0,0.0,0.0,0.0,0.0,0.0,0.0,0.0,0.0,0.0,0.0,0.0,0.0,0.0,0.0,0.0,0.0,0.0,0.0,0.0,0.0,0.0,0.0,0.0,0.0,0.0,0.0,0.0,0.0,0.0,0.0,0.0,0.0,0.0,0.0,0.0,0.0,0.0,0.0,0.0,0.0,0.0,0.0,0.0,0.0,0.0,0.0,0.0,0.0,0.0,0.0,0.0,0.0,0.0,0.0,0.0,0.0,0.0,0.0,0.0,0.0,0.0,0.0,0.0,0.0,0.0,0.0,0.0,0.0,0.0,0.0,0.0,0.0,0.0,0.0,0.0,0.0,0.0,0.0,0.0,0.0,0.0,0.0,0.0,0.0,-0.1281,-0.0639,0.0101,0.0875,0.1375,0.2037,0.0,0.0,0.0,0.0,0.0,0.0,0.0,0.0,0.0,0.0,0.0,0.0,0.0,0.0,0.0,0.0,0.0,0.0,0.0,0.0,0.0,0.0,0.0,0.0,0.0,0.0,0.0,0.0,0.0,0.0,0.0,0.0,0.0,0.0,0.0,0.0,0.0,0.0,0.0,0.0,0.0,0.0,0.0,0.0,0.0,0.0,0.0,0.0,0.0,0.0,0.0,0.0,0.0,0.0,0.0,0.0,0.0,0.0,0.0,0.0,0.0,0.0,0.0,0.0,0.0,0.0,0.0,0.0,0.0,0.0,0.0,0.0,0.0,0.0,0.0,0.0,0.0,0.0,0.0,0.0,0.0,0.0,0.0,0.0,0.0,0.0,0.0,0.0,0.0,0.0,0.0,0.0,0.0,0.0,0.0,0.0,0.0,0.0,0.0,0.0,0.0,0.0,0.0,0.0,0.0,0.0,0.0,0.0,0.0,-0.1145,-0.0606,0.0067,0.0808,0.1573,0.2269,0.0,0.0,0.0,0.0,0.0,0.0,0.0,0.0,0.0,0.0,0.0,0.0,0.0,0.0,0.0,0.0,0.0,0.0,0.0,0.0,0.0,0.0,0.0,0.0,0.0,0.0,0.0,0.0,0.0,0.0,0.0,0.0,0.0,0.0,0.0,0.0,0.0,0.0,0.0,0.0,0.0,0.0,0.0,0.0,0.0,0.0,0.0,0.0,0.0,0.0,0.0,0.0,0.0,0.0,0.0,0.0,0.0,0.0,0.0,0.0,0.0,0.0,0.0,0.0,0.0,0.0,0.0,0.0,0.0,0.0,0.0,0.0,0.0,0.0,0.0,0.0,0.0,0.0,0.0,0.0,0.0,0.0,0.0,0.0,0.0,0.0,0.0,0.0,0.0,0.0,0.0,0.0,0.0,0.0,0.0,0.0,0.0,0.0,0.0,0.0,0.0,0.0,0.0,0.0,0.0,0.0,0.0,0.0,-0.151,-0.0976,-0.0437,0.0201,0.0938,0.1705,0.2402,0.0,0.0,0.0,0.0,0.0,0.0,0.0,0.0,0.0,0.0,0.0,0.0,0.0,0.0,0.0,0.0,0.0,0.0,0.0,0.0,0.0,0.0,0.0,0.0,0.0,0.0,0.0,0.0,0.0,0.0,0.0,0.0,0.0,0.0,0.0,0.0,0.0,0.0,0.0,0.0,0.0,0.0,0.0,0.0,0.0,0.0,0.0,0.0,0.0,0.0,0.0,0.0,0.0,0.0,0.0,0.0,0.0,0.0,0.0,0.0,0.0,0.0,0.0,0.0,0.0,0.0,0.0,0.0,0.0,0.0,0.0,0.0,0.0,0.0,0.0,0.0,0.0,0.0,0.0,0.0,0.0,0.0,0.0,0.0,0.0,0.0,0.0,0.0,0.0,0.0,0.0,0.0,0.0,0.0,0.0,0.0,0.0,0.0,0.0,0.0,0.0,0.0,0.0,0.0,0.0,0.0,0.0,0.0,-0.131,-0.0774,-0.0168,0.0503,0.1236,0.1835,0.2438,0.0,0.0,0.0,0.0,0.0,0.0,0.0,0.0,0.0,0.0,0.0,0.0,0.0,0.0,0.0,0.0,0.0,0.0,0.0,0.0,0.0,0.0,0.0,0.0,0.0,0.0,0.0,0.0,0.0,0.0,0.0,0.0,0.0,0.0,0.0,0.0,0.0,0.0,0.0,0.0,0.0,0.0,0.0,0.0,0.0,0.0,0.0,0.0,0.0,0.0,0.0,0.0,0.0,0.0,0.0,0.0,0.0,0.0,0.0,0.0,0.0,0.0,0.0,0.0,0.0,0.0,0.0,0.0,0.0,0.0,0.0,0.0,0.0,0.0,0.0,0.0,0.0,0.0,0.0,0.0,0.0,0.0,0.0,0.0,0.0,0.0,0.0,0.0,0.0,0.0,0.0,0.0,0.0,0.0,0.0,0.0,0.0,0.0,0.0,0.0,0.0,0.0,0.0,0.0,0.0,0.0,0.0,0.0,-0.0941,-0.0403,0.0134,0.0771,0.1507,0.204,0.2636,0.0,0.0,0.0,0.0,0.0,0.0,0.0,0.0,0.0,0.0,0.0,0.0,0.0,0.0,0.0,0.0,0.0,0.0,0.0,0.0,0.0,0.0,0.0,0.0,0.0,0.0,0.0,0.0,0.0,0.0,0.0,0.0,0.0,0.0,0.0,0.0,0.0,0.0,0.0,0.0,0.0,0.0,0.0,0.0,0.0,0.0,0.0,0.0,0.0891,0.0,0.0,0.0,0.0,0.0,0.0,0.0,0.0,0.0,0.0,0.0,0.0,0.0,0.0,0.0,0.0,0.0,0.0,0.0,0.0,0.0,0.0,0.0,0.0,0.0,0.0,0.0,0.0,0.0,0.0,0.0,0.0,0.0,0.0,0.0,0.0,0.0,0.0,0.0,0.0,0.0,0.0,0.0,0.0,0.0,0.0,0.0,0.0,0.0,0.0,0.0,0.0,0.0,0.0,0.0,0.0,0.0,0.0,0.0,-0.0572,-0.0101,0.0469,0.1106,0.1773,0.2441,0.3003,0.0,0.0,0.0,0.0,0.0,0.0,0.0,0.0,0.0,0.0,0.0,0.0,0.0,0.0,0.0,0.0,0.0,0.0,0.0,0.0,0.0,0.0,0.0,0.0,0.0,0.0,0.0,0.0,0.0,0.0,0.0,0.0,0.0,0.0,0.0,0.0,0.0,0.0,0.0,0.0,0.0,0.0,0.0,0.0,0.0,0.0,0.0,0.0,0.0,0.0,0.0,0.0,0.0,0.0,0.0,0.0,0.0,0.0,0.0,0.0,0.0,0.0,0.0,0.0,0.0,0.0,0.0,0.0,0.0,0.0,0.0,0.0,0.0,0.0,0.0,0.0,0.0,0.0,0.0,0.0,0.0,0.0,0.0,0.0,0.0,0.0,0.0,0.0,0.0,0.0,0.0,0.0,0.0,0.0,0.0,0.0,0.0,0.0,0.0,0.0,0.0,0.0,0.0,0.0,0.0,0.0,0.0,-0.0639,-0.0235,0.0202,0.0837,0.1436,0.2068,0.2838,0.3429,0.3839,0.0,0.0,0.0,0.0,0.0,0.0,0.0,0.0,0.0,0.0,0.0,0.0,0.0,0.0,0.0,0.0,0.0,0.0,0.0,0.0,0.0,0.0,0.0,0.0,0.0,0.0,0.0,0.0,0.0,0.0,0.0,0.0,0.0,0.0,0.0,0.0,0.0,0.0,-0.6776,-0.7307,0.0,0.0,0.0,0.0,0.0,0.0,0.0,0.0,0.3213,0.0,0.0,0.0,0.0,0.0,0.0,0.0,0.0,0.0,0.0,0.0,0.0,0.0,0.0,0.0,0.0,0.0,0.0,0.0,0.0,0.0,0.0,0.0,0.0,0.0,0.0,0.0,0.0,0.0,0.0,0.0,0.0,0.0,0.0,0.0,0.0,0.0,0.0,0.0,0.0,0.0,0.0,0.0,0.0,0.0,0.0,0.0,0.0,0.0,0.0,0.0,0.0,0.0,0.0,0.0,0.0,-0.0606,-0.0269,0.0134,0.0572,0.1139,0.174,0.2408,0.3138,0.3853,0.4579,0.0,0.0,0.0,0.0,0.0,0.0,0.0,0.0,0.0,0.0,0.0,0.0,0.0,0.0,0.0,0.0,0.0,0.0,0.0,0.0,0.0,0.0,0.0,0.0,0.0,0.0,0.0,0.0,0.0,0.0,0.0,0.0,0.0,0.0,0.0,0.0,0.0,0.0,0.0,-0.8464,-0.8251,0.0,0.0,0.0,0.0,0.0,0.0,0.0,0.0,0.6776,0.0,0.0,0.0,0.0,0.0,0.0,0.0,0.0,0.0,0.0,0.0,0.0,0.0,0.0,0.0,0.0,0.0,0.0,0.0,0.0,0.0,0.0,0.0,0.0,0.0,0.0,0.0,0.0,0.0,0.0,0.0,0.0,0.0,0.0,0.0,0.0,0.0,0.0,0.0,0.0,0.0,0.0,0.0,0.0,0.0,0.0,0.0,0.0,0.0,0.0,0.0,0.0,0.0,0.0,0.0,-0.0235,0.0067,0.0471,0.0908,0.1442,0.2075,0.2706,0.3458,0.4114,0.0,0.0,0.0,0.0,0.0,0.0,0.0,0.0,0.0,0.0,0.0,0.0,0.0,0.0,0.0,0.0,0.0,0.0,0.0,0.0,0.0,0.0,0.0,0.0,0.0,0.0,0.0,0.0,0.0,0.0,0.0,0.0,0.0,0.0,0.0,0.0,0.0,0.0,0.0,0.0,-0.8691,-0.8261,-0.7753,0.0,0.0,0.0,0.0,0.0,0.0,0.5168,0.7294,0.0,0.0,0.0,0.0,0.0,0.0,0.0,0.0,0.0,0.0,0.0,0.0,0.0,0.0,0.0,0.0,0.0,0.0,0.0,0.0,0.0,0.0,0.0,0.0,0.0,0.0,0.0,0.0,0.0,0.0,0.0,0.0,0.0,0.0,0.0,0.0,0.0,0.0,0.0,0.0,0.0,0.0,0.0,0.0,0.0,0.0,0.0,0.0,0.0,0.0,0.0,0.0,0.0,0.0,0.0,0.0171,0.0479,0.0855,0.1266,0.1789,0.2377,0.2999,0.3784,0.4343,0.0,0.0,0.0,0.0,0.0,0.0,0.0,0.0,0.0,0.0,0.0,0.0,0.0,0.0,0.0,0.0,0.0,0.0,0.0,0.0,0.0,0.0,0.0,0.0,0.0,0.0,0.0,0.0,0.0,0.0,0.0,0.0,0.0,0.0,0.0,0.0,0.0,0.0,0.0,0.0,0.0,-0.8119,-0.7547,-0.6694,0.0,0.0,0.0,0.0,0.3011,0.5297,0.0,0.0,0.0,0.0,0.0,0.0,0.0,0.0,0.0,0.0,0.0,0.0,0.0,0.0,0.0,0.0,0.0,0.0,0.0,0.0,0.0,0.0,0.0,0.0,0.0,0.0,0.0,0.0,0.0,0.0,0.0,0.0,0.0,0.0,0.0,0.0,0.0,0.0,0.0,0.0,0.0,0.0,0.0,0.0,0.0,0.0,0.0,0.0,0.0,0.0,0.0,0.0,0.0,0.0,0.0,0.0,0.0614,0.094,0.1337,0.1801,0.2162,0.2702,0.3397,0.4113,0.4592,0.0,0.0,0.0,0.0,0.0,0.0,0.0,0.0,0.0,0.0,0.0,0.0,0.0,0.0,0.0,0.0,0.0,0.0,0.0,0.0,0.0,0.0,0.0,0.0,0.0,0.0,0.0,0.0,0.0,0.0,0.0,0.0,0.0,0.0,0.0,0.0,0.0,0.0,0.0,0.0,0.0,-0.794,-0.7411,-0.6474,-0.5328,0.0,0.0,0.0525,0.3018,0.5255,0.0,0.0,0.0,0.0,0.0,0.0,0.0,0.0,0.0,0.0,0.0,0.0,0.0,0.0,0.0,0.0,0.0,0.0,0.0,0.0,0.0,0.0,0.0,0.0,0.0,0.0,0.0,0.0,0.0,0.0,0.0,0.0,0.0,0.0,0.0,0.0,0.0,0.0,0.0,0.0,0.0,0.0,0.0,0.0,0.0,0.0,0.0,0.0,0.0,0.0,0.0,0.0,0.0,0.0,0.0,0.0924,0.1062,0.1443,0.1836,0.2252,0.2688,0.3196,0.3816,0.432,0.4694,0.0,0.0,0.0,0.0,0.0,0.0,0.0,0.0,0.0,0.0,0.0,0.0,0.0,0.0,0.0,0.0,0.0,0.0,0.0,0.0,0.0,0.0,0.0,0.0,0.0,0.0,0.0,0.0,0.0,0.0,0.0,0.0,0.0,0.0,0.0,0.0,0.0,0.0,0.0,0.0,0.0,0.0,-0.7089,-0.6217,0.0,0.0,0.0,0.0548,0.2919,0.0,0.0,0.0,0.0,0.0,0.0,0.0,0.0,0.0,0.0,0.0,0.0,0.0,0.0,0.0,0.0,0.0,0.0,0.0,0.0,0.0,0.0,0.0,0.0,0.0,0.0,0.0,0.0,0.0,0.0,0.0,0.0,0.0,0.0,0.0,0.0,0.0,0.0,0.0,0.0,0.0,0.0,0.0,0.0,0.0,0.0,0.0,0.0,0.0,0.0,0.0,0.0,0.0,0.0,0.0,0.0,0.0,0.155,0.1992,0.241,0.2738,0.3265,0.3784,0.4296,0.4635,0.0,0.0,0.0,0.0,0.0,0.0,0.0,0.0,0.0,0.0,0.0,0.0,0.0,0.0,0.0,0.0,0.0,0.0,0.0,0.0,0.0,0.0,0.0,0.0,0.0,0.0,0.0,0.0,0.0,0.0,0.0,0.0,0.0,0.0,0.0,0.0,0.0,0.0,0.0,0.0,0.0,0.0,-0.7381,-0.6691,-0.5841,-0.4781,0.0,0.0,0.0576,0.2906,0.5062,0.7006,0.0,0.0,0.0,0.0,0.0,0.0,0.0,0.0,0.0,0.0,0.0,0.0,0.0,0.0,0.0,0.0,0.0,0.0,0.0,0.0,0.0,0.0,0.0,0.0,0.0,0.0,0.0,0.0,0.0,0.0,0.0,0.0,0.0,0.0,0.0,0.0,0.0,0.0,0.0,0.0,0.0,0.0,0.0,0.0,0.0,0.0,0.0,0.0,0.0,0.0,0.0,0.0,0.0,0.0,0.0,0.2245,0.2622,0.3008,0.333,0.3836,0.44,0.4941,0.5201,0.5444,0.0,0.0,0.0,0.0,0.0,0.0,0.0,0.0,0.0,0.0,0.0,0.0,0.0,0.0,0.0,0.0,0.0,0.0,0.0,0.0,0.0,0.0,0.0,0.0,0.0,0.0,0.0,0.0,0.0,0.0,0.0,0.0,0.0,0.0,0.0,0.0,0.0,0.0,0.0,0.0,0.0,-0.6881,-0.6153,-0.5301,-0.4254,0.0,0.0,0.0788,0.3033,0.507,0.6899,0.8365,0.0,0.0,0.0,0.0,0.0,0.0,0.0,0.0,0.0,0.0,0.0,0.0,0.0,0.0,0.0,0.0,0.0,0.0,0.0,0.0,0.0,0.0,0.0,0.0,0.0,0.0,0.0,0.0,0.0,0.0,0.0,0.0,0.0,0.0,0.0,0.0,0.0,0.0,0.0,0.0,0.0,0.0,0.0,0.0,0.0,0.0,0.0,0.0,0.0,0.0,0.0,0.0,0.0,0.2589,0.2829,0.3311,0.3652,0.397,0.4544,0.5138,0.5674,0.5692,0.594,0.0,0.0,0.0,0.0,0.0,0.0,0.0,0.0,0.0,0.0,0.0,0.0,0.0,0.0,0.0,0.0,0.0,0.0,0.0,0.0,0.0,0.0,0.0,0.0,0.0,0.0,0.0,0.0,-0.8465,-0.9224,-0.9184,0.0,0.0,0.0,0.0,0.0,0.0,0.0,0.0,0.0,0.0,-0.621,-0.5475,-0.4713,0.0,0.0,-0.0771,0.1004,0.3194,0.5095,0.6827,0.8297,0.9098,0.0,0.0,0.0,0.0,0.0,0.0,0.0,0.0,0.0,0.0,0.0,0.0,0.0,0.0,0.0,0.0,0.0,0.0,0.0,0.0,0.0,0.0,0.0,0.0,0.0,0.0,0.0,0.0,0.0,0.0,0.0,0.0,0.0,0.0,0.0,0.0,0.0,0.0,0.0,0.0,0.0,0.0,0.0,0.0,0.0,0.0,0.0,0.0,0.0,0.0,0.0,0.0,0.3213,0.3473,0.3965,0.4345,0.4532,0.53,0.5958,0.6416,0.6345,0.6619,0.0,0.0,0.0,0.0,0.0,0.0,0.0,0.0,0.0,0.0,0.0,0.0,0.0,0.0,0.0,0.0,0.0,0.0,0.0,0.0,0.0,0.0,0.0,0.0,0.0,0.0,0.0,0.0,-0.8598,-0.9123,-0.9024,0.0,0.0,0.0,0.0,0.0,0.0,0.0,0.0,0.0,0.0,-0.5205,-0.4498,-0.3842,-0.2936,-0.1637,-0.0275,0.1327,0.3325,0.5135,0.6778,0.8149,0.0,0.0,0.0,0.0,0.0,0.0,0.0,0.0,0.0,0.0,0.0,0.0,0.0,0.0,0.0,0.0,0.0,0.0,0.0,0.0,0.0,0.0,0.0,0.0,0.0,0.0,0.0,0.0,0.0,0.0,0.0,0.0,0.0,0.0,0.0,0.0,0.0,0.0,0.0,0.0,0.0,0.0,0.0,0.0,0.0,0.0,0.0,0.0,0.0,0.0,0.0,0.0,0.0,0.3634,0.4089,0.4657,0.5007,0.5114,0.6076,0.6802,0.726,0.723,0.7556,0.8339,0.0,0.0,0.0,0.0,0.0,0.0,0.0,0.0,0.0,0.0,0.0,0.0,0.0,0.0,0.0,0.0,0.0,0.0,0.0,0.0,0.0,0.0,0.0,0.0,0.0,0.0,-0.7669,-0.8552,-0.9018,0.0,0.0,0.0,0.0,0.0,0.0,0.0,0.0,0.0,0.0,-0.4664,-0.3803,-0.3144,-0.2651,-0.1934,-0.081,0.0348,0.1696,0.3439,0.5166,0.6705,0.0,0.0,0.0,0.0,0.0,0.0,0.0,0.0,0.0,0.0,0.0,0.0,0.0,0.0,0.0,0.0,0.0,0.0,0.0,0.0,0.0,0.0,0.0,0.0,0.0,0.0,0.0,0.5937,0.6048,0.0,0.0,0.0,0.0,0.0,0.0,0.0,0.0,0.0,0.0,0.0,0.6689,0.6678,0.0,0.0,0.0,0.0,0.0,0.0,0.0,0.0,0.0,0.0,0.0,0.0,0.4341,0.47,0.5265,0.5592,0.5788,0.6752,0.7571,0.8206,0.8689,0.9095,0.9454,0.0,0.0,0.0,0.0,0.0,0.0,0.0,0.0,0.0,0.0,0.0,0.0,0.0,0.0,0.0,0.0,0.0,0.0,0.0,0.0,0.0,0.0,0.0,0.0,0.0,-0.7211,0.0,0.0,0.0,0.0,0.0,0.0,0.0,0.0,0.0,0.0,0.0,-0.5362,-0.4489,-0.3692,-0.2961,-0.2302,-0.1674,-0.0936,0.0,0.0,0.0,0.0,0.0,0.0,0.0,0.0,0.0,0.0,0.0,0.0,0.0,0.0,0.5709,0.5308,0.4864,0.4443,0.4029,0.0,0.0,0.0,0.0,0.0,0.0,0.0,0.0,0.0,0.0,0.0,0.0,0.0,0.0,0.0,0.0,0.6582,0.0,0.0,0.0,0.0,0.0,0.0,0.0,0.0,0.7159,0.7335,0.7436,0.7444,0.7346,0.0,0.7032,0.6499,0.0,0.0,0.0,0.0,0.0,0.0,0.0,0.0,0.4971,0.5313,0.583,0.6249,0.6614,0.746,0.8367,0.9228,0.9875,1.0255,1.0281,0.9445,0.8879,0.0,0.0,0.0,0.0,0.0,0.0,0.0,0.0,0.0,0.0,0.0,0.0,0.0,0.0,0.0,0.0,0.0,0.0,0.0,0.0,0.0,0.0,0.0,-0.7742,0.0,0.0,0.0,0.0,0.0,0.0,0.0,0.0,0.0,-0.5777,-0.5151,-0.4361,-0.3356,-0.2553,-0.1839,-0.126,0.0,0.0,0.0,0.0,0.0,0.0,0.0,0.6218,0.7114,0.7548,0.7778,0.7749,0.717,0.6575,0.6106,0.0,0.0,0.5098,0.4755,0.4362,0.4022,0.3765,0.3528,0.3272,0.3138,0.3025,0.0,0.0,0.0,0.0,0.0,0.0,0.0,0.0,0.6963,0.7139,0.0,0.7405,0.0,0.0,0.0,0.0,0.0,0.0,0.0,0.0,0.8233,0.8443,0.8414,0.8288,0.8187,0.8099,0.7674,0.73,0.6985,0.6252,0.0,0.0,0.0,0.0,0.0,0.0,0.5496,0.5836,0.6428,0.6956,0.7502,0.822,0.9171,1.0334,1.0784,1.0946,1.083,0.9925,0.932,0.9109,0.8674,0.0,0.0,0.0,0.0,0.0,0.0,0.0,0.0,0.0,0.0,0.0,0.0,0.0,0.0,0.0,0.0,0.0,0.0,0.0,0.0,-0.7812,0.0,0.0,0.0,0.0,0.0,0.0,0.0,0.0,0.0,0.0,-0.4953,-0.4084,-0.3106,-0.2164,0.0,0.0,0.0,0.0,0.09,0.1624,0.236,0.3162,0.4143,0.5077,0.5942,0.6641,0.0,0.0,0.6733,0.6409,0.6017,0.5563,0.5213,0.4942,0.4803,0.4524,0.4232,0.3952,0.3765,0.3535,0.3336,0.3251,0.3159,0.8342,0.0,0.0,0.0,0.0,0.7346,0.7577,0.7898,0.799,0.8127,0.8347,0.8392,0.0,0.0,0.0,0.0,0.0,0.0,0.8171,0.8388,0.8724,0.8911,0.8904,0.9028,0.9073,0.8929,0.8555,0.8222,0.7903,0.7334,0.6677,0.5996,0.0,0.0,0.0,0.0,0.597,0.6307,0.6901,0.7373,0.7779,0.8538,0.9881,1.1816,1.1479,1.1459,1.1842,1.0467,0.9586,0.9408,0.9072,0.0,0.0,0.0,0.0,0.0,0.0,0.0,0.0,0.0,0.0,0.0,0.0,0.0,0.0,0.0,0.0,0.0,0.0,0.0,-0.6963,-0.7696,-0.8032,0.0,0.0,0.0,0.0,0.0,0.0,0.0,0.0,0.0,-0.2865,-0.2578,-0.2062,0.0,0.0,0.0493,0.0999,0.1377,0.1811,0.2388,0.0,0.0,0.0,0.4894,0.5502,0.6018,0.631,0.6387,0.6106,0.5782,0.5459,0.5127,0.4844,0.4587,0.4403,0.433,0.4207,0.3973,0.3814,0.3696,0.3485,0.3351,0.326,0.9554,0.884,0.838,0.816,0.8112,0.82,0.8388,0.8677,0.8724,0.8857,0.909,0.909,0.8989,0.8803,0.8764,0.0,0.0,0.0,0.903,0.9246,0.9642,0.9827,0.9819,0.9912,0.9941,0.9831,0.9481,0.9105,0.8663,0.8276,0.7722,0.6965,0.0,0.0,0.627,0.6319,0.6526,0.6859,0.7328,0.7847,0.8423,0.9494,1.0937,1.2705,1.2201,1.1983,1.2184,1.0944,0.9985,0.9484,0.9277,0.9049,0.0,0.0,0.0,0.0,0.0,0.0,0.0,0.0,0.0,0.0,0.0,0.2927,0.0,0.0,0.0,0.0,-0.4572,-0.5773,-0.6584,-0.6837,0.0,0.0,0.0,0.0,0.0,0.0,0.0,-0.2535,-0.2947,-0.2757,-0.1258,-0.0929,-0.0573,0.0151,0.0724,0.1257,0.1722,0.0,0.2522,0.2925,0.33,0.3709,0.4224,0.4726,0.5146,0.5523,0.572,0.5738,0.5488,0.5242,0.4991,0.4726,0.4515,0.4321,0.4104,0.4112,0.4112,0.3918,0.3772,0.3668,0.3506,0.3387,0.3345,1.0597,1.0498,0.9607,0.9021,0.8805,0.8885,0.908,0.9268,0.9408,0.9493,0.9632,0.9632,0.9548,0.9455,0.9392,0.0,0.0,0.9831,1.0053,1.03,1.0769,1.0972,1.0947,1.0851,1.0824,1.0807,1.0406,0.9956,0.9475,0.9175,0.8757,0.8108,0.7384,0.6943,0.6816,0.6865,0.7125,0.7454,0.7787,0.839,0.9275,1.0728,1.2043,1.3209,1.2806,1.2409,1.2064,1.1329,1.0435,0.9463,0.9346,0.9258,0.9132,0.0,0.0,0.0,0.0,0.0,0.0,0.0,0.0,0.0,0.0,0.0,0.0,0.0,0.0,0.0,-0.4812,0.0,-0.5641,-0.551,0.0,0.0,0.0,-0.694,-0.6575,-0.3984,-0.188,-0.1014,0.0,0.0,0.0,0.0,0.1239,0.1106,0.15,0.1911,0.2247,0.2697,0.305,0.332,0.3666,0.3994,0.4252,0.4575,0.4853,0.5117,0.5204,0.5146,0.4912,0.4745,0.4575,0.4333,0.4219,0.4097,0.3931,0.3911,0.3869,0.38,0.3689,0.3549,0.3429,0.3415,0.3366,1.1283,1.1116,1.0965,1.0631,1.0216,1.0266,1.0408,1.0607,1.0656,1.0755,1.0854,1.0854,1.0805,1.0665,1.0565,1.0606,1.0731,1.0789,1.0889,1.1065,1.1368,1.1528,1.1519,1.167,1.1773,1.1746,1.1357,1.1075,1.0773,1.0022,0.9521,0.9266,0.8484,0.7904,0.7461,0.7405,0.753,0.7855,0.8193,0.8893,0.994,1.0775,1.1709,1.2792,1.254,1.2223,1.1875,1.1199,1.0417,0.9544,0.9419,0.9397,0.9415,0.9142,0.0,0.0,0.0,0.0,0.0,0.0,0.0,0.0,0.0,0.4574,0.3068,0.0,-0.098,0.0,-0.3996,-0.496,-0.486,-0.4742,0.0,0.0,-0.5308,-0.5738,-0.5285,-0.2486,-0.0263,0.0485,0.0197,0.0259,0.1084,0.2109,0.2746,0.2674,0.2618,0.2724,0.3068,0.334,0.357,0.3786,0.39,0.4042,0.4277,0.4435,0.4624,0.4802,0.4744,0.4655,0.4535,0.4403,0.424,0.4104,0.4014,0.3939,0.3863,0.3793,0.3723,0.3661,0.3619,0.357,0.3499,0.3436,0.3387,1.1913,1.1815,1.179,1.1628,1.1368,1.1276,1.1326,1.1477,1.1528,1.1578,1.1669,1.1678,1.1619,1.1528,1.1477,1.1477,1.1528,1.1578,1.1569,1.1678,1.1927,1.2076,1.2076,1.2332,1.2421,1.2471,1.2234,1.1969,1.1621,1.1093,1.0513,0.9956,0.9517,0.9005,0.8439,0.8103,0.8054,0.8308,0.8805,0.9536,1.0474,1.0772,1.1512,1.2682,1.2607,1.2423,1.2248,1.1618,1.0929,1.0131,0.9761,0.9598,0.962,0.9488,0.9276,0.0,0.0,0.0,0.0,0.0,0.0,0.0,0.0,0.0,0.0,0.0,0.0145,0.0,0.0,0.0,-0.3674,-0.3225,-0.2895,-0.2795,-0.311,-0.3407,-0.3636,-0.1114,0.097,0.176,0.1468,0.1422,0.2108,0.2826,0.3357,0.3431,0.3452,0.3479,0.3591,0.3765,0.3931,0.4071,0.4084,0.4133,0.4285,0.4358,0.4423,0.45,0.4431,0.4333,0.4281,0.4158,0.4042,0.396,0.3931,0.389,0.3821,0.3787,0.3717,0.3668,0.3619,0.3577,0.3527,0.3485,0.3436,1.2659,1.2574,1.2347,1.233,1.2372,1.2166,1.2017,1.1977,1.2085,1.2175,1.2175,1.2175,1.2175,1.2175,1.2175,1.2175,1.2224,1.2224,1.2224,1.2234,1.2471,1.2569,1.2618,1.2871,1.2968,1.2978,1.2978,1.2762,1.2295,1.2227,1.1608,1.0587,1.0429,1.0063,0.9448,0.8999,0.8756,0.8837,0.9466,1.0137,1.0905,1.0822,1.1395,1.2607,1.2775,1.2792,1.2716,1.23,1.1667,1.0863,1.0283,0.9933,0.9831,0.9823,0.9719,0.0,0.9268,0.0,0.0,0.0,0.0,0.0,0.0,0.0,0.0,0.4144,0.1415,-0.2185,-0.2227,-0.2091,-0.2095,-0.135,-0.0923,-0.1008,-0.0656,-0.0815,-0.1737,0.0218,0.2029,0.2832,0.2521,0.2452,0.2938,0.3247,0.3521,0.3792,0.3986,0.4027,0.3994,0.4048,0.4158,0.4207,0.4207,0.4207,0.4256,0.4285,0.4285,0.4285,0.4228,0.4166,0.4097,0.3986,0.3911,0.3911,0.3911,0.389,0.3821,0.3808,0.3787,0.3717,0.364,0.3598,0.3541,0.3506,0.3506,1.3549,1.3138,1.3215,1.3084,1.2861,1.2939,1.2745,1.2372,1.2431,1.248,1.2578,1.2588,1.2627,1.2725,1.2774,1.2774,1.2735,1.2774,1.2783,1.2735,1.2939,1.3074,1.3074,1.3334,1.3478,1.3478,1.3488,1.3437,1.3287,1.2884,1.2347,1.1727,1.1209,1.0684,1.0205,0.0,0.0,0.0,0.9892,1.0351,1.096,1.1158,1.1565,1.214,1.2746,0.0,1.2359,1.267,1.2276,1.1064,1.0949,0.0,0.0,0.0,0.0,0.0,0.0,0.0,0.0,0.0,0.0,0.0,0.8644,0.787,0.641,0.3703,0.1253,-0.0567,-0.0536,-0.0248,0.0083,0.0194,0.0334,0.0474,0.0649,0.0534,0.0044,0.166,0.305,0.3465,0.3319,0.3271,0.3556,0.3813,0.4007,0.4166,0.424,0.4273,0.4281,0.4273,0.4281,0.4268,0.4236,0.4207,0.4207,0.4207,0.4236,0.4207,0.4158,0.4097,0.4042,0.396,0.3911,0.3911,0.3911,0.389,0.3821,0.3815,0.378,0.3717,0.3689,0.3668,0.3598,0.3541,0.3506,1.4311,0.0,1.4064,1.382,0.0,1.3599,1.338,1.2949,1.29,1.29,1.2949,1.2949,1.2997,1.3045,1.3104,1.3152,1.3152,1.321,1.3248,1.3248,1.3478,1.3621,1.3621,1.3858,1.3999,1.3999,1.3999,1.3999,1.3978,1.3708,1.3302,1.2805,1.2215,1.1675,1.1151,1.0943,1.0639,1.0225,1.0428,1.0725,1.1223,1.141,1.1761,1.2324,0.0,0.0,0.0,0.0,0.0,0.0,0.0,0.0,0.0,0.0,0.0,1.0446,0.9849,0.9398,0.9166,0.9002,0.8811,0.8605,0.8107,0.7346,0.6235,0.4335,0.2683,0.1557,0.1323,0.1379,0.1692,0.1587,0.153,0.1682,0.1811,0.1753,0.1608,0.2538,0.3473,0.3883,0.382,0.3792,0.4022,0.4145,0.4228,0.4338,0.435,0.4362,0.4423,0.4354,0.4301,0.4305,0.4285,0.4236,0.4207,0.4207,0.4207,0.4207,0.4158,0.4097,0.4055,0.3973,0.3911,0.3911,0.3911,0.389,0.3877,0.3856,0.3835,0.3814,0.3772,0.3738,0.371,0.3647,0.359,1.5031,1.5099,1.4891,1.4572,1.4155,1.4256,1.4101,1.3731,0.0,0.0,0.0,1.3314,1.3314,1.3372,1.3505,1.3552,1.3563,1.3658,1.3716,1.3763,1.401,1.4104,1.4161,1.4373,1.4512,1.4512,1.4512,1.4512,1.4512,1.4512,1.4213,1.3685,1.3302,1.2789,1.2171,1.1708,1.1319,1.1057,1.1019,1.1217,1.1579,1.1652,1.1983,1.2659,1.2649,1.2993,1.37,1.3211,1.3073,1.3437,1.2969,1.2655,1.2549,1.1885,1.1412,1.1211,1.0226,0.9501,0.9164,0.8756,0.8368,0.7994,0.7227,0.6521,0.5911,0.5139,0.4294,0.3452,0.2943,0.273,0.2939,0.2767,0.2666,0.2725,0.2826,0.2847,0.2751,0.3193,0.3764,0.4224,0.4179,0.4125,0.4277,0.4317,0.4358,0.4411,0.4423,0.4443,0.4475,0.4394,0.4301,0.4305,0.4285,0.4256,0.4236,0.4207,0.4207,0.4207,0.4158,0.4109,0.4068,0.4007,0.3931,0.3931,0.3911,0.3911,0.3911,0.389,0.3911,0.3911,0.3856,0.3821,0.3821,0.3772,0.3731,1.5705,1.5625,1.5564,1.5414,1.5183,1.5194,1.5203,1.5035,1.4,1.3621,1.3716,1.3726,1.3763,1.3868,1.4035,1.4071,1.4071,1.4222,1.428,0.0,1.4523,1.4616,1.4605,1.488,1.5017,1.5017,1.5017,1.5017,1.5017,1.5017,1.4811,1.4494,1.4378,1.39,1.3062,1.2526,1.2258,1.2246,1.1763,1.1653,1.1993,1.2283,1.2472,1.2539,1.322,1.3726,1.3953,1.3955,1.3903,1.3743,1.3508,1.3108,1.2556,1.2355,1.2117,1.1764,1.074,0.9862,0.9359,0.8415,0.7528,0.6825,0.641,0.6088,0.5826,0.5237,0.4637,0.4089,0.3772,0.3598,0.3598,0.3528,0.3515,0.3577,0.3612,0.3626,0.3521,0.382,0.4171,0.4435,0.4403,0.433,0.4391,0.4423,0.4455,0.4475,0.4475,0.4495,0.4475,0.4386,0.4321,0.4297,0.4236,0.4207,0.4215,0.4207,0.4207,0.4207,0.4207,0.4179,0.413,0.4097,0.4055,0.4001,0.4001,0.4001,0.398,0.3931,0.3931,0.3911,0.389,0.389,0.3897,0.3884,0.385,1.6296,1.6287,1.6276,1.6157,1.5902,1.5832,1.5815,1.5822,1.5334,1.4952,1.4853,1.4913,1.4963,1.499,1.4875,1.4851,1.4898,1.4716,1.4888,1.5229,1.5463,1.5706,1.5995,1.6303,1.6397,1.6374,1.6148,1.6017,1.5994,1.579,1.5616,1.5464,1.5272,1.4797,1.4108,1.3607,1.3384,1.3408,1.2579,1.227,1.2544,1.2814,1.3069,1.3259,1.3585,1.3955,1.4317,1.4421,1.4577,1.4814,1.463,1.4459,1.4337,1.3573,1.2972,1.259,1.1391,1.0408,0.9764,0.8516,0.7547,0.693,0.6645,0.6275,0.5775,0.5284,0.4863,0.4495,0.4333,0.4179,0.4097,0.4117,0.413,0.4138,0.4171,0.4142,0.4068,0.4211,0.4394,0.4495,0.4475,0.4455,0.4443,0.4475,0.4478,0.4478,0.4478,0.4495,0.4443,0.4403,0.4342,0.4301,0.426,0.4268,0.4256,0.426,0.426,0.4252,0.426,0.4252,0.426,0.426,0.4191,0.4179,0.4166,0.4133,0.4133,0.4055,0.4007,0.4014,0.398,0.398,0.3967,0.4152,0.4198,1.6807,1.6931,1.692,1.6806,1.6634,1.6558,1.6569,1.6701,1.6763,1.6598,1.6358,1.6118,1.6069,1.6025,1.5807,1.5736,1.5788,1.5566,1.5741,1.6243,1.6551,1.6872,1.7278,1.7545,1.769,1.7653,1.7309,1.7097,1.6938,1.6646,1.6504,1.6398,1.6011,1.5627,1.5209,1.4798,1.4624,1.4585,1.3717,1.3169,1.3069,1.3353,1.3622,1.398,1.3994,1.424,1.4752,1.4841,1.5141,1.5731,1.5657,1.5751,1.6047,1.4914,1.4087,1.3676,1.2292,1.0939,0.9855,0.8665,0.7755,0.728,0.6965,0.6525,0.5922,0.554,0.5161,0.48,0.4644,0.4573,0.4472,0.4504,0.4544,0.4472,0.4504,0.4495,0.4414,0.4483,0.4527,0.4507,0.4478,0.4486,0.4478,0.4478,0.4478,0.4478,0.4478,0.4475,0.4423,0.4411,0.437,0.4342,0.4313,0.4301,0.4297,0.4321,0.4342,0.4313,0.4354,0.4394,0.4443,0.4423,0.4414,0.4423,0.4431,0.4399,0.433,0.4268,0.428,0.4332,0.4345,0.4281,0.4451,0.4701,0.4774,1.7088,1.7267,1.7368,1.7556,1.7709,1.7707,1.7781,1.7912,1.8097,1.8282,1.8172,1.6985,1.6558,1.6662,1.6738,1.6802,1.6926,1.7037,1.7122,1.7376,1.7616,1.7797,1.7895,1.8049,1.8154,1.8191,1.8197,1.8025,1.7574,1.753,1.738,1.7102,1.6651,1.6481,1.6452,1.6046,1.5897,1.6005,1.542,1.4647,1.3721,1.3901,1.413,1.4351,1.4693,1.5048,1.5389,1.5373,1.5551,1.6,1.6115,1.6342,1.6667,1.616,1.5683,1.5413,1.3579,1.1534,0.9438,0.8549,0.8,0.7429,0.7066,0.6687,0.6305,0.6141,0.5721,0.5061,0.4778,0.4753,0.4671,0.4708,0.4708,0.4671,0.4662,0.4682,0.4642,0.4633,0.4555,0.4507,0.4478,0.4478,0.4478,0.4478,0.4478,0.4478,0.4478,0.4495,0.4495,0.4463,0.4423,0.4382,0.4362,0.4313,0.4321,0.437,0.4423,0.4431,0.4492,0.4613,0.4693,0.4704,0.4695,0.4964,0.4858,0.4847,0.4805,0.4622,0.4737,0.5006,0.5012,0.498,0.5403,0.5614,0.5531,1.7534,1.7634,1.7744,1.7909,1.8193,1.8356,1.8464,1.8518,1.8679,1.8893,1.9004,1.8478,1.8144,1.8057,1.7823,1.7781,1.7956,1.7751,1.7922,1.8387,1.8656,1.8929,1.9269,1.9515,1.9662,1.972,1.9577,1.9396,1.9159,1.8671,1.8334,1.8192,1.784,1.771,1.7747,1.733,1.7169,1.7248,1.6772,1.6317,1.5811,1.4985,1.4592,1.4797,1.5134,1.5477,1.5782,1.5953,1.6282,1.6691,1.6652,1.6814,1.7343,1.6924,1.6652,1.6542,1.4803,1.2865,1.0879,1.0052,0.9326,0.8617,0.8146,0.7582,0.6965,0.6797,0.6409,0.5759,0.5511,0.5375,0.515,0.5117,0.5035,0.4816,0.4762,0.4762,0.4753,0.4702,0.4604,0.4507,0.4478,0.4478,0.4478,0.4478,0.4478,0.4478,0.4478,0.4507,0.4535,0.4524,0.4544,0.4555,0.4555,0.4486,0.4446,0.4544,0.4624,0.4695,0.4814,0.4941,0.5127,0.5146,0.5293,0.5694,0.5756,0.5858,0.61,0.5904,0.5889,0.5979,0.5914,0.5959,0.6496,0.6607,0.6683,1.792,1.8018,1.8127,1.8356,1.8614,1.8839,1.9011,1.9052,1.9146,1.9356,1.9577,1.9629,1.9512,1.9347,1.8888,1.878,1.897,1.8659,1.8832,1.9431,1.9703,2.0034,2.0409,2.0723,2.0908,2.0988,2.0772,2.0704,2.063,1.986,1.9475,1.9474,1.9313,1.9159,1.9037,1.878,1.86,1.8461,1.7993,1.7818,1.7688,1.6518,1.5705,1.5591,1.564,1.5811,1.608,1.6421,1.6747,1.7175,1.712,1.7335,1.7882,1.758,1.735,1.7168,1.5945,1.4396,1.2724,1.1791,1.0837,0.983,0.9189,0.8492,0.7823,0.7481,0.7163,0.6716,0.6529,0.6256,0.5653,0.557,0.5433,0.5156,0.5068,0.494,0.4811,0.4742,0.4633,0.4507,0.4478,0.4478,0.4486,0.4507,0.4527,0.4527,0.4555,0.4567,0.4615,0.4673,0.4751,0.4931,0.502,0.4933,0.4731,0.4783,0.494,0.5273,0.5452,0.5743,0.5992,0.6184,0.6359,0.7003,0.6976,0.6982,0.7122,0.7113,0.71,0.7063,0.7069,0.7189,0.7634,0.7834,0.8214,1.8367,1.8422,1.8691,1.8934,1.9174,1.9316,1.946,1.9565,1.9695,1.9875,1.9978,2.0131,2.022,2.0321,1.9889,1.9863,2.0067,2.0041,2.018,2.0468,2.0756,2.0944,2.0997,2.1361,2.1568,2.1589,2.1771,2.1713,2.1464,2.0984,2.0808,2.1,2.0925,2.0753,2.0448,2.0467,2.028,1.9743,1.9258,1.9043,1.9115,1.85,1.7654,1.691,1.6359,1.625,1.6344,1.6623,1.6917,1.7191,1.7592,1.8038,1.8449,1.8225,1.7854,1.7285,1.6891,1.602,1.4544,1.3501,1.2341,1.081,0.9869,0.915,0.8607,0.8238,0.7947,0.7742,0.7596,0.7164,0.6291,0.6083,0.5963,0.5872,0.5602,0.5242,0.482,0.4818,0.4644,0.4607,0.463,0.4665,0.4596,0.4555,0.4683,0.4712,0.472,0.4818,0.4942,0.4957,0.5238,0.5623,0.5819,0.5752,0.5204,0.5362,0.5654,0.6054,0.6567,0.6895,0.7485,0.7995,0.8169,0.8347,0.8368,0.8353,0.8249,0.8196,0.8215,0.8273,0.8547,0.8756,0.9244,0.9571,0.9956,1.8786,1.9064,1.9263,1.9396,1.9592,1.9823,1.9926,2.0029,2.0207,2.0396,2.051,2.0636,2.0785,2.0921,2.0871,2.0772,2.0736,2.0736,2.0885,2.1118,2.1361,2.1506,2.1568,2.1935,2.2184,2.2278,2.2434,2.2593,2.2615,2.223,2.2031,2.2066,2.1949,2.1796,2.1728,2.1848,2.1641,2.1113,2.0871,2.0675,2.0368,1.9844,1.9381,1.9037,1.7858,1.7286,1.7449,1.7226,1.7191,1.7432,1.7777,1.8149,1.8572,1.8933,1.8821,1.8189,1.8018,1.7342,1.6015,1.4734,1.3519,1.2299,1.0912,0.9982,0.9365,0.8973,0.8657,0.8523,0.8393,0.807,0.7623,0.7028,0.6534,0.6278,0.6074,0.568,0.5101,0.5105,0.5334,0.5356,0.54,0.5432,0.5433,0.5501,0.5593,0.5662,0.5812,0.5931,0.6084,0.6205,0.6422,0.6759,0.6992,0.71,0.7131,0.68,0.6846,0.7288,0.7702,0.8131,0.8657,0.915,0.9388,1.0054,1.0068,1.0122,1.0129,0.9954,0.9886,1.0095,1.031,1.0503,1.1062,1.1383,1.1722,1.9368,1.9617,1.9784,1.9914,2.0055,2.0308,2.0422,2.0485,2.0673,2.0858,2.1006,2.118,2.1313,2.1423,2.1602,2.1664,2.152,2.1361,2.1423,2.1712,2.1949,2.2077,2.2217,2.2509,2.2768,2.2963,2.3157,2.3377,2.358,2.3387,2.334,2.3386,2.3219,2.307,2.3026,2.3128,2.2961,2.246,2.2191,2.1906,2.1584,2.1059,2.0819,2.0668,1.9584,1.8779,1.8647,1.8268,1.8218,1.8451,1.8677,1.9013,1.9483,1.9767,1.9782,1.941,1.9175,1.8572,1.7432,1.6262,1.5132,1.398,1.2676,1.1566,1.0933,1.0454,1.0131,0.9936,0.9793,0.9709,0.9482,0.8962,0.8084,0.7214,0.6805,0.6411,0.5769,0.5727,0.5994,0.6349,0.621,0.6142,0.6215,0.6294,0.6387,0.6547,0.6742,0.6944,0.712,0.7338,0.7611,0.7979,0.8217,0.8733,0.9249,0.9438,0.8804,0.902,0.9295,0.9628,1.0225,1.0591,1.1028,1.1655,1.1954,1.2043,1.197,1.1806,1.1879,1.2108,1.2102,1.2197,1.2694,1.314,1.344,2.0016,2.0335,2.0258,2.0501,2.078,2.098,2.0938,2.1179,2.1301,2.1515,2.1703,2.1822,2.2014,2.2013,2.2456,2.2577,2.2648,2.2348,2.223,2.247,2.2626,2.2838,2.3078,2.3392,2.3659,2.3891,2.4028,2.4239,2.4471,2.456,2.467,2.4863,2.4776,2.4573,2.4406,2.443,2.4213,2.3667,2.3162,2.288,2.2824,2.2222,2.194,2.2029,2.141,2.0692,1.9853,1.9858,1.9874,2.0047,2.025,2.0705,2.0942,2.0764,2.0634,2.079,2.045,1.9713,1.8854,1.8217,1.7151,1.5791,1.4805,1.3879,1.3163,1.2661,1.2306,1.2089,1.1991,1.1902,1.1791,1.1528,1.0501,0.8635,0.7881,0.7552,0.7241,0.6608,0.6458,0.7344,0.7127,0.6626,0.6673,0.6969,0.7226,0.7473,0.7701,0.8016,0.8367,0.867,0.8717,0.924,0.9926,1.0671,1.1513,1.2172,1.14,1.0857,1.1076,1.1407,1.2427,1.3002,1.3352,1.387,1.3933,1.3994,1.369,1.3568,1.3652,1.3803,1.3831,1.3909,1.4374,1.4837,1.5077,2.1772,2.2049,2.2049,2.2206,2.2452,2.2709,2.2811,2.2862,2.31,2.325,2.3286,2.3547,2.3645,2.3743,2.4096,2.4334,2.4458,2.4461,2.418,2.3676,2.371,2.4174,2.4744,2.5123,2.554,2.5975,2.6088,2.6241,2.6313,2.6078,2.5974,2.6028,2.5816,2.5623,2.5576,2.5667,2.5441,2.4946,2.4776,2.4519,2.4137,2.3522,2.3198,2.3213,2.2729,2.2288,2.2012,2.0946,2.0453,2.0581,2.069,2.0958,2.1272,2.1351,2.1445,2.1727,2.1847,2.1449,2.0603,1.9768,1.8756,1.7386,1.6173,1.525,1.4668,1.43,1.3991,1.3785,1.3603,1.3456,1.3296,1.3158,1.2248,1.0044,0.948,0.8873,0.8156,0.8,0.816,0.8414,0.8225,0.8042,0.8178,0.8387,0.8814,0.9449,0.9767,1.0146,1.0892,1.1159,1.1763,1.2226,1.2603,1.2659,1.3397,1.4009,1.3797,1.3286,1.3299,1.3325,1.4314,1.4997,1.5427,1.5777,1.5844,1.5746,1.5459,1.5321,1.5365,1.5411,1.5395,1.5685,1.6136,1.637,1.6466,2.2911,2.3189,2.3189,2.3385,2.3592,2.3784,2.3872,2.3988,2.4162,2.4326,2.4412,2.4673,2.4785,2.4883,2.5221,2.5473,2.5553,2.5894,2.5849,2.5455,2.5153,2.5485,2.6077,2.6481,2.6875,2.7274,2.7384,2.755,2.7745,2.7473,2.7306,2.7361,2.7164,2.6961,2.6837,2.6908,2.6691,2.6197,2.5917,2.5668,2.5321,2.4739,2.445,2.4382,2.3944,2.3658,2.3583,2.2394,2.1741,2.1759,2.1892,2.2108,2.233,2.2301,2.2321,2.2482,2.2494,2.2319,2.1885,2.1327,2.0629,1.962,1.869,1.7978,1.7542,1.7092,1.6829,1.6673,1.6636,1.642,1.6282,1.6102,1.5189,1.3683,1.2021,1.0498,0.9197,0.9547,1.0128,1.0285,1.0084,1.0004,1.0131,1.0393,1.0779,1.1522,1.1948,1.2326,1.314,1.3456,1.3916,1.4218,1.4203,1.453,1.519,1.5679,1.6064,1.5846,1.5663,1.562,1.6024,1.6396,1.6763,1.7259,1.7471,1.7398,1.714,1.69,1.6846,1.6893,1.6824,1.7064,1.7278,1.7384,1.7547,2.3598,2.3844,2.3858,2.4082,2.4323,2.4388,2.4582,2.4697,2.4761,2.4968,2.5199,2.553,2.5568,2.5604,2.6118,2.6336,2.626,2.6731,2.7295,2.7496,2.7141,2.6923,2.7205,2.7583,2.7994,2.8135,2.8208,2.8359,2.8749,2.8605,2.8641,2.8811,2.8716,2.8588,2.8168,2.8169,2.7945,2.7486,2.6818,2.6591,2.6632,2.5938,2.5623,2.5641,2.5109,2.4784,2.4705,2.4234,2.3783,2.3558,2.3512,2.3622,2.3817,2.3456,2.3223,2.3371,2.2918,2.2863,2.2862,2.2769,2.2524,2.2022,2.1637,2.1789,2.0911,2.0418,2.0174,2.0059,2.0091,2.0094,1.9868,1.97,1.9149,1.8259,1.4827,1.1938,1.0096,1.1396,1.2567,1.2608,1.2397,1.2108,1.217,1.2469,1.287,1.3363,1.3745,1.4177,1.4853,1.5301,1.5256,1.5674,1.6408,1.6846,1.7666,1.7884,1.826,1.8336,1.8037,1.7773,1.7506,1.7658,1.788,1.8402,1.8658,1.8681,1.8556,1.8107,1.7958,1.789,1.7986,1.8177,1.8243,1.8277,1.8533,2.5402,2.5601,2.5586,2.5759,2.6021,2.6153,2.6294,2.6498,2.6571,2.6612,2.6887,2.7199,2.7221,2.7331,2.7733,2.8047,2.8139,2.8474,2.8914,2.9251,2.9286,2.9157,2.9227,2.9482,2.9758,2.9928,2.9982,3.0291,3.0475,3.0065,2.9955,3.0033,2.9625,2.9369,2.9314,2.933,2.9408,2.9302,2.871,2.8388,2.8284,2.7353,2.6813,2.6799,2.6201,2.5919,2.595,2.6002,2.5289,2.4067,2.3979,2.4078,2.4302,2.4244,2.4302,2.4433,2.4435,2.4213,2.391,2.3878,2.357,2.2842,2.291,2.2403,2.2217,2.2009,2.1813,2.1704,2.1662,2.1667,2.1459,2.1383,2.0971,1.9805,1.6571,1.3432,1.2712,1.4021,1.5496,1.5377,1.4341,1.3848,1.39,1.4099,1.4505,1.5154,1.5667,1.6137,1.7048,1.7601,1.7765,1.8895,1.9623,1.9779,2.0063,2.0237,2.0461,2.068,2.0391,1.9811,1.9282,1.8768,1.8904,1.9154,1.9022,1.8996,1.893,1.8664,1.8717,1.8641,1.8622,1.8582,1.8813,1.8937,1.9321,2.6418,2.6683,2.6669,2.6826,2.71,2.7269,2.7437,2.7524,2.7675,2.7825,2.8008,2.8204,2.835,2.8479,2.8858,2.912,2.9303,2.9649,2.9941,3.0248,3.0858,3.0809,3.0526,3.0601,3.0861,3.11,3.1274,3.1393,3.1514,3.1281,3.1199,3.1219,3.089,3.0644,3.0527,3.051,3.0445,3.0373,3.0018,2.9765,2.9476,2.8807,2.8275,2.7973,2.7382,2.6943,2.6757,2.686,2.6395,2.5541,2.5356,2.5412,2.552,2.5622,2.5753,2.5943,2.6091,2.6025,2.5811,2.5771,2.5492,2.4958,2.4813,2.4818,2.4735,2.459,2.4654,2.4697,2.4582,2.4481,2.4338,2.4147,2.368,2.2795,1.9886,1.706,1.5134,1.6888,1.8136,1.8037,1.7281,1.6394,1.6571,1.668,1.7119,1.7772,1.8232,1.8866,1.9584,1.9973,2.0306,2.1039,2.1335,2.1162,2.1111,2.1261,2.1388,2.1735,2.1625,2.1256,2.056,1.9751,1.9452,1.9415,1.9332,1.9251,1.9119,1.9,1.8966,1.8914,1.8914,1.8896,1.9057,1.9554,1.9961,2.6997,2.7284,2.7284,2.7423,2.7675,2.7825,2.7925,2.8073,2.822,2.8398,2.8574,2.8732,2.8904,2.9166,2.9425,2.9726,3.0027,3.0402,3.0766,3.1357,3.21,3.2287,3.1607,3.171,3.1866,3.2042,3.197,3.2295,3.2597,3.2564,3.2582,3.2651,3.258,3.2258,3.1945,3.1764,3.1457,3.1265,3.107,3.0812,3.049,3.0191,2.9734,2.9122,2.8516,2.7974,2.7662,2.7581,2.745,2.7251,2.7193,2.7001,2.7104,2.7204,2.7294,2.7333,2.7358,2.7528,2.7759,2.7636,2.771,2.7183,2.7513,2.7929,2.7286,2.7293,2.7415,2.7287,2.7951,2.7438,2.7275,2.7282,2.6624,2.5586,2.4559,2.2257,1.9618,1.9881,2.1153,2.1061,2.0437,1.9969,2.0041,2.0217,2.0314,1.9615,2.0116,2.0523,2.1054,2.1348,2.1678,2.2135,2.2209,2.2027,2.2027,2.2099,2.2191,2.2337,2.219,2.184,2.1236,2.0519,1.989,1.9596,1.9481,1.9342,1.9168,1.9119,1.9122,1.9053,1.8967,1.8932,1.9022,1.9842,2.0428,2.756,2.781,2.7825,2.7974,2.825,2.8301,2.8431,2.859,2.8669,2.892,2.9106,2.9289,2.9486,2.9694,3.0038,3.051,3.1305,3.1616,3.2118,3.3179,3.3662,3.3925,3.364,3.3679,3.3699,3.3761,3.3981,3.4163,3.4306,3.4287,3.4516,3.4478,3.3959,3.3723,3.3633,3.3024,3.2889,3.2845,3.2392,3.209,3.1912,3.1489,3.0937,3.0278,2.9603,2.9308,2.9266,2.9295,2.9342,2.9074,2.8209,2.7569,2.7559,2.7618,2.7736,2.7842,2.7857,2.792,2.799,2.8191,2.8133,2.8169,2.8262,2.8127,2.8065,2.8242,2.8294,2.8186,2.8154,2.8294,2.823,2.7934,2.7729,2.735,2.6921,2.5801,2.3801,2.3346,2.351,2.3213,2.2161,2.1039,2.1173,2.1337,2.1455,2.1479,2.1717,2.2007,2.2335,2.2665,2.2904,2.3161,2.318,2.3052,2.3015,2.2997,2.296,2.2978,2.2813,2.2685,2.2062,2.1329,2.0704,2.012,1.9612,1.951,1.9661,1.9263,1.9302,1.9143,1.9056,1.9039,1.9273,2.0112,2.0853,2.8107,2.8301,2.835,2.851,2.8763,2.892,2.8997,2.9106,2.9335,2.9515,2.9694,2.9853,3.025,3.082,3.0997,3.1675,3.2604,3.3042,3.3676,3.4506,3.499,3.539,3.5799,3.5823,3.572,3.4939,3.496,3.5169,3.5238,3.5393,3.5367,3.5508,3.5127,3.4975,3.4987,3.4298,3.4095,3.4101,3.355,3.3128,3.2906,3.2581,3.2061,3.1408,3.0771,3.0442,3.0492,3.0167,3.0128,2.9942,2.9312,2.8769,2.8769,2.8815,2.8894,2.9002,2.9047,2.911,2.9214,2.928,2.9369,2.9327,2.9401,2.9432,2.9435,2.9466,2.9511,2.9472,2.9486,2.9469,2.9367,2.9298,2.9151,2.9023,2.8921,2.837,2.7419,2.6469,2.5836,2.5622,2.4837,2.4303,2.3989,2.3381,2.3399,2.3785,2.3269,2.3503,2.3449,2.3725,2.382,2.3988,2.4118,2.41,2.4026,2.3914,2.3764,2.369,2.3526,2.3452,2.3177,2.2356,2.1515,2.095,2.044,2.0497,2.0517,2.0027,1.9612,1.9578,1.9489,1.9309,1.9541,2.0394,2.1036,2.8621,2.8826,2.8826,2.8982,2.9259,2.9515,2.9605,2.9677,2.9973,3.013,3.0349,3.045,3.1166,3.1892,3.2244,3.2947,3.3917,3.4692,3.5304,3.5784,3.6196,3.6645,3.7146,3.7327,3.7039,3.565,3.5944,3.6059,3.6125,3.6146,3.6481,3.6295,3.6095,3.6133,3.6065,3.5509,3.5183,3.5325,3.4666,3.416,3.3792,3.3596,3.3139,3.2506,3.1884,3.1527,3.1401,3.0992,3.0567,3.0503,3.0456,3.0398,3.0355,3.033,3.0379,3.0432,3.0289,3.025,3.0272,3.0455,3.0536,3.0704,3.0701,3.0732,3.069,3.0613,3.0602,3.0664,3.0604,3.0604,3.0789,3.0496,3.0447,3.0412,3.0453,3.0458,3.0105,2.8906,2.8089,2.7759,2.6817,2.6085,2.6088,2.5828,2.5957,2.5901,2.5323,2.4877,2.4752,2.4662,2.4685,2.4356,2.4321,2.4228,2.4134,2.4095,2.4036,2.3959,2.3905,2.3866,2.3828,2.3244,2.2425,2.1899,2.1534,2.1425,2.1169,2.0716,2.039,2.019,2.0062,1.9969,2.0287,2.0743,2.1255,2.9121,2.938,2.938,2.9576,2.9842,3.0017,3.0113,3.0182,3.0468,3.0634,3.0824,3.1441,3.2029,3.2587,3.327,3.4146,3.5235,3.6095,3.6726,3.694,3.7291,3.7667,3.7809,3.8104,3.8016,3.798,3.7744,3.7653,3.7772,3.8031,3.7833,3.7918,3.7491,3.7287,3.7163,3.6685,3.6332,3.646,3.5795,3.5333,3.5155,3.4713,3.4188,3.3536,3.2898,3.2589,3.2401,3.1892,3.1465,3.1403,3.0827,3.0626,3.0685,3.0644,3.0568,3.0549,3.0585,3.0618,3.0656,3.0691,3.0748,3.0774,3.0802,3.0801,3.0794,3.0829,3.0839,3.082,3.0829,3.084,3.0802,3.0878,3.0741,3.0649,3.0595,3.0568,3.0413,2.999,2.953,2.9294,2.8354,2.7544,2.7557,2.7436,2.7123,2.6883,2.6474,2.5955,2.5645,2.5462,2.5335,2.4874,2.4321,2.419,2.4036,2.3998,2.3978,2.3937,2.3881,2.3878,2.3819,2.3795,2.3343,2.2674,2.2131,2.1783,2.1527,2.1344,2.1141,2.0934,2.0805,2.0655,2.0926,2.1216,2.1469,2.9605,2.987,2.987,3.0044,3.0342,3.0452,3.0576,3.0699,3.0998,3.11,3.1438,3.2195,3.2973,3.3611,3.4419,3.5401,3.6394,3.7106,3.7558,3.7667,3.7863,3.807,3.8189,3.8451,3.859,3.8634,3.8634,3.8652,3.8683,3.8688,3.8785,3.8781,3.8477,3.8386,3.8339,3.7753,3.7536,3.7483,3.6934,3.6349,3.6121,3.5457,3.4895,3.4499,3.393,3.359,3.3436,3.2821,3.2452,3.2367,3.2116,3.1978,3.182,3.1507,3.1083,3.0808,3.0676,3.0685,3.073,3.0759,3.0784,3.0782,3.0785,3.0799,3.079,3.0799,3.0839,3.0829,3.083,3.0984,3.1382,3.1345,3.1518,3.165,3.1187,3.0684,3.0539,3.0369,3.0385,3.039,2.9597,2.8985,2.8833,2.8582,2.8121,2.7808,2.7554,2.7075,2.6559,2.632,2.6098,2.5539,2.5017,2.4716,2.452,2.4374,2.4317,2.4203,2.4,2.3958,2.3865,2.3819,2.3692,2.3316,2.2788,2.2275,2.2345,2.2321,2.2003,2.1636,2.1285,2.1114,2.1379,2.1634,2.1864,3.007,3.03,3.0316,3.0526,3.0855,3.0942,3.1061,3.1235,3.1504,3.1737,3.2035,3.3006,3.3938,3.4784,3.5709,3.662,3.7465,3.7721,3.7898,3.8002,3.8171,3.8336,3.8528,3.8683,3.8851,3.8931,3.9017,3.9036,3.8979,3.8989,3.9101,3.9137,3.9165,3.9245,3.9126,3.869,3.863,3.8486,3.8026,3.7259,3.6441,3.5886,3.5479,3.534,3.4783,3.4511,3.4508,3.3808,3.3422,3.3324,3.3203,3.3145,3.3167,3.2649,3.1974,3.1358,3.0962,3.0778,3.0779,3.0798,3.0798,3.0791,3.0825,3.0814,3.0898,3.0993,3.1133,3.1063,3.1325,3.1623,3.2135,3.2178,3.2406,3.2512,3.1825,3.107,3.1261,3.1301,3.1375,3.1175,3.0665,3.0193,2.9747,2.9396,2.8862,2.8721,2.8461,2.7885,2.7401,2.7175,2.6871,2.6337,2.5841,2.5485,2.5219,2.4944,2.4904,2.4882,2.4552,2.4332,2.4107,2.388,2.3736,2.3606,2.3414,2.303,2.3169,2.3106,2.27,2.222,2.1706,2.161,2.1947,2.2059,2.2167,3.0535,3.0723,3.0723,3.0982,3.1368,3.1411,3.1579,3.1785,3.1982,3.249,3.3103,3.4179,3.5081,3.5987,3.7077,3.7667,3.7863,3.8054,3.8256,3.8368,3.8515,3.867,3.8833,3.9007,3.9073,3.9165,3.929,3.9264,3.9219,3.9245,3.9298,3.9376,3.9452,3.9526,3.9609,3.9421,3.9652,3.9692,3.9031,3.7965,3.6913,3.6628,3.6144,3.5714,3.5434,3.5356,3.5291,3.47,3.4348,3.4276,3.3699,3.3375,3.329,3.3298,3.3219,3.2658,3.1839,3.0802,3.0891,3.0947,3.0843,3.0852,3.0839,3.0859,3.1108,3.1597,3.1928,3.1882,3.237,3.28,3.2956,3.2968,3.2993,3.3064,3.2952,3.2615,3.262,3.2329,3.24,3.22,3.1785,3.0932,3.0272,2.9937,2.9639,2.9513,2.9289,2.8689,2.8216,2.7925,2.765,2.7145,2.6613,2.6236,2.5901,2.5642,2.5457,2.5466,2.5172,2.4789,2.4631,2.4405,2.3894,2.3764,2.3659,2.3506,2.3305,2.3206,2.3136,2.2829,2.2306,2.2352,2.2574,2.2582,2.2382,3.1257,3.1179,3.1179,3.1449,3.1802,3.1856,3.1984,3.2319,3.2827,3.3283,3.3917,3.5261,3.631,3.7165,3.7929,3.8156,3.8204,3.8336,3.8528,3.8652,3.8773,3.8892,3.9045,3.9183,3.9245,3.9376,3.9502,3.9575,3.9526,3.9526,3.9532,3.9623,3.9712,3.9781,3.9914,3.9914,4.0059,3.9948,3.948,3.8796,3.8113,3.7366,3.6714,3.6331,3.5959,3.5805,3.5678,3.551,3.5259,3.523,3.4873,3.4792,3.4638,3.4425,3.4131,3.4044,3.3014,3.2135,3.1665,3.1553,3.1325,3.0937,3.0916,3.1026,3.1529,3.2255,3.2752,3.2698,3.2951,3.3344,3.374,3.3751,3.4,3.4103,3.4024,3.4074,3.3915,3.3572,3.3374,3.3147,3.2843,3.1996,3.1186,3.0772,3.0471,3.0187,2.9826,2.92,2.8772,2.8503,2.8242,2.7978,2.7434,2.6934,2.6638,2.6343,2.5989,2.5906,2.5781,2.5488,2.5386,2.5106,2.4575,2.4242,2.4189,2.3927,2.3525,2.3206,2.3087,2.3,2.2952,2.279,2.2649,2.247,2.2303,3.1948,3.1765,3.1691,3.1875,3.2197,3.2214,3.251,3.2995,3.3592,3.4173,3.4968,3.6301,3.7476,3.8044,3.8318,3.8465,3.851,3.8603,3.8755,3.8921,3.9007,3.9101,3.9245,3.9376,3.9477,3.9556,3.9717,3.9804,3.9848,3.9829,3.9851,3.9889,3.9933,4.0038,4.0138,4.0196,4.0252,4.0348,3.9976,3.9571,3.9123,3.8226,3.7683,3.7182,3.6648,3.614,3.6126,3.5857,3.5833,3.58,3.5788,3.5669,3.563,3.5274,3.5031,3.4938,3.4296,3.3691,3.3047,3.2578,3.2109,3.1693,3.1446,3.1893,3.2352,3.3109,3.3565,3.3507,3.38,3.4124,3.4391,3.4558,3.4677,3.4908,3.5044,3.5181,3.5114,3.4433,3.4015,3.3836,3.3505,3.3103,3.2393,3.1792,3.1358,3.094,3.0368,2.9717,2.937,2.9126,2.8816,2.8578,2.8148,2.77,2.7513,2.7163,2.676,2.6459,2.6325,2.6197,2.6111,2.5775,2.5237,2.4992,2.4799,2.4582,2.4286,2.3638,2.3028,2.2902,2.279,2.2659,2.2515,2.2349,2.2192,3.2489,3.2488,3.2284,3.2318,3.2573,3.2555,3.3164,3.3996,3.4221,3.5235,3.6573,3.7675,3.8237,3.8478,3.8652,3.8773,3.8862,3.8921,3.9045,3.9156,3.9264,3.935,3.9477,3.9599,3.9693,3.9785,3.9914,3.9977,4.0058,4.0119,4.0118,4.0098,4.0138,4.0253,4.0344,4.0377,4.0441,4.0559,4.043,4.0113,3.9762,3.9234,3.8927,3.819,3.7508,3.7008,3.7027,3.6326,3.5894,3.5899,3.5939,3.5974,3.5927,3.5816,3.5683,3.5605,3.5544,3.4974,3.4383,3.3662,3.3289,3.32,3.3115,3.2989,3.3232,3.3946,3.4313,3.436,3.4635,3.5007,3.5251,3.5369,3.5181,3.5162,3.5193,3.5141,3.5072,3.4813,3.4461,3.442,3.4101,3.3622,3.3361,3.2701,3.2089,3.1672,3.1033,3.0369,3.007,2.981,2.9395,2.9091,2.8757,2.8489,2.8446,2.807,2.7605,2.7338,2.7163,2.7014,2.6863,2.6419,2.6056,2.5623,2.5412,2.5252,2.495,2.4172,2.3466,2.2928,2.2667,2.2668,2.2417,2.2147,2.2032,3.2852,3.2934,3.3416,3.3344,3.2965,3.343,3.3966,3.4635,3.5647,3.6739,3.794,3.8425,3.8683,3.8773,3.8862,3.8979,3.9092,3.9156,3.9245,3.9376,3.9477,3.9551,3.967,3.9762,3.987,3.9975,4.008,4.0177,4.0271,4.0306,4.0394,4.0377,4.036,4.043,4.0476,4.0549,4.0635,4.0688,4.075,4.0544,4.0392,3.9801,3.948,3.9194,3.7734,3.7261,3.7052,3.6377,3.6068,3.5965,3.5979,3.5991,3.6015,3.6015,3.6012,3.6005,3.5977,3.5731,3.5369,3.4592,3.3945,3.3522,3.3692,3.4034,3.4074,3.472,3.5057,3.521,3.5284,3.5449,3.535,3.5304,3.5223,3.5176,3.5108,3.5073,3.4945,3.4771,3.4498,3.4274,3.4203,3.3987,3.379,3.3571,3.2937,3.2341,3.1712,3.1117,3.0802,3.0549,3.0196,2.9826,2.951,2.9295,2.925,2.8846,2.8452,2.821,2.7987,2.7709,2.7457,2.737,2.6986,2.6507,2.5985,2.5721,2.5276,2.454,2.3955,2.347,2.3056,2.2796,2.2483,2.217,2.2178,3.3538,3.3719,3.4588,3.4443,3.3774,3.4473,3.5084,3.5684,3.676,3.7851,3.8707,3.8844,3.895,3.9007,3.9092,3.9183,3.929,3.9376,3.9477,3.9575,3.967,3.9758,3.987,3.9956,4.0059,4.0158,4.0233,4.0323,4.0427,4.0457,4.0519,4.0549,4.0564,4.0598,4.0626,4.0688,4.0761,4.0815,4.0837,4.0878,4.0761,4.0401,4.0077,3.9933,3.8793,3.7985,3.7591,3.695,3.6323,3.612,3.6011,3.6015,3.6014,3.6009,3.5982,3.5965,3.5927,3.589,3.571,3.5334,3.4681,3.4445,3.4552,3.4814,3.4982,3.53,3.5415,3.5425,3.5449,3.5383,3.5277,3.5245,3.516,3.5073,3.502,3.4945,3.4869,3.4708,3.4386,3.4105,3.4055,3.3998,3.3858,3.3652,3.3351,3.293,3.2703,3.2065,3.1538,3.1302,3.1121,3.0704,3.0333,3.0152,2.9989,2.9691,2.9339,2.879,2.8546,2.8195,2.7975,2.7883,2.7642,2.7046,2.6561,2.6221,2.5863,2.5531,2.4808,2.4032,2.3646,2.3294,2.3237,2.3031,2.2867,3.4695,3.4892,3.57,3.5572,3.4984,3.5622,3.6479,3.7147,3.7548,3.818,3.897,3.912,3.9183,3.921,3.9317,3.9401,3.9502,3.9575,3.9689,3.9781,3.9848,3.9973,4.0058,4.0158,4.0233,4.036,4.0408,4.0457,4.0569,4.0593,4.0648,4.07,4.0713,4.0745,4.0725,4.0773,4.0828,4.0898,4.0907,4.0935,4.0921,4.084,4.0765,4.0539,3.9836,3.8961,3.844,3.7477,3.6808,3.6366,3.6074,3.6033,3.6021,3.5994,3.5962,3.5938,3.5899,3.5897,3.5866,3.5775,3.5546,3.5352,3.5339,3.5398,3.5482,3.557,3.5547,3.5468,3.5364,3.5304,3.5245,3.5198,3.5056,3.5001,3.4927,3.485,3.4769,3.4583,3.4269,3.3954,3.3868,3.3788,3.3707,3.3625,3.353,3.3411,3.3455,3.3063,3.2335,3.2107,3.1981,3.1653,3.1263,3.089,3.0743,3.0603,3.0248,2.9626,2.9118,2.8771,2.8317,2.8022,2.7714,2.7382,2.702,2.657,2.6649,2.6706,2.5776,2.4869,2.4223,2.3896,2.3915,2.38,2.3519,3.5245,3.5928,3.6803,3.7044,3.6879,3.7034,3.7376,3.7775,3.8368,3.8887,3.9192,3.9317,3.935,3.9427,3.9521,3.9599,3.9712,3.9781,3.9889,3.9996,4.0077,4.0196,4.029,4.0325,4.0394,4.0492,4.0534,4.0574,4.0662,4.07,4.0738,4.0773,4.0818,4.0858,4.0839,4.0859,4.0907,4.0963,4.098,4.0996,4.0986,4.102,4.1013,4.1013,4.0262,3.9692,3.9242,3.8137,3.7303,3.6757,3.6443,3.6081,3.6007,3.5958,3.5934,3.5883,3.5859,3.5803,3.5771,3.5697,3.5679,3.5689,3.5679,3.5626,3.5589,3.5547,3.5468,3.5398,3.5304,3.5226,3.5196,3.5056,3.4964,3.4889,3.4831,3.479,3.4687,3.4427,3.4148,3.3895,3.3707,3.3671,3.3605,3.3577,3.3462,3.3433,3.3452,3.3452,3.2886,3.294,3.2875,3.2582,3.2198,3.175,3.1458,3.1249,3.0856,3.0201,2.9743,2.9378,2.8917,2.8342,2.7851,2.7538,2.724,2.6975,2.6792,2.6607,2.6336,2.5697,2.4996,2.4431,2.4331,2.4166,2.3868,3.6297,3.6999,3.7859,3.8294,3.8393,3.8266,3.8294,3.8449,3.9021,3.9388,3.9439,3.9496,3.9526,3.9599,3.967,3.9781,3.9911,3.9975,4.0078,4.0196,4.0253,4.0344,4.043,4.0534,4.0519,4.0631,4.0687,4.072,4.073,4.0804,4.0848,4.0869,4.0897,4.0915,4.0924,4.0952,4.0952,4.0984,4.0979,4.1013,4.1019,4.1056,4.1072,4.0937,4.0581,4.0125,3.9624,3.8847,3.789,3.7398,3.6823,3.6277,3.6107,3.5934,3.5878,3.5846,3.5815,3.5747,3.5669,3.5648,3.5626,3.5601,3.5581,3.5558,3.5547,3.5482,3.5379,3.5304,3.5223,3.516,3.5073,3.4945,3.487,3.4812,3.471,3.4666,3.4539,3.4293,3.4023,3.3753,3.3615,3.3549,3.3491,3.3462,3.3422,3.3393,3.3393,3.3393,3.3393,3.3364,3.3352,3.3076,3.2841,3.2427,3.2084,3.1885,3.1404,3.0765,3.0395,3.0077,2.9443,2.8862,2.8265,2.772,2.7555,2.725,2.6708,2.6385,2.6365,2.6129,2.5594,2.5144,2.4795,2.4663,2.4564,3.7839,3.8069,3.8848,3.9245,3.9354,3.9171,3.9242,3.9364,3.9439,3.9551,3.9599,3.9665,3.9735,3.9823,3.9889,3.9994,4.0098,4.0157,4.0386,4.0513,4.0663,4.0742,4.09,4.0998,4.1208,4.1049,4.1098,4.1443,4.1011,4.1131,4.1178,4.098,4.0957,4.0999,4.1006,4.1013,4.1013,4.1007,4.1019,4.1037,4.1072,4.1085,4.1101,4.1016,4.0908,4.0583,4.0176,3.9627,3.8781,3.8071,3.7318,3.6731,3.628,3.5947,3.5866,3.5807,3.5728,3.5669,3.5637,3.5593,3.5572,3.5541,3.5489,3.5495,3.5468,3.5412,3.5335,3.5258,3.5193,3.5054,3.4945,3.487,3.4811,3.4689,3.4561,3.4473,3.4363,3.4148,3.386,3.3661,3.3549,3.3462,3.3452,3.3393,3.3393,3.3393,3.3393,3.3393,3.3364,3.3334,3.3322,3.3244,3.3063,3.2925,3.2652,3.2307,3.2036,3.1429,3.1144,3.0801,3.0127,2.942,2.887,2.8407,2.7995,2.7651,2.7308,2.6966,2.6678,2.6407,2.6438,2.599,2.569,2.569,2.5673,3.8342,3.9006,3.9282,3.9452,3.9545,3.9618,3.9642,3.9618,3.9623,3.9689,3.9758,3.9823,3.993,4.0015,4.0096,4.0158,4.0234,4.0403,4.0874,4.1133,4.1405,4.1919,4.2226,4.2357,4.2492,4.254,4.2574,4.2489,4.251,4.2237,4.1443,4.1084,4.1039,4.1058,4.1056,4.1086,4.1067,4.1047,4.1052,4.1066,4.1078,4.1108,4.1101,4.1108,4.1112,4.0859,4.0681,4.0147,3.9454,3.9117,3.7819,3.703,3.6927,3.6249,3.5803,3.5736,3.5679,3.5607,3.5593,3.554,3.5515,3.5474,3.5407,3.536,3.535,3.5339,3.5273,3.5209,3.5143,3.5001,3.4889,3.4811,3.471,3.4561,3.4427,3.4293,3.4197,3.4023,3.3753,3.3549,3.3433,3.3452,3.3393,3.3393,3.3393,3.3393,3.3393,3.3393,3.3364,3.3304,3.3244,3.3183,3.306,3.2934,3.2787,3.2462,3.2329,3.2124,3.1725,3.1324,3.0644,3.0,2.9513,2.8975,2.8457,2.8246,2.8081,2.7724,2.7354,2.7665,2.7715,2.7081,2.6634,2.6617,2.6651,3.8952,3.9458,3.9551,3.9623,3.9735,3.9826,3.987,3.9889,3.9845,3.987,3.9973,4.0015,4.0077,4.0158,4.0253,4.0326,4.0413,4.0886,4.1351,4.1731,4.2295,4.2711,4.3189,4.3412,4.3241,4.346,4.35,4.3277,4.3363,4.2747,4.1928,4.1643,4.1304,4.1072,4.1085,4.1097,4.1101,4.1104,4.1104,4.1111,4.1116,4.1105,4.1112,4.1113,4.1113,4.1108,4.1064,4.0444,4.0203,3.9884,3.8497,3.8046,3.7715,3.6841,3.6289,3.6182,3.5781,3.5666,3.556,3.5495,3.546,3.5417,3.5335,3.5289,3.5273,3.5261,3.5229,3.5143,3.5056,3.4945,3.4831,3.471,3.4583,3.445,3.4311,3.4173,3.4023,3.3868,3.3671,3.3462,3.3393,3.3393,3.3393,3.3393,3.3393,3.3393,3.3393,3.3393,3.3316,3.3256,3.3196,3.3135,3.2979,3.287,3.269,3.2557,3.2352,3.2144,3.1915,3.1457,3.0979,3.0605,3.0146,2.9484,2.8791,2.8665,2.8538,2.84,2.8196,2.8511,2.8594,2.8009,2.7561,2.7462,2.7528,3.9575,3.9623,3.9708,3.9804,3.9933,3.9996,4.0098,4.0196,4.0078,4.0078,4.0177,4.0215,4.0234,4.0325,4.0396,4.0444,4.0735,4.1243,4.1842,4.2164,4.3079,4.364,4.3862,4.3702,4.4122,4.387,4.3821,4.4159,4.358,4.3026,4.2559,4.2368,4.1491,4.1097,4.1111,4.1099,4.1103,4.1105,4.1105,4.1107,4.111,4.1112,4.1113,4.1112,4.1107,4.1116,4.1108,4.0941,4.073,4.0184,3.9649,3.9195,3.8307,3.7598,3.7181,3.6748,3.6284,3.5952,3.5726,3.5561,3.5388,3.5324,3.5277,3.5245,3.5248,3.5231,3.5179,3.5073,3.4964,3.487,3.473,3.4626,3.4495,3.4316,3.4148,3.4074,3.3998,3.3834,3.3577,3.3422,3.3393,3.3393,3.3393,3.3393,3.3393,3.3393,3.3393,3.3393,3.3316,3.3226,3.3165,3.3104,3.2948,3.2787,3.2623,3.2456,3.2214,3.2037,3.1856,3.16,3.1134,3.0908,3.0785,3.0101,2.942,2.9104,2.8893,2.8959,2.9003,2.8986,2.8986,2.8738,2.8522,2.8456,2.839,3.9762,3.9845,3.9973,4.0057,4.0118,4.0158,4.0215,4.0271,4.0306,4.0306,4.0289,4.0325,4.0377,4.046,4.0527,4.0569,4.0819,4.1685,4.2325,4.3066,4.3897,4.463,4.5179,4.5113,4.5279,4.5501,4.544,4.5064,4.4501,4.376,4.2919,4.2401,4.1635,4.1233,4.1103,4.111,4.1112,4.1113,4.1113,4.1113,4.1113,4.1112,4.1108,4.1105,4.1114,4.1108,4.1117,4.1076,4.0964,4.0707,4.0013,3.9268,3.8373,3.8082,3.7931,3.773,3.7006,3.6573,3.6286,3.594,3.563,3.5411,3.5321,3.5253,3.5217,3.5198,3.5127,3.502,3.4889,3.4771,3.4647,3.4517,3.4363,3.4173,3.4079,3.4053,3.4009,3.3726,3.3462,3.3422,3.3393,3.3393,3.3393,3.3393,3.3393,3.3393,3.3393,3.3393,3.3316,3.3226,3.3165,3.3073,3.2916,3.274,3.2557,3.2335,3.2144,3.1893,3.1671,3.1445,3.123,3.0948,3.0664,3.0558,3.0129,2.9748,2.9648,2.998,2.9996,2.9731,2.9665,2.9516,2.9648,2.9648,2.9466,3.9954,4.0057,4.0138,4.0215,4.0253,4.027,4.0341,4.0392,4.0457,4.0473,4.0476,4.0476,4.0527,4.0583,4.0626,4.0687,4.1003,4.2124,4.2749,4.3552,4.4614,4.5423,4.592,4.6085,4.5987,4.613,4.6142,4.58,4.5331,4.4651,4.3825,4.2926,4.2112,4.1479,4.1229,4.1113,4.1112,4.1112,4.1107,4.1107,4.1111,4.1107,4.1101,4.1114,4.1108,4.1117,4.1096,4.1095,4.1039,4.0954,4.0509,4.016,3.9499,3.9046,3.8774,3.8453,3.791,3.7262,3.7068,3.6699,3.6138,3.5916,3.5916,3.6054,3.5131,3.5075,3.5038,3.4908,3.4771,3.4666,3.4517,3.4386,3.4197,3.3998,3.4244,3.4412,3.4037,3.3587,3.3433,3.3422,3.3393,3.3393,3.3393,3.3393,3.3393,3.3411,3.3411,3.3538,3.3442,3.355,3.3399,3.3221,3.3173,3.2831,3.2541,3.2318,3.2037,3.1819,3.1521,3.1252,3.1015,3.0757,3.0576,3.0477,3.046,3.041,3.0427,3.0468,3.0468,3.0212,3.0278,3.0319,3.0468,3.0468,3.0195,4.0118,4.0215,4.0289,4.0325,4.0342,4.0408,4.0473,4.0519,4.0588,4.0646,4.0687,4.0646,4.0673,4.07,4.0732,4.0776,4.1277,4.2501,4.3194,4.3848,4.5181,4.5775,4.6017,4.6113,4.6158,4.6181,4.619,4.6209,4.6045,4.523,4.4364,4.3654,4.2827,4.1973,4.1367,4.1111,4.1107,4.1105,4.1101,4.1116,4.1116,4.1116,4.1111,4.1104,4.1117,4.11,4.1075,4.1058,4.1,4.0918,4.0829,4.0615,4.0355,3.9888,3.9669,3.9292,3.8638,3.8197,3.798,3.7702,3.7175,3.6837,3.6912,3.642,3.5494,3.4984,3.4927,3.4811,3.4687,3.4539,3.4386,3.4282,3.4086,3.4218,3.4578,3.4887,3.4342,3.3898,3.3869,3.381,3.3773,3.3791,3.3737,3.3719,3.3683,3.3665,3.3665,3.3701,3.3834,3.4073,3.4141,3.396,3.3799,3.3365,3.2683,3.2354,3.2104,3.1671,3.1406,3.1095,3.0855,3.0692,3.0551,3.051,3.0468,3.0468,3.0468,3.0468,3.0468,3.0468,3.0468,3.0468,3.0468,3.0468,3.0468,4.0234,4.0381,4.0375,4.0425,4.0476,4.0523,4.0583,4.0654,4.0675,4.0732,4.0776,4.0781,4.0781,4.0776,4.0773,4.0846,4.1158,4.2604,4.3287,4.3763,4.5289,4.5909,4.6149,4.6158,4.6189,4.6209,4.6209,4.6226,4.6206,4.5457,4.4594,4.3787,4.2948,4.2128,4.1362,4.1242,4.1392,4.1431,4.1406,4.142,4.1257,4.1218,4.1117,4.1109,4.1115,4.1075,4.1039,4.102,4.0964,4.0906,4.0828,4.0761,4.0623,4.0422,4.0236,3.9946,3.9307,3.9013,3.8755,3.8397,3.7885,3.7526,3.7393,3.6881,3.5932,3.4999,3.4902,3.4668,3.4539,3.445,3.4311,3.4253,3.4142,3.4835,3.5326,3.5581,3.5496,3.5398,3.5403,3.5313,3.5204,3.515,3.5059,3.5041,3.5041,3.5005,3.4987,3.4956,3.4785,3.4853,3.4882,3.4646,3.4424,3.3527,3.2686,3.2492,3.2221,3.1751,3.1325,3.1116,3.0874,3.0626,3.0526,3.051,3.0468,3.0468,3.0468,3.0468,3.0468,3.0468,3.0468,3.0468,3.0468,3.0468,3.0468]}]]